Time,TemperatureF,DewpointF,PressureIn,WindDirection,WindDirectionDegrees,WindSpeedMPH,WindSpeedGustMPH,Humidity,HourlyPrecipIn,Conditions,Clouds,dailyrainin,SoftwareType,DateUTC
2013-06-21 00:00:00,77.7,68.8,30.06,East,90,1.1,3.1,74,0.00,,---,0.00,VWS V14.01,2013-06-21 05:00:00,
2013-06-21 00:01:00,77.7,68.8,30.06,WSW,248,4.9,4.9,74,0.00,,---,0.00,VWS V14.01,2013-06-21 05:01:00,
2013-06-21 00:02:00,77.5,69.0,30.06,East,90,1.6,4.9,75,0.00,,---,0.00,VWS V14.01,2013-06-21 05:02:00,
2013-06-21 00:03:00,77.5,69.0,30.06,South,180,2.5,4.3,75,0.00,,---,0.00,VWS V14.01,2013-06-21 05:03:00,
2013-06-21 00:04:00,77.5,69.0,30.06,South,180,2.0,4.7,75,0.00,,---,0.00,VWS V14.01,2013-06-21 05:04:00,
2013-06-21 00:05:00,77.5,69.0,30.06,East,90,2.2,2.2,75,0.00,,---,0.00,VWS V14.01,2013-06-21 05:05:00,
2013-06-21 00:06:00,77.4,68.8,30.06,South,180,1.3,2.2,75,0.00,,---,0.00,VWS V14.01,2013-06-21 05:06:00,
2013-06-21 00:07:00,77.4,68.8,30.06,ENE,68,1.1,7.4,75,0.00,,---,0.00,VWS V14.01,2013-06-21 05:07:00,
2013-06-21 00:08:00,77.4,68.8,30.06,South,180,4.3,4.3,75,0.00,,---,0.00,VWS V14.01,2013-06-21 05:08:00,
2013-06-21 00:09:00,77.4,68.8,30.06,East,90,2.9,4.3,75,0.00,,---,0.00,VWS V14.01,2013-06-21 05:09:00,
2013-06-21 00:10:00,77.4,68.8,30.06,SE,135,2.9,2.9,75,0.00,,---,0.00,VWS V14.01,2013-06-21 05:10:00,
2013-06-21 00:11:00,77.2,68.7,30.06,SE,135,2.9,2.9,75,0.00,,---,0.00,VWS V14.01,2013-06-21 05:11:00,
2013-06-21 00:12:00,77.2,68.7,30.06,South,180,1.3,4.0,75,0.00,,---,0.00,VWS V14.01,2013-06-21 05:12:00,
2013-06-21 00:13:00,77.2,68.7,30.06,East,90,1.1,2.7,75,0.00,,---,0.00,VWS V14.01,2013-06-21 05:13:00,
2013-06-21 00:14:00,77.0,68.5,30.06,WNW,292,2.9,2.9,75,0.00,,---,0.00,VWS V14.01,2013-06-21 05:14:00,
2013-06-21 00:15:00,77.0,68.9,30.06,SW,225,3.8,3.8,76,0.00,,---,0.00,VWS V14.01,2013-06-21 05:15:00,
2013-06-21 00:16:00,77.0,68.9,30.06,SE,135,3.4,3.8,76,0.00,,---,0.00,VWS V14.01,2013-06-21 05:16:00,
2013-06-21 00:17:00,77.0,68.9,30.06,East,90,0.0,3.4,76,0.00,,---,0.00,VWS V14.01,2013-06-21 05:17:00,
2013-06-21 00:18:00,77.0,68.9,30.06,South,180,2.7,2.7,76,0.00,,---,0.00,VWS V14.01,2013-06-21 05:18:00,
2013-06-21 00:19:00,77.0,69.2,30.06,SE,135,5.6,5.6,77,0.00,,---,0.00,VWS V14.01,2013-06-21 05:19:00,
2013-06-21 00:20:00,76.8,69.1,30.06,SSE,158,3.4,5.6,77,0.00,,---,0.00,VWS V14.01,2013-06-21 05:20:00,
2013-06-21 00:21:00,76.8,68.7,30.06,ESE,112,1.3,3.6,76,0.00,,---,0.00,VWS V14.01,2013-06-21 05:21:00,
2013-06-21 00:22:00,76.8,69.1,30.06,ESE,112,3.1,3.1,77,0.00,,---,0.00,VWS V14.01,2013-06-21 05:22:00,
2013-06-21 00:23:00,76.8,69.1,30.06,East,90,2.9,6.3,77,0.00,,---,0.00,VWS V14.01,2013-06-21 05:23:00,
2013-06-21 00:24:00,76.8,69.1,30.06,SSW,202,4.3,4.3,77,0.00,,---,0.00,VWS V14.01,2013-06-21 05:24:00,
2013-06-21 00:25:00,76.8,69.1,30.06,South,180,1.6,5.4,77,0.00,,---,0.00,VWS V14.01,2013-06-21 05:25:00,
2013-06-21 00:26:00,76.8,69.1,30.06,SE,135,2.7,2.9,77,0.00,,---,0.00,VWS V14.01,2013-06-21 05:26:00,
2013-06-21 00:27:00,76.8,69.1,30.06,South,180,4.9,4.9,77,0.00,,---,0.00,VWS V14.01,2013-06-21 05:27:00,
2013-06-21 00:28:00,76.7,68.9,30.06,SSE,158,1.6,4.9,77,0.00,,---,0.00,VWS V14.01,2013-06-21 05:28:00,
2013-06-21 00:29:00,76.7,68.9,30.06,East,90,2.5,3.1,77,0.00,,---,0.00,VWS V14.01,2013-06-21 05:29:00,
2013-06-21 00:30:00,76.7,69.3,30.06,West,270,4.0,7.4,78,0.00,,---,0.00,VWS V14.01,2013-06-21 05:30:00,
2013-06-21 00:31:00,76.7,69.3,30.06,SE,135,4.0,4.0,78,0.00,,---,0.00,VWS V14.01,2013-06-21 05:31:00,
2013-06-21 00:32:00,76.7,69.3,30.06,SE,135,1.3,4.0,78,0.00,,---,0.00,VWS V14.01,2013-06-21 05:32:00,
2013-06-21 00:33:00,76.7,69.3,30.06,South,180,2.2,5.6,78,0.00,,---,0.00,VWS V14.01,2013-06-21 05:33:00,
2013-06-21 00:34:00,76.7,69.3,30.06,SW,225,2.5,5.8,78,0.00,,---,0.00,VWS V14.01,2013-06-21 05:34:00,
2013-06-21 00:35:00,76.5,69.1,30.06,SSE,158,2.7,2.7,78,0.00,,---,0.00,VWS V14.01,2013-06-21 05:35:00,
2013-06-21 00:36:00,76.5,69.1,30.06,East,90,0.0,4.3,78,0.00,,---,0.00,VWS V14.01,2013-06-21 05:36:00,
2013-06-21 00:37:00,76.5,69.1,30.06,SSE,158,4.3,5.6,78,0.00,,---,0.00,VWS V14.01,2013-06-21 05:37:00,
2013-06-21 00:38:00,76.5,69.1,30.06,ESE,112,1.3,4.3,78,0.00,,---,0.00,VWS V14.01,2013-06-21 05:38:00,
2013-06-21 00:39:00,76.5,69.1,30.06,SE,135,6.0,6.0,78,0.00,,---,0.00,VWS V14.01,2013-06-21 05:39:00,
2013-06-21 00:40:00,76.3,68.9,30.06,NE,45,0.0,6.0,78,0.00,,---,0.00,VWS V14.01,2013-06-21 05:40:00,
2013-06-21 00:41:00,76.3,68.9,30.06,East,90,5.4,5.4,78,0.00,,---,0.00,VWS V14.01,2013-06-21 05:41:00,
2013-06-21 00:42:00,76.3,68.9,30.06,SE,135,4.3,7.8,78,0.00,,---,0.00,VWS V14.01,2013-06-21 05:42:00,
2013-06-21 00:43:00,76.3,69.3,30.06,SSE,158,5.6,5.6,79,0.00,,---,0.00,VWS V14.01,2013-06-21 05:43:00,
2013-06-21 00:44:00,76.3,69.3,30.06,East,90,0.0,5.6,79,0.00,,---,0.00,VWS V14.01,2013-06-21 05:44:00,
2013-06-21 00:45:00,76.3,69.3,30.06,South,180,2.5,4.0,79,0.00,,---,0.00,VWS V14.01,2013-06-21 05:45:00,
2013-06-21 00:46:00,76.3,69.3,30.06,WSW,248,1.6,4.7,79,0.00,,---,0.00,VWS V14.01,2013-06-21 05:46:00,
2013-06-21 00:47:00,76.3,69.3,30.03,ESE,112,2.9,2.9,79,0.00,,---,0.00,VWS V14.01,2013-06-21 05:47:00,
2013-06-21 00:48:00,76.3,69.3,30.03,South,180,3.4,3.4,79,0.00,,---,0.00,VWS V14.01,2013-06-21 05:48:00,
2013-06-21 00:49:00,76.3,69.3,30.03,East,90,1.6,3.4,79,0.00,,---,0.00,VWS V14.01,2013-06-21 05:49:00,
2013-06-21 00:50:00,76.1,69.1,30.03,SSE,158,2.5,2.9,79,0.00,,---,0.00,VWS V14.01,2013-06-21 05:50:00,
2013-06-21 00:51:00,76.1,69.1,30.03,South,180,2.5,3.1,79,0.00,,---,0.00,VWS V14.01,2013-06-21 05:51:00,
2013-06-21 00:52:00,76.1,69.1,30.03,South,180,2.7,3.1,79,0.00,,---,0.00,VWS V14.01,2013-06-21 05:52:00,
2013-06-21 00:53:00,76.1,69.1,30.03,South,180,0.9,2.7,79,0.00,,---,0.00,VWS V14.01,2013-06-21 05:53:00,
2013-06-21 00:54:00,76.1,69.1,30.03,SE,135,4.0,6.5,79,0.00,,---,0.00,VWS V14.01,2013-06-21 05:54:00,
2013-06-21 00:55:00,76.1,69.1,30.03,ESE,112,3.6,4.0,79,0.00,,---,0.00,VWS V14.01,2013-06-21 05:55:00,
2013-06-21 00:56:00,76.1,69.1,30.03,ESE,112,3.1,3.8,79,0.00,,---,0.00,VWS V14.01,2013-06-21 05:56:00,
2013-06-21 00:57:00,76.1,69.1,30.03,South,180,0.0,3.1,79,0.00,,---,0.00,VWS V14.01,2013-06-21 05:57:00,
2013-06-21 00:58:00,75.9,69.3,30.03,West,270,1.3,3.8,80,0.00,,---,0.00,VWS V14.01,2013-06-21 05:58:00,
2013-06-21 00:59:00,75.9,69.3,30.03,ENE,68,3.1,3.1,80,0.00,,---,0.00,VWS V14.01,2013-06-21 05:59:00,
2013-06-21 01:00:00,75.9,69.3,30.03,SE,135,1.3,3.1,80,0.00,,---,0.00,VWS V14.01,2013-06-21 06:00:00,
2013-06-21 01:01:00,75.9,69.3,30.03,ESE,112,6.3,6.3,80,0.00,,---,0.00,VWS V14.01,2013-06-21 06:01:00,
2013-06-21 01:02:00,75.9,69.3,30.03,ESE,112,2.9,6.3,80,0.00,,---,0.00,VWS V14.01,2013-06-21 06:02:00,
2013-06-21 01:03:00,75.9,69.7,30.03,South,180,3.8,6.9,81,0.00,,---,0.00,VWS V14.01,2013-06-21 06:03:00,
2013-06-21 01:04:00,75.9,69.7,30.03,SE,135,2.7,4.7,81,0.00,,---,0.00,VWS V14.01,2013-06-21 06:04:00,
2013-06-21 01:05:00,75.9,69.7,30.03,NE,45,0.0,3.6,81,0.00,,---,0.00,VWS V14.01,2013-06-21 06:05:00,
2013-06-21 01:06:00,75.8,69.2,30.03,South,180,2.0,3.4,80,0.00,,---,0.00,VWS V14.01,2013-06-21 06:06:00,
2013-06-21 01:07:00,75.8,69.2,30.03,East,90,2.0,5.4,80,0.00,,---,0.00,VWS V14.01,2013-06-21 06:07:00,
2013-06-21 01:08:00,75.8,69.5,30.03,SSW,202,0.0,2.5,81,0.00,,---,0.00,VWS V14.01,2013-06-21 06:08:00,
2013-06-21 01:09:00,75.8,69.5,30.03,SSW,202,3.6,5.8,81,0.00,,---,0.00,VWS V14.01,2013-06-21 06:09:00,
2013-06-21 01:10:00,75.8,69.5,30.03,East,90,3.6,4.9,81,0.00,,---,0.00,VWS V14.01,2013-06-21 06:10:00,
2013-06-21 01:11:00,75.8,69.5,30.03,SSE,158,1.6,3.6,81,0.00,,---,0.00,VWS V14.01,2013-06-21 06:11:00,
2013-06-21 01:12:00,75.6,69.3,30.03,ESE,112,1.3,2.9,81,0.00,,---,0.00,VWS V14.01,2013-06-21 06:12:00,
2013-06-21 01:13:00,75.6,69.3,30.03,SW,225,3.8,5.8,81,0.00,,---,0.00,VWS V14.01,2013-06-21 06:13:00,
2013-06-21 01:14:00,75.8,69.9,30.03,ESE,112,7.4,7.4,82,0.00,,---,0.00,VWS V14.01,2013-06-21 06:14:00,
2013-06-21 01:15:00,75.6,69.7,30.03,WSW,248,1.3,7.4,82,0.00,,---,0.00,VWS V14.01,2013-06-21 06:15:00,
2013-06-21 01:16:00,75.6,69.7,30.03,ESE,112,0.9,2.9,82,0.00,,---,0.00,VWS V14.01,2013-06-21 06:16:00,
2013-06-21 01:17:00,75.6,69.3,30.06,SE,135,2.7,2.7,81,0.00,,---,0.00,VWS V14.01,2013-06-21 06:17:00,
2013-06-21 01:18:00,75.6,69.3,30.06,East,90,1.6,2.7,81,0.00,,---,0.00,VWS V14.01,2013-06-21 06:18:00,
2013-06-21 01:19:00,75.6,69.3,30.06,South,180,2.7,2.7,81,0.00,,---,0.00,VWS V14.01,2013-06-21 06:19:00,
2013-06-21 01:20:00,75.6,69.3,30.06,South,180,3.1,5.6,81,0.00,,---,0.00,VWS V14.01,2013-06-21 06:20:00,
2013-06-21 01:21:00,75.4,69.5,30.06,East,90,2.2,3.6,82,0.00,,---,0.00,VWS V14.01,2013-06-21 06:21:00,
2013-06-21 01:22:00,75.4,69.5,30.06,SSE,158,4.3,4.3,82,0.00,,---,0.00,VWS V14.01,2013-06-21 06:22:00,
2013-06-21 01:23:00,75.4,69.9,30.06,South,180,1.6,5.8,83,0.00,,---,0.00,VWS V14.01,2013-06-21 06:23:00,
2013-06-21 01:24:00,75.4,69.5,30.06,SE,135,1.1,2.0,82,0.00,,---,0.00,VWS V14.01,2013-06-21 06:24:00,
2013-06-21 01:25:00,75.4,69.5,30.06,East,90,2.0,2.0,82,0.00,,---,0.00,VWS V14.01,2013-06-21 06:25:00,
2013-06-21 01:26:00,75.4,69.2,30.06,East,90,2.7,3.4,81,0.00,,---,0.00,VWS V14.01,2013-06-21 06:26:00,
2013-06-21 01:27:00,75.4,69.5,30.06,South,180,0.9,2.7,82,0.00,,---,0.00,VWS V14.01,2013-06-21 06:27:00,
2013-06-21 01:28:00,75.4,69.5,30.06,SE,135,2.2,3.6,82,0.00,,---,0.00,VWS V14.01,2013-06-21 06:28:00,
2013-06-21 01:29:00,75.4,69.5,30.06,East,90,2.5,2.9,82,0.00,,---,0.00,VWS V14.01,2013-06-21 06:29:00,
2013-06-21 01:30:00,75.4,69.5,30.06,SW,225,2.5,2.5,82,0.00,,---,0.00,VWS V14.01,2013-06-21 06:30:00,
2013-06-21 01:31:00,75.2,69.4,30.06,East,90,0.0,2.5,82,0.00,,---,0.00,VWS V14.01,2013-06-21 06:31:00,
2013-06-21 01:32:00,75.4,69.5,30.06,SSE,158,2.0,2.0,82,0.00,,---,0.00,VWS V14.01,2013-06-21 06:32:00,
2013-06-21 01:33:00,75.2,69.4,30.06,South,180,3.8,3.8,82,0.00,,---,0.00,VWS V14.01,2013-06-21 06:33:00,
2013-06-21 01:34:00,75.4,69.5,30.06,East,90,2.9,3.8,82,0.00,,---,0.00,VWS V14.01,2013-06-21 06:34:00,
2013-06-21 01:35:00,75.4,69.5,30.06,East,90,1.6,3.8,82,0.00,,---,0.00,VWS V14.01,2013-06-21 06:35:00,
2013-06-21 01:36:00,75.4,69.5,30.06,SSE,158,4.0,4.0,82,0.00,,---,0.00,VWS V14.01,2013-06-21 06:36:00,
2013-06-21 01:37:00,75.2,69.7,30.06,NE,45,2.0,4.0,83,0.00,,---,0.00,VWS V14.01,2013-06-21 06:37:00,
2013-06-21 01:38:00,75.2,69.4,30.06,SW,225,1.1,2.7,82,0.00,,---,0.00,VWS V14.01,2013-06-21 06:38:00,
2013-06-21 01:39:00,75.2,69.7,30.06,ESE,112,2.5,2.7,83,0.00,,---,0.00,VWS V14.01,2013-06-21 06:39:00,
2013-06-21 01:40:00,75.2,69.7,30.06,SE,135,2.5,2.5,83,0.00,,---,0.00,VWS V14.01,2013-06-21 06:40:00,
2013-06-21 01:41:00,75.2,69.7,30.06,ESE,112,0.0,2.9,83,0.00,,---,0.00,VWS V14.01,2013-06-21 06:41:00,
2013-06-21 01:42:00,75.2,69.4,30.06,South,180,1.1,1.6,82,0.00,,---,0.00,VWS V14.01,2013-06-21 06:42:00,
2013-06-21 01:43:00,75.1,69.2,30.06,East,90,1.6,2.0,82,0.00,,---,0.00,VWS V14.01,2013-06-21 06:43:00,
2013-06-21 01:44:00,75.1,69.5,30.06,South,180,2.0,4.9,83,0.00,,---,0.00,VWS V14.01,2013-06-21 06:44:00,
2013-06-21 01:45:00,75.1,69.5,30.06,South,180,2.0,4.0,83,0.00,,---,0.00,VWS V14.01,2013-06-21 06:45:00,
2013-06-21 01:46:00,75.1,69.5,30.06,East,90,2.0,2.9,83,0.00,,---,0.00,VWS V14.01,2013-06-21 06:46:00,
2013-06-21 01:47:00,75.1,69.5,30.03,SSE,158,4.0,4.0,83,0.00,,---,0.00,VWS V14.01,2013-06-21 06:47:00,
2013-06-21 01:48:00,75.1,69.5,30.03,South,180,3.1,4.0,83,0.00,,---,0.00,VWS V14.01,2013-06-21 06:48:00,
2013-06-21 01:49:00,75.1,69.5,30.03,East,90,1.1,3.1,83,0.00,,---,0.00,VWS V14.01,2013-06-21 06:49:00,
2013-06-21 01:50:00,75.1,69.5,30.03,South,180,5.6,5.6,83,0.00,,---,0.00,VWS V14.01,2013-06-21 06:50:00,
2013-06-21 01:51:00,75.1,69.5,30.03,NNW,338,3.6,5.6,83,0.00,,---,0.00,VWS V14.01,2013-06-21 06:51:00,
2013-06-21 01:52:00,75.1,69.5,30.03,SE,135,2.0,3.6,83,0.00,,---,0.00,VWS V14.01,2013-06-21 06:52:00,
2013-06-21 01:53:00,74.9,69.4,30.03,NNE,22,0.0,3.1,83,0.00,,---,0.00,VWS V14.01,2013-06-21 06:53:00,
2013-06-21 01:54:00,74.9,69.4,30.03,NE,45,0.0,1.1,83,0.00,,---,0.00,VWS V14.01,2013-06-21 06:54:00,
2013-06-21 01:55:00,74.9,69.4,30.03,ESE,112,1.1,1.1,83,0.00,,---,0.00,VWS V14.01,2013-06-21 06:55:00,
2013-06-21 01:56:00,74.9,69.4,30.03,East,90,3.6,3.6,83,0.00,,---,0.00,VWS V14.01,2013-06-21 06:56:00,
2013-06-21 01:57:00,74.9,69.4,30.03,East,90,2.0,4.3,83,0.00,,---,0.00,VWS V14.01,2013-06-21 06:57:00,
2013-06-21 01:58:00,74.9,69.4,30.03,South,180,1.6,2.0,83,0.00,,---,0.00,VWS V14.01,2013-06-21 06:58:00,
2013-06-21 01:59:00,74.7,69.2,30.03,East,90,2.5,2.5,83,0.00,,---,0.00,VWS V14.01,2013-06-21 06:59:00,
2013-06-21 02:00:00,74.7,69.2,30.03,East,90,0.0,2.5,83,0.00,,---,0.00,VWS V14.01,2013-06-21 07:00:00,
2013-06-21 02:01:00,74.7,69.2,30.03,NE,45,4.0,4.0,83,0.00,,---,0.00,VWS V14.01,2013-06-21 07:01:00,
2013-06-21 02:02:00,74.7,69.6,30.03,SE,135,3.4,4.0,84,0.00,,---,0.00,VWS V14.01,2013-06-21 07:02:00,
2013-06-21 02:03:00,74.7,69.6,30.03,West,270,1.6,3.8,84,0.00,,---,0.00,VWS V14.01,2013-06-21 07:03:00,
2013-06-21 02:04:00,74.7,69.6,30.03,South,180,0.9,1.6,84,0.00,,---,0.00,VWS V14.01,2013-06-21 07:04:00,
2013-06-21 02:05:00,74.7,69.6,30.03,SE,135,2.9,2.9,84,0.00,,---,0.00,VWS V14.01,2013-06-21 07:05:00,
2013-06-21 02:06:00,74.7,69.6,30.03,ESE,112,2.9,4.0,84,0.00,,---,0.00,VWS V14.01,2013-06-21 07:06:00,
2013-06-21 02:07:00,74.7,69.6,30.03,South,180,0.9,3.4,84,0.00,,---,0.00,VWS V14.01,2013-06-21 07:07:00,
2013-06-21 02:08:00,74.7,69.6,30.03,SSW,202,0.0,3.6,84,0.00,,---,0.00,VWS V14.01,2013-06-21 07:08:00,
2013-06-21 02:09:00,74.7,69.6,30.03,East,90,2.5,3.6,84,0.00,,---,0.00,VWS V14.01,2013-06-21 07:09:00,
2013-06-21 02:10:00,74.5,69.4,30.03,ESE,112,0.0,2.7,84,0.00,,---,0.00,VWS V14.01,2013-06-21 07:10:00,
2013-06-21 02:11:00,74.5,69.4,30.03,SSW,202,2.7,2.7,84,0.00,,---,0.00,VWS V14.01,2013-06-21 07:11:00,
2013-06-21 02:12:00,74.5,69.4,30.03,South,180,0.9,2.7,84,0.00,,---,0.00,VWS V14.01,2013-06-21 07:12:00,
2013-06-21 02:13:00,74.5,69.4,30.03,SSE,158,2.5,2.9,84,0.00,,---,0.00,VWS V14.01,2013-06-21 07:13:00,
2013-06-21 02:14:00,74.5,69.4,30.03,South,180,2.0,2.5,84,0.00,,---,0.00,VWS V14.01,2013-06-21 07:14:00,
2013-06-21 02:15:00,74.5,69.4,30.03,SSW,202,0.0,3.8,84,0.00,,---,0.00,VWS V14.01,2013-06-21 07:15:00,
2013-06-21 02:16:00,74.5,69.4,30.03,South,180,1.6,2.5,84,0.00,,---,0.00,VWS V14.01,2013-06-21 07:16:00,
2013-06-21 02:17:00,74.5,69.7,30.03,SW,225,1.1,3.4,85,0.00,,---,0.00,VWS V14.01,2013-06-21 07:17:00,
2013-06-21 02:18:00,74.3,69.6,30.03,South,180,1.6,2.5,85,0.00,,---,0.00,VWS V14.01,2013-06-21 07:18:00,
2013-06-21 02:19:00,74.3,69.6,30.03,SSE,158,3.1,3.1,85,0.00,,---,0.00,VWS V14.01,2013-06-21 07:19:00,
2013-06-21 02:20:00,74.3,69.6,30.03,SSE,158,1.1,3.1,85,0.00,,---,0.00,VWS V14.01,2013-06-21 07:20:00,
2013-06-21 02:21:00,74.3,69.6,30.03,ESE,112,0.0,1.6,85,0.00,,---,0.00,VWS V14.01,2013-06-21 07:21:00,
2013-06-21 02:22:00,74.3,69.6,30.03,East,90,3.8,3.8,85,0.00,,---,0.00,VWS V14.01,2013-06-21 07:22:00,
2013-06-21 02:23:00,74.3,69.6,30.03,East,90,2.2,3.8,85,0.00,,---,0.00,VWS V14.01,2013-06-21 07:23:00,
2013-06-21 02:24:00,74.3,69.6,30.03,South,180,2.9,2.9,85,0.00,,---,0.00,VWS V14.01,2013-06-21 07:24:00,
2013-06-21 02:25:00,74.3,69.6,30.03,ESE,112,0.9,3.4,85,0.00,,---,0.00,VWS V14.01,2013-06-21 07:25:00,
2013-06-21 02:26:00,74.3,69.6,30.03,ESE,112,0.0,3.1,85,0.00,,---,0.00,VWS V14.01,2013-06-21 07:26:00,
2013-06-21 02:27:00,74.2,69.4,30.03,SE,135,4.3,4.3,85,0.00,,---,0.00,VWS V14.01,2013-06-21 07:27:00,
2013-06-21 02:28:00,74.2,69.4,30.03,SSE,158,0.0,4.3,85,0.00,,---,0.00,VWS V14.01,2013-06-21 07:28:00,
2013-06-21 02:29:00,74.2,69.4,30.03,East,90,0.0,1.1,85,0.00,,---,0.00,VWS V14.01,2013-06-21 07:29:00,
2013-06-21 02:30:00,74.2,69.4,30.03,ESE,112,3.1,3.1,85,0.00,,---,0.00,VWS V14.01,2013-06-21 07:30:00,
2013-06-21 02:31:00,74.2,69.4,30.03,SE,135,0.0,3.1,85,0.00,,---,0.00,VWS V14.01,2013-06-21 07:31:00,
2013-06-21 02:32:00,74.2,69.4,30.06,SW,225,0.0,4.9,85,0.00,,---,0.00,VWS V14.01,2013-06-21 07:32:00,
2013-06-21 02:33:00,74.0,69.2,30.06,East,90,0.0,1.6,85,0.00,,---,0.00,VWS V14.01,2013-06-21 07:33:00,
2013-06-21 02:34:00,74.0,69.2,30.06,East,90,1.1,2.0,85,0.00,,---,0.00,VWS V14.01,2013-06-21 07:34:00,
2013-06-21 02:35:00,74.0,69.2,30.06,ESE,112,2.0,2.0,85,0.00,,---,0.00,VWS V14.01,2013-06-21 07:35:00,
2013-06-21 02:36:00,74.0,69.2,30.06,SSE,158,2.7,2.7,85,0.00,,---,0.00,VWS V14.01,2013-06-21 07:36:00,
2013-06-21 02:37:00,74.0,69.2,30.06,ESE,112,3.8,3.8,85,0.00,,---,0.00,VWS V14.01,2013-06-21 07:37:00,
2013-06-21 02:38:00,74.0,69.2,30.06,SSW,202,1.3,3.8,85,0.00,,---,0.00,VWS V14.01,2013-06-21 07:38:00,
2013-06-21 02:39:00,73.8,69.0,30.06,SE,135,1.6,1.6,85,0.00,,---,0.00,VWS V14.01,2013-06-21 07:39:00,
2013-06-21 02:40:00,73.8,69.0,30.06,South,180,0.0,1.6,85,0.00,,---,0.00,VWS V14.01,2013-06-21 07:40:00,
2013-06-21 02:41:00,73.8,69.0,30.06,East,90,0.0,2.2,85,0.00,,---,0.00,VWS V14.01,2013-06-21 07:41:00,
2013-06-21 02:42:00,73.8,69.0,30.06,South,180,0.0,0.0,85,0.00,,---,0.00,VWS V14.01,2013-06-21 07:42:00,
2013-06-21 02:43:00,73.8,69.0,30.06,South,180,0.0,2.5,85,0.00,,---,0.00,VWS V14.01,2013-06-21 07:43:00,
2013-06-21 02:44:00,73.8,69.0,30.06,South,180,1.1,1.1,85,0.00,,---,0.00,VWS V14.01,2013-06-21 07:44:00,
2013-06-21 02:45:00,73.8,69.0,30.06,SE,135,0.0,1.6,85,0.00,,---,0.00,VWS V14.01,2013-06-21 07:45:00,
2013-06-21 02:46:00,73.8,69.0,30.06,ESE,112,2.5,2.5,85,0.00,,---,0.00,VWS V14.01,2013-06-21 07:46:00,
2013-06-21 02:47:00,73.8,69.4,30.06,ESE,112,0.0,2.9,86,0.00,,---,0.00,VWS V14.01,2013-06-21 07:47:00,
2013-06-21 02:48:00,73.8,69.4,30.06,ESE,112,0.0,0.9,86,0.00,,---,0.00,VWS V14.01,2013-06-21 07:48:00,
2013-06-21 02:49:00,73.8,69.4,30.06,SE,135,2.5,2.5,86,0.00,,---,0.00,VWS V14.01,2013-06-21 07:49:00,
2013-06-21 02:50:00,73.8,69.4,30.06,ESE,112,0.0,2.5,86,0.00,,---,0.00,VWS V14.01,2013-06-21 07:50:00,
2013-06-21 02:51:00,73.8,69.4,30.06,East,90,4.0,4.0,86,0.00,,---,0.00,VWS V14.01,2013-06-21 07:51:00,
2013-06-21 02:52:00,73.8,69.4,30.06,NW,315,3.6,4.3,86,0.00,,---,0.00,VWS V14.01,2013-06-21 07:52:00,
2013-06-21 02:53:00,73.8,69.4,30.06,SE,135,0.9,3.6,86,0.00,,---,0.00,VWS V14.01,2013-06-21 07:53:00,
2013-06-21 02:54:00,73.8,69.4,30.06,SE,135,3.4,4.3,86,0.00,,---,0.00,VWS V14.01,2013-06-21 07:54:00,
2013-06-21 02:55:00,73.8,69.4,30.06,SE,135,1.1,3.4,86,0.00,,---,0.00,VWS V14.01,2013-06-21 07:55:00,
2013-06-21 02:56:00,73.8,69.4,30.06,South,180,2.2,2.2,86,0.00,,---,0.00,VWS V14.01,2013-06-21 07:56:00,
2013-06-21 02:57:00,73.8,69.0,30.06,South,180,1.1,2.2,85,0.00,,---,0.00,VWS V14.01,2013-06-21 07:57:00,
2013-06-21 02:58:00,73.6,68.8,30.06,ESE,112,0.9,1.1,85,0.00,,---,0.00,VWS V14.01,2013-06-21 07:58:00,
2013-06-21 02:59:00,73.6,68.8,30.06,East,90,0.0,1.1,85,0.00,,---,0.00,VWS V14.01,2013-06-21 07:59:00,
2013-06-21 03:00:00,73.6,68.8,30.06,South,180,0.9,0.9,85,0.00,,---,0.00,VWS V14.01,2013-06-21 08:00:00,
2013-06-21 03:01:00,73.6,68.8,30.06,South,180,1.1,1.1,85,0.00,,---,0.00,VWS V14.01,2013-06-21 08:01:00,
2013-06-21 03:02:00,73.6,68.8,30.06,SSE,158,1.6,2.2,85,0.00,,---,0.00,VWS V14.01,2013-06-21 08:02:00,
2013-06-21 03:03:00,73.5,68.7,30.06,ESE,112,0.0,1.6,85,0.00,,---,0.00,VWS V14.01,2013-06-21 08:03:00,
2013-06-21 03:04:00,73.5,68.7,30.06,SSW,202,0.0,2.0,85,0.00,,---,0.00,VWS V14.01,2013-06-21 08:04:00,
2013-06-21 03:05:00,73.5,68.7,30.06,South,180,6.3,6.3,85,0.00,,---,0.00,VWS V14.01,2013-06-21 08:05:00,
2013-06-21 03:06:00,73.6,68.8,30.06,South,180,1.6,6.3,85,0.00,,---,0.00,VWS V14.01,2013-06-21 08:06:00,
2013-06-21 03:07:00,73.6,68.8,30.06,ESE,112,1.6,3.6,85,0.00,,---,0.00,VWS V14.01,2013-06-21 08:07:00,
2013-06-21 03:08:00,73.6,68.8,30.06,SW,225,1.1,2.2,85,0.00,,---,0.00,VWS V14.01,2013-06-21 08:08:00,
2013-06-21 03:09:00,73.6,68.8,30.06,SSW,202,0.0,2.7,85,0.00,,---,0.00,VWS V14.01,2013-06-21 08:09:00,
2013-06-21 03:10:00,73.6,68.8,30.06,East,90,0.0,2.2,85,0.00,,---,0.00,VWS V14.01,2013-06-21 08:10:00,
2013-06-21 03:11:00,73.6,68.8,30.06,SW,225,0.0,1.1,85,0.00,,---,0.00,VWS V14.01,2013-06-21 08:11:00,
2013-06-21 03:12:00,73.5,68.7,30.06,East,90,0.0,0.0,85,0.00,,---,0.00,VWS V14.01,2013-06-21 08:12:00,
2013-06-21 03:13:00,73.5,68.7,30.06,ESE,112,0.0,0.0,85,0.00,,---,0.00,VWS V14.01,2013-06-21 08:13:00,
2013-06-21 03:14:00,73.5,68.7,30.06,East,90,0.0,2.2,85,0.00,,---,0.00,VWS V14.01,2013-06-21 08:14:00,
2013-06-21 03:15:00,73.5,68.7,30.06,East,90,0.0,0.0,85,0.00,,---,0.00,VWS V14.01,2013-06-21 08:15:00,
2013-06-21 03:16:00,73.5,68.7,30.06,NNE,22,1.1,1.1,85,0.00,,---,0.00,VWS V14.01,2013-06-21 08:16:00,
2013-06-21 03:17:00,73.5,68.7,30.06,SE,135,0.0,1.1,85,0.00,,---,0.00,VWS V14.01,2013-06-21 08:17:00,
2013-06-21 03:18:00,73.5,68.7,30.06,ESE,112,0.0,0.0,85,0.00,,---,0.00,VWS V14.01,2013-06-21 08:18:00,
2013-06-21 03:19:00,73.3,68.2,30.06,SE,135,0.0,0.0,84,0.00,,---,0.00,VWS V14.01,2013-06-21 08:19:00,
2013-06-21 03:20:00,73.3,68.2,30.06,SE,135,0.0,0.0,84,0.00,,---,0.00,VWS V14.01,2013-06-21 08:20:00,
2013-06-21 03:21:00,73.3,68.2,30.06,ESE,112,0.0,0.0,84,0.00,,---,0.00,VWS V14.01,2013-06-21 08:21:00,
2013-06-21 03:22:00,73.3,68.2,30.06,SE,135,0.0,3.4,84,0.00,,---,0.00,VWS V14.01,2013-06-21 08:22:00,
2013-06-21 03:23:00,73.1,68.0,30.06,SSW,202,2.5,2.7,84,0.00,,---,0.00,VWS V14.01,2013-06-21 08:23:00,
2013-06-21 03:24:00,73.3,68.2,30.06,NNE,22,1.6,2.9,84,0.00,,---,0.00,VWS V14.01,2013-06-21 08:24:00,
2013-06-21 03:25:00,73.3,68.5,30.06,South,180,3.6,3.8,85,0.00,,---,0.00,VWS V14.01,2013-06-21 08:25:00,
2013-06-21 03:26:00,73.3,68.5,30.06,East,90,0.0,3.6,85,0.00,,---,0.00,VWS V14.01,2013-06-21 08:26:00,
2013-06-21 03:27:00,73.3,68.5,30.06,South,180,1.3,1.3,85,0.00,,---,0.00,VWS V14.01,2013-06-21 08:27:00,
2013-06-21 03:28:00,73.3,68.5,30.06,SE,135,0.0,1.3,85,0.00,,---,0.00,VWS V14.01,2013-06-21 08:28:00,
2013-06-21 03:29:00,73.1,68.3,30.06,SE,135,1.6,2.9,85,0.00,,---,0.00,VWS V14.01,2013-06-21 08:29:00,
2013-06-21 03:30:00,73.1,68.0,30.06,East,90,1.6,1.6,84,0.00,,---,0.00,VWS V14.01,2013-06-21 08:30:00,
2013-06-21 03:31:00,73.1,68.3,30.06,ESE,112,2.0,3.1,85,0.00,,---,0.00,VWS V14.01,2013-06-21 08:31:00,
2013-06-21 03:32:00,73.1,68.3,30.06,East,90,0.0,2.0,85,0.00,,---,0.00,VWS V14.01,2013-06-21 08:32:00,
2013-06-21 03:33:00,73.1,68.3,30.06,SE,135,2.7,2.7,85,0.00,,---,0.00,VWS V14.01,2013-06-21 08:33:00,
2013-06-21 03:34:00,72.9,68.2,30.06,ESE,112,0.0,2.9,85,0.00,,---,0.00,VWS V14.01,2013-06-21 08:34:00,
2013-06-21 03:35:00,72.9,68.2,30.06,ESE,112,3.6,3.6,85,0.00,,---,0.00,VWS V14.01,2013-06-21 08:35:00,
2013-06-21 03:36:00,72.9,68.2,30.06,East,90,0.9,3.6,85,0.00,,---,0.00,VWS V14.01,2013-06-21 08:36:00,
2013-06-21 03:37:00,72.9,68.2,30.06,East,90,2.5,3.4,85,0.00,,---,0.00,VWS V14.01,2013-06-21 08:37:00,
2013-06-21 03:38:00,72.8,68.0,30.06,East,90,2.0,2.9,85,0.00,,---,0.00,VWS V14.01,2013-06-21 08:38:00,
2013-06-21 03:39:00,72.8,68.0,30.06,ESE,112,4.0,4.3,85,0.00,,---,0.00,VWS V14.01,2013-06-21 08:39:00,
2013-06-21 03:40:00,72.8,68.0,30.06,NE,45,1.1,4.0,85,0.00,,---,0.00,VWS V14.01,2013-06-21 08:40:00,
2013-06-21 03:41:00,72.8,68.0,30.06,SE,135,2.5,2.5,85,0.00,,---,0.00,VWS V14.01,2013-06-21 08:41:00,
2013-06-21 03:42:00,72.8,68.0,30.06,East,90,2.7,3.6,85,0.00,,---,0.00,VWS V14.01,2013-06-21 08:42:00,
2013-06-21 03:43:00,72.8,68.0,30.06,East,90,0.9,2.7,85,0.00,,---,0.00,VWS V14.01,2013-06-21 08:43:00,
2013-06-21 03:44:00,72.8,68.0,30.06,SE,135,3.1,3.1,85,0.00,,---,0.00,VWS V14.01,2013-06-21 08:44:00,
2013-06-21 03:45:00,72.6,67.8,30.06,SE,135,2.0,3.1,85,0.00,,---,0.00,VWS V14.01,2013-06-21 08:45:00,
2013-06-21 03:46:00,72.6,68.2,30.06,East,90,2.9,2.9,86,0.00,,---,0.00,VWS V14.01,2013-06-21 08:46:00,
2013-06-21 03:47:00,72.6,68.2,30.06,North,0,2.7,3.6,86,0.00,,---,0.00,VWS V14.01,2013-06-21 08:47:00,
2013-06-21 03:48:00,72.6,68.2,30.06,East,90,1.3,3.1,86,0.00,,---,0.00,VWS V14.01,2013-06-21 08:48:00,
2013-06-21 03:49:00,72.6,68.2,30.06,ESE,112,1.3,2.0,86,0.00,,---,0.00,VWS V14.01,2013-06-21 08:49:00,
2013-06-21 03:50:00,72.6,68.2,30.06,ENE,68,0.9,1.3,86,0.00,,---,0.00,VWS V14.01,2013-06-21 08:50:00,
2013-06-21 03:51:00,72.6,68.2,30.06,North,0,2.7,3.6,86,0.00,,---,0.00,VWS V14.01,2013-06-21 08:51:00,
2013-06-21 03:52:00,72.4,68.0,30.06,ENE,68,0.9,2.7,86,0.00,,---,0.00,VWS V14.01,2013-06-21 08:52:00,
2013-06-21 03:53:00,72.4,68.0,30.06,East,90,1.6,1.6,86,0.00,,---,0.00,VWS V14.01,2013-06-21 08:53:00,
2013-06-21 03:54:00,72.4,68.0,30.06,East,90,0.0,1.6,86,0.00,,---,0.00,VWS V14.01,2013-06-21 08:54:00,
2013-06-21 03:55:00,72.4,68.0,30.06,East,90,0.0,0.0,86,0.00,,---,0.00,VWS V14.01,2013-06-21 08:55:00,
2013-06-21 03:56:00,72.2,67.8,30.06,NE,45,1.1,1.3,86,0.00,,---,0.00,VWS V14.01,2013-06-21 08:56:00,
2013-06-21 03:57:00,72.2,67.8,30.06,ESE,112,0.0,1.1,86,0.00,,---,0.00,VWS V14.01,2013-06-21 08:57:00,
2013-06-21 03:58:00,72.2,67.8,30.06,East,90,0.0,2.2,86,0.00,,---,0.00,VWS V14.01,2013-06-21 08:58:00,
2013-06-21 03:59:00,72.2,67.8,30.06,East,90,2.5,2.9,86,0.00,,---,0.00,VWS V14.01,2013-06-21 08:59:00,
2013-06-21 04:00:00,72.2,67.8,30.06,East,90,1.6,2.5,86,0.00,,---,0.00,VWS V14.01,2013-06-21 09:00:00,
2013-06-21 04:01:00,72.2,68.1,30.06,ESE,112,1.6,2.5,87,0.00,,---,0.00,VWS V14.01,2013-06-21 09:01:00,
2013-06-21 04:02:00,72.2,68.1,30.03,ESE,112,1.3,2.0,87,0.00,,---,0.00,VWS V14.01,2013-06-21 09:02:00,
2013-06-21 04:03:00,72.0,68.0,30.03,East,90,3.6,3.6,87,0.00,,---,0.00,VWS V14.01,2013-06-21 09:03:00,
2013-06-21 04:04:00,72.0,68.0,30.03,East,90,0.0,3.6,87,0.00,,---,0.00,VWS V14.01,2013-06-21 09:04:00,
2013-06-21 04:05:00,72.0,68.0,30.03,SE,135,2.5,2.9,87,0.00,,---,0.00,VWS V14.01,2013-06-21 09:05:00,
2013-06-21 04:06:00,72.0,68.0,30.03,East,90,2.0,3.4,87,0.00,,---,0.00,VWS V14.01,2013-06-21 09:06:00,
2013-06-21 04:07:00,72.0,68.0,30.03,East,90,0.0,2.0,87,0.00,,---,0.00,VWS V14.01,2013-06-21 09:07:00,
2013-06-21 04:08:00,72.0,68.0,30.03,SE,135,2.9,2.9,87,0.00,,---,0.00,VWS V14.01,2013-06-21 09:08:00,
2013-06-21 04:09:00,72.0,68.0,30.03,East,90,1.6,3.4,87,0.00,,---,0.00,VWS V14.01,2013-06-21 09:09:00,
2013-06-21 04:10:00,72.0,68.0,30.03,ESE,112,2.0,2.9,87,0.00,,---,0.00,VWS V14.01,2013-06-21 09:10:00,
2013-06-21 04:11:00,72.0,68.0,30.03,East,90,2.5,3.6,87,0.00,,---,0.00,VWS V14.01,2013-06-21 09:11:00,
2013-06-21 04:12:00,72.0,68.0,30.03,SE,135,0.9,2.7,87,0.00,,---,0.00,VWS V14.01,2013-06-21 09:12:00,
2013-06-21 04:13:00,72.0,68.0,30.03,ENE,68,2.5,2.5,87,0.00,,---,0.00,VWS V14.01,2013-06-21 09:13:00,
2013-06-21 04:14:00,72.0,68.0,30.03,ENE,68,1.3,2.5,87,0.00,,---,0.00,VWS V14.01,2013-06-21 09:14:00,
2013-06-21 04:15:00,71.9,67.8,30.03,ESE,112,0.0,2.0,87,0.00,,---,0.00,VWS V14.01,2013-06-21 09:15:00,
2013-06-21 04:16:00,71.9,67.8,30.03,East,90,1.6,1.6,87,0.00,,---,0.00,VWS V14.01,2013-06-21 09:16:00,
2013-06-21 04:17:00,71.9,67.8,30.06,East,90,0.0,1.6,87,0.00,,---,0.00,VWS V14.01,2013-06-21 09:17:00,
2013-06-21 04:18:00,71.7,67.6,30.06,North,0,0.0,0.0,87,0.00,,---,0.00,VWS V14.01,2013-06-21 09:18:00,
2013-06-21 04:19:00,71.7,67.6,30.06,East,90,0.0,1.1,87,0.00,,---,0.00,VWS V14.01,2013-06-21 09:19:00,
2013-06-21 04:20:00,71.7,67.6,30.06,East,90,2.2,2.2,87,0.00,,---,0.00,VWS V14.01,2013-06-21 09:20:00,
2013-06-21 04:21:00,71.7,67.6,30.06,East,90,1.1,3.1,87,0.00,,---,0.00,VWS V14.01,2013-06-21 09:21:00,
2013-06-21 04:22:00,71.7,67.6,30.06,East,90,2.2,2.2,87,0.00,,---,0.00,VWS V14.01,2013-06-21 09:22:00,
2013-06-21 04:23:00,71.7,67.6,30.06,SE,135,2.0,2.2,87,0.00,,---,0.00,VWS V14.01,2013-06-21 09:23:00,
2013-06-21 04:24:00,71.7,67.6,30.06,East,90,0.9,2.0,87,0.00,,---,0.00,VWS V14.01,2013-06-21 09:24:00,
2013-06-21 04:25:00,71.7,67.6,30.06,ENE,68,2.5,2.5,87,0.00,,---,0.00,VWS V14.01,2013-06-21 09:25:00,
2013-06-21 04:26:00,71.7,67.6,30.06,East,90,0.0,3.1,87,0.00,,---,0.00,VWS V14.01,2013-06-21 09:26:00,
2013-06-21 04:27:00,71.7,67.9,30.06,East,90,2.9,2.9,88,0.00,,---,0.00,VWS V14.01,2013-06-21 09:27:00,
2013-06-21 04:28:00,71.7,67.9,30.06,NE,45,2.5,4.0,88,0.00,,---,0.00,VWS V14.01,2013-06-21 09:28:00,
2013-06-21 04:29:00,71.7,67.9,30.06,East,90,1.3,3.1,88,0.00,,---,0.00,VWS V14.01,2013-06-21 09:29:00,
2013-06-21 04:30:00,71.7,67.9,30.06,ENE,68,2.0,2.9,88,0.00,,---,0.00,VWS V14.01,2013-06-21 09:30:00,
2013-06-21 04:31:00,71.7,67.9,30.06,ENE,68,2.5,2.5,88,0.00,,---,0.00,VWS V14.01,2013-06-21 09:31:00,
2013-06-21 04:32:00,71.7,67.9,30.06,East,90,2.7,3.1,88,0.00,,---,0.00,VWS V14.01,2013-06-21 09:32:00,
2013-06-21 04:33:00,71.7,67.9,30.06,NE,45,2.5,2.7,88,0.00,,---,0.00,VWS V14.01,2013-06-21 09:33:00,
2013-06-21 04:34:00,71.7,67.9,30.06,East,90,2.7,2.7,88,0.00,,---,0.00,VWS V14.01,2013-06-21 09:34:00,
2013-06-21 04:35:00,71.7,67.9,30.06,East,90,2.2,2.7,88,0.00,,---,0.00,VWS V14.01,2013-06-21 09:35:00,
2013-06-21 04:36:00,71.7,67.9,30.06,East,90,2.9,3.4,88,0.00,,---,0.00,VWS V14.01,2013-06-21 09:36:00,
2013-06-21 04:37:00,71.7,67.9,30.06,ESE,112,1.1,1.6,88,0.00,,---,0.00,VWS V14.01,2013-06-21 09:37:00,
2013-06-21 04:38:00,71.7,67.9,30.06,ENE,68,2.0,2.0,88,0.00,,---,0.00,VWS V14.01,2013-06-21 09:38:00,
2013-06-21 04:39:00,71.7,67.9,30.06,East,90,2.0,2.9,88,0.00,,---,0.00,VWS V14.01,2013-06-21 09:39:00,
2013-06-21 04:40:00,71.7,67.9,30.06,ESE,112,1.3,2.9,88,0.00,,---,0.00,VWS V14.01,2013-06-21 09:40:00,
2013-06-21 04:41:00,71.7,67.9,30.06,ESE,112,2.9,3.4,88,0.00,,---,0.00,VWS V14.01,2013-06-21 09:41:00,
2013-06-21 04:42:00,71.9,68.1,30.06,SE,135,2.7,4.0,88,0.00,,---,0.00,VWS V14.01,2013-06-21 09:42:00,
2013-06-21 04:43:00,71.9,68.1,30.06,NE,45,3.1,3.1,88,0.00,,---,0.00,VWS V14.01,2013-06-21 09:43:00,
2013-06-21 04:44:00,71.9,68.1,30.06,ESE,112,2.2,3.1,88,0.00,,---,0.00,VWS V14.01,2013-06-21 09:44:00,
2013-06-21 04:45:00,71.9,68.1,30.06,East,90,1.6,3.6,88,0.00,,---,0.00,VWS V14.01,2013-06-21 09:45:00,
2013-06-21 04:46:00,71.9,68.1,30.06,South,180,2.0,2.2,88,0.00,,---,0.00,VWS V14.01,2013-06-21 09:46:00,
2013-06-21 04:47:00,71.9,68.1,30.06,ESE,112,2.9,3.1,88,0.00,,---,0.00,VWS V14.01,2013-06-21 09:47:00,
2013-06-21 04:48:00,71.9,68.1,30.06,SE,135,1.1,2.9,88,0.00,,---,0.00,VWS V14.01,2013-06-21 09:48:00,
2013-06-21 04:49:00,71.9,68.1,30.06,ESE,112,3.6,3.6,88,0.00,,---,0.00,VWS V14.01,2013-06-21 09:49:00,
2013-06-21 04:50:00,71.9,68.1,30.06,East,90,1.3,4.0,88,0.00,,---,0.00,VWS V14.01,2013-06-21 09:50:00,
2013-06-21 04:51:00,71.9,68.1,30.06,East,90,2.2,2.2,88,0.00,,---,0.00,VWS V14.01,2013-06-21 09:51:00,
2013-06-21 04:52:00,71.9,68.1,30.06,SE,135,3.6,3.6,88,0.00,,---,0.00,VWS V14.01,2013-06-21 09:52:00,
2013-06-21 04:53:00,71.9,68.1,30.06,ESE,112,2.5,3.6,88,0.00,,---,0.00,VWS V14.01,2013-06-21 09:53:00,
2013-06-21 04:54:00,71.9,68.1,30.06,ESE,112,2.5,3.6,88,0.00,,---,0.00,VWS V14.01,2013-06-21 09:54:00,
2013-06-21 04:55:00,71.9,68.1,30.06,ESE,112,1.1,2.5,88,0.00,,---,0.00,VWS V14.01,2013-06-21 09:55:00,
2013-06-21 04:56:00,71.9,68.1,30.06,East,90,2.0,2.9,88,0.00,,---,0.00,VWS V14.01,2013-06-21 09:56:00,
2013-06-21 04:57:00,71.7,67.9,30.06,ESE,112,3.6,3.6,88,0.00,,---,0.00,VWS V14.01,2013-06-21 09:57:00,
2013-06-21 04:58:00,71.7,67.9,30.06,East,90,2.0,3.6,88,0.00,,---,0.00,VWS V14.01,2013-06-21 09:58:00,
2013-06-21 04:59:00,71.7,67.9,30.06,ESE,112,2.0,3.4,88,0.00,,---,0.00,VWS V14.01,2013-06-21 09:59:00,
2013-06-21 05:00:00,71.7,67.9,30.06,ESE,112,3.6,4.0,88,0.00,,---,0.00,VWS V14.01,2013-06-21 10:00:00,
2013-06-21 05:01:00,71.7,67.9,30.06,East,90,1.6,3.6,88,0.00,,---,0.00,VWS V14.01,2013-06-21 10:01:00,
2013-06-21 05:02:00,71.7,67.9,30.06,East,90,2.0,3.8,88,0.00,,---,0.00,VWS V14.01,2013-06-21 10:02:00,
2013-06-21 05:03:00,71.7,67.9,30.06,East,90,1.6,2.7,88,0.00,,---,0.00,VWS V14.01,2013-06-21 10:03:00,
2013-06-21 05:04:00,71.7,67.9,30.06,East,90,3.8,3.8,88,0.00,,---,0.00,VWS V14.01,2013-06-21 10:04:00,
2013-06-21 05:05:00,71.7,67.9,30.06,South,180,2.0,3.8,88,0.00,,---,0.00,VWS V14.01,2013-06-21 10:05:00,
2013-06-21 05:06:00,71.7,67.9,30.06,SE,135,2.2,2.2,88,0.00,,---,0.00,VWS V14.01,2013-06-21 10:06:00,
2013-06-21 05:07:00,71.7,67.9,30.06,SE,135,3.1,4.9,88,0.00,,---,0.00,VWS V14.01,2013-06-21 10:07:00,
2013-06-21 05:08:00,71.7,67.9,30.06,East,90,1.3,3.1,88,0.00,,---,0.00,VWS V14.01,2013-06-21 10:08:00,
2013-06-21 05:09:00,71.7,67.9,30.06,ESE,112,0.0,1.3,88,0.00,,---,0.00,VWS V14.01,2013-06-21 10:09:00,
2013-06-21 05:10:00,71.7,67.9,30.06,South,180,1.1,1.1,88,0.00,,---,0.00,VWS V14.01,2013-06-21 10:10:00,
2013-06-21 05:11:00,71.7,67.9,30.06,NE,45,0.0,1.1,88,0.00,,---,0.00,VWS V14.01,2013-06-21 10:11:00,
2013-06-21 05:12:00,71.7,67.9,30.06,SE,135,0.0,1.1,88,0.00,,---,0.00,VWS V14.01,2013-06-21 10:12:00,
2013-06-21 05:13:00,71.7,67.9,30.06,East,90,0.0,0.9,88,0.00,,---,0.00,VWS V14.01,2013-06-21 10:13:00,
2013-06-21 05:14:00,71.7,67.9,30.06,East,90,0.0,0.0,88,0.00,,---,0.00,VWS V14.01,2013-06-21 10:14:00,
2013-06-21 05:15:00,71.5,67.8,30.06,East,90,0.9,2.5,88,0.00,,---,0.00,VWS V14.01,2013-06-21 10:15:00,
2013-06-21 05:16:00,71.5,67.8,30.06,SSE,158,3.1,3.1,88,0.00,,---,0.00,VWS V14.01,2013-06-21 10:16:00,
2013-06-21 05:17:00,71.5,67.8,30.06,South,180,0.0,3.1,88,0.00,,---,0.00,VWS V14.01,2013-06-21 10:17:00,
2013-06-21 05:18:00,71.5,67.8,30.06,South,180,1.6,2.2,88,0.00,,---,0.00,VWS V14.01,2013-06-21 10:18:00,
2013-06-21 05:19:00,71.5,67.8,30.06,ENE,68,2.0,2.0,88,0.00,,---,0.00,VWS V14.01,2013-06-21 10:19:00,
2013-06-21 05:20:00,71.5,67.8,30.06,ESE,112,2.7,2.7,88,0.00,,---,0.00,VWS V14.01,2013-06-21 10:20:00,
2013-06-21 05:21:00,71.5,67.8,30.06,East,90,2.2,2.9,88,0.00,,---,0.00,VWS V14.01,2013-06-21 10:21:00,
2013-06-21 05:22:00,71.5,67.8,30.06,ESE,112,1.1,2.2,88,0.00,,---,0.00,VWS V14.01,2013-06-21 10:22:00,
2013-06-21 05:23:00,71.5,67.8,30.06,ENE,68,2.0,3.1,88,0.00,,---,0.00,VWS V14.01,2013-06-21 10:23:00,
2013-06-21 05:24:00,71.7,68.3,30.06,ESE,112,2.7,2.7,89,0.00,,---,0.00,VWS V14.01,2013-06-21 10:24:00,
2013-06-21 05:25:00,71.7,68.3,30.06,ESE,112,0.0,2.7,89,0.00,,---,0.00,VWS V14.01,2013-06-21 10:25:00,
2013-06-21 05:26:00,71.5,68.1,30.06,East,90,0.0,0.0,89,0.00,,---,0.00,VWS V14.01,2013-06-21 10:26:00,
2013-06-21 05:27:00,71.5,68.1,30.06,East,90,0.0,0.0,89,0.00,,---,0.00,VWS V14.01,2013-06-21 10:27:00,
2013-06-21 05:28:00,71.5,68.1,30.06,East,90,2.9,2.9,89,0.00,,---,0.00,VWS V14.01,2013-06-21 10:28:00,
2013-06-21 05:29:00,71.5,68.1,30.06,ENE,68,2.9,3.1,89,0.00,,---,0.00,VWS V14.01,2013-06-21 10:29:00,
2013-06-21 05:30:00,71.5,68.1,30.06,East,90,4.0,4.0,89,0.00,,---,0.00,VWS V14.01,2013-06-21 10:30:00,
2013-06-21 05:31:00,71.5,68.1,30.06,NE,45,2.7,4.0,89,0.00,,---,0.00,VWS V14.01,2013-06-21 10:31:00,
2013-06-21 05:32:00,71.5,68.1,30.06,East,90,3.6,3.6,89,0.00,,---,0.00,VWS V14.01,2013-06-21 10:32:00,
2013-06-21 05:33:00,71.7,68.3,30.06,East,90,2.2,3.6,89,0.00,,---,0.00,VWS V14.01,2013-06-21 10:33:00,
2013-06-21 05:34:00,71.7,68.3,30.06,SE,135,1.6,3.1,89,0.00,,---,0.00,VWS V14.01,2013-06-21 10:34:00,
2013-06-21 05:35:00,71.7,68.3,30.06,ESE,112,0.0,1.6,89,0.00,,---,0.00,VWS V14.01,2013-06-21 10:35:00,
2013-06-21 05:36:00,71.7,68.3,30.06,SE,135,1.6,2.5,89,0.00,,---,0.00,VWS V14.01,2013-06-21 10:36:00,
2013-06-21 05:37:00,71.7,68.3,30.06,ESE,112,1.3,2.9,89,0.00,,---,0.00,VWS V14.01,2013-06-21 10:37:00,
2013-06-21 05:38:00,71.7,68.3,30.06,East,90,3.4,3.6,89,0.00,,---,0.00,VWS V14.01,2013-06-21 10:38:00,
2013-06-21 05:39:00,71.7,68.3,30.06,East,90,0.0,3.4,89,0.00,,---,0.00,VWS V14.01,2013-06-21 10:39:00,
2013-06-21 05:40:00,71.7,68.3,30.06,SE,135,2.9,4.0,89,0.00,,---,0.00,VWS V14.01,2013-06-21 10:40:00,
2013-06-21 05:41:00,71.7,68.3,30.06,SSE,158,1.3,2.9,89,0.00,,---,0.00,VWS V14.01,2013-06-21 10:41:00,
2013-06-21 05:42:00,71.7,68.3,30.06,East,90,2.7,2.7,89,0.00,,---,0.00,VWS V14.01,2013-06-21 10:42:00,
2013-06-21 05:43:00,71.7,68.3,30.06,East,90,2.2,2.7,89,0.00,,---,0.00,VWS V14.01,2013-06-21 10:43:00,
2013-06-21 05:44:00,71.7,68.3,30.06,ESE,112,2.9,2.9,89,0.00,,---,0.00,VWS V14.01,2013-06-21 10:44:00,
2013-06-21 05:45:00,71.7,68.3,30.06,SSE,158,2.7,3.4,89,0.00,,---,0.00,VWS V14.01,2013-06-21 10:45:00,
2013-06-21 05:46:00,71.7,68.3,30.06,SE,135,2.7,2.9,89,0.00,,---,0.00,VWS V14.01,2013-06-21 10:46:00,
2013-06-21 05:47:00,71.7,68.3,30.06,East,90,2.0,3.8,89,0.00,,---,0.00,VWS V14.01,2013-06-21 10:47:00,
2013-06-21 05:48:00,71.7,68.3,30.06,SE,135,2.9,5.4,89,0.00,,---,0.00,VWS V14.01,2013-06-21 10:48:00,
2013-06-21 05:49:00,71.7,68.3,30.06,SE,135,3.4,3.4,89,0.00,,---,0.00,VWS V14.01,2013-06-21 10:49:00,
2013-06-21 05:50:00,71.7,68.3,30.06,SE,135,1.1,3.4,89,0.00,,---,0.00,VWS V14.01,2013-06-21 10:50:00,
2013-06-21 05:51:00,71.7,68.3,30.06,SE,135,3.1,3.8,89,0.00,,---,0.00,VWS V14.01,2013-06-21 10:51:00,
2013-06-21 05:52:00,71.7,68.3,30.06,ESE,112,6.0,6.0,89,0.00,,---,0.00,VWS V14.01,2013-06-21 10:52:00,
2013-06-21 05:53:00,71.9,68.4,30.06,SE,135,2.2,6.3,89,0.00,,---,0.00,VWS V14.01,2013-06-21 10:53:00,
2013-06-21 05:54:00,71.9,68.4,30.06,SE,135,1.6,3.1,89,0.00,,---,0.00,VWS V14.01,2013-06-21 10:54:00,
2013-06-21 05:55:00,71.9,68.4,30.06,ESE,112,2.5,3.6,89,0.00,,---,0.00,VWS V14.01,2013-06-21 10:55:00,
2013-06-21 05:56:00,71.9,68.4,30.06,East,90,0.0,2.7,89,0.00,,---,0.00,VWS V14.01,2013-06-21 10:56:00,
2013-06-21 05:57:00,71.9,68.4,30.06,ESE,112,4.0,4.0,89,0.00,,---,0.00,VWS V14.01,2013-06-21 10:57:00,
2013-06-21 05:58:00,71.9,68.4,30.06,ESE,112,2.7,4.0,89,0.00,,---,0.00,VWS V14.01,2013-06-21 10:58:00,
2013-06-21 05:59:00,71.9,68.4,30.06,East,90,2.0,2.7,89,0.00,,---,0.00,VWS V14.01,2013-06-21 10:59:00,
2013-06-21 06:00:00,71.9,68.4,30.06,East,90,1.6,2.9,89,0.00,,---,0.00,VWS V14.01,2013-06-21 11:00:00,
2013-06-21 06:01:00,71.9,68.4,30.06,ESE,112,2.9,2.9,89,0.00,,---,0.00,VWS V14.01,2013-06-21 11:01:00,
2013-06-21 06:02:00,71.9,68.4,30.06,East,90,2.7,4.9,89,0.00,,---,0.00,VWS V14.01,2013-06-21 11:02:00,
2013-06-21 06:03:00,71.9,68.4,30.06,ESE,112,3.4,3.4,89,0.00,,---,0.00,VWS V14.01,2013-06-21 11:03:00,
2013-06-21 06:04:00,71.9,68.4,30.06,ESE,112,1.6,3.8,89,0.00,,---,0.00,VWS V14.01,2013-06-21 11:04:00,
2013-06-21 06:05:00,71.9,68.4,30.06,ESE,112,1.1,2.0,89,0.00,,---,0.00,VWS V14.01,2013-06-21 11:05:00,
2013-06-21 06:06:00,71.9,68.4,30.06,East,90,2.0,3.8,89,0.00,,---,0.00,VWS V14.01,2013-06-21 11:06:00,
2013-06-21 06:07:00,71.9,68.4,30.06,SE,135,3.1,3.6,89,0.00,,---,0.00,VWS V14.01,2013-06-21 11:07:00,
2013-06-21 06:08:00,71.9,68.4,30.06,East,90,1.1,3.1,89,0.00,,---,0.00,VWS V14.01,2013-06-21 11:08:00,
2013-06-21 06:09:00,71.9,68.4,30.06,ESE,112,2.0,2.2,89,0.00,,---,0.00,VWS V14.01,2013-06-21 11:09:00,
2013-06-21 06:10:00,71.9,68.4,30.06,East,90,3.8,3.8,89,0.00,,---,0.00,VWS V14.01,2013-06-21 11:10:00,
2013-06-21 06:11:00,71.9,68.4,30.06,East,90,1.1,3.8,89,0.00,,---,0.00,VWS V14.01,2013-06-21 11:11:00,
2013-06-21 06:12:00,71.9,68.4,30.06,East,90,2.0,2.9,89,0.00,,---,0.00,VWS V14.01,2013-06-21 11:12:00,
2013-06-21 06:13:00,71.9,68.4,30.06,ESE,112,2.5,2.5,89,0.00,,---,0.00,VWS V14.01,2013-06-21 11:13:00,
2013-06-21 06:14:00,71.9,68.4,30.06,East,90,1.1,2.7,89,0.00,,---,0.00,VWS V14.01,2013-06-21 11:14:00,
2013-06-21 06:15:00,71.9,68.4,30.06,East,90,0.0,1.1,89,0.00,,---,0.00,VWS V14.01,2013-06-21 11:15:00,
2013-06-21 06:16:00,72.0,68.3,30.06,NNE,22,1.3,2.5,88,0.00,,---,0.00,VWS V14.01,2013-06-21 11:16:00,
2013-06-21 06:17:00,72.0,68.3,30.06,ENE,68,0.0,1.3,88,0.00,,---,0.00,VWS V14.01,2013-06-21 11:17:00,
2013-06-21 06:18:00,72.0,68.3,30.06,SE,135,0.0,0.9,88,0.00,,---,0.00,VWS V14.01,2013-06-21 11:18:00,
2013-06-21 06:19:00,72.0,68.3,30.06,SE,135,0.0,2.2,88,0.00,,---,0.00,VWS V14.01,2013-06-21 11:19:00,
2013-06-21 06:20:00,72.0,68.6,30.06,SE,135,0.0,0.0,89,0.00,,---,0.00,VWS V14.01,2013-06-21 11:20:00,
2013-06-21 06:21:00,72.0,68.3,30.06,South,180,0.0,0.0,88,0.00,,---,0.00,VWS V14.01,2013-06-21 11:21:00,
2013-06-21 06:22:00,72.0,68.3,30.06,SSE,158,0.9,1.1,88,0.00,,---,0.00,VWS V14.01,2013-06-21 11:22:00,
2013-06-21 06:23:00,72.0,68.3,30.06,South,180,1.6,2.2,88,0.00,,---,0.00,VWS V14.01,2013-06-21 11:23:00,
2013-06-21 06:24:00,72.2,68.5,30.06,South,180,1.6,2.5,88,0.00,,---,0.00,VWS V14.01,2013-06-21 11:24:00,
2013-06-21 06:25:00,72.2,68.5,30.06,SSW,202,1.1,2.9,88,0.00,,---,0.00,VWS V14.01,2013-06-21 11:25:00,
2013-06-21 06:26:00,72.2,68.5,30.06,SE,135,2.2,2.9,88,0.00,,---,0.00,VWS V14.01,2013-06-21 11:26:00,
2013-06-21 06:27:00,72.2,68.5,30.06,ESE,112,0.9,2.5,88,0.00,,---,0.00,VWS V14.01,2013-06-21 11:27:00,
2013-06-21 06:28:00,72.2,68.5,30.06,East,90,3.4,3.4,88,0.00,,---,0.00,VWS V14.01,2013-06-21 11:28:00,
2013-06-21 06:29:00,72.2,68.8,30.06,ESE,112,3.8,3.8,89,0.00,,---,0.00,VWS V14.01,2013-06-21 11:29:00,
2013-06-21 06:30:00,72.4,69.0,30.06,East,90,2.5,3.8,89,0.00,,---,0.00,VWS V14.01,2013-06-21 11:30:00,
2013-06-21 06:31:00,72.4,69.0,30.06,East,90,0.0,2.5,89,0.00,,---,0.00,VWS V14.01,2013-06-21 11:31:00,
2013-06-21 06:32:00,72.4,69.0,30.06,SE,135,0.0,0.0,89,0.00,,---,0.00,VWS V14.01,2013-06-21 11:32:00,
2013-06-21 06:33:00,72.6,68.8,30.06,SE,135,1.3,1.6,88,0.00,,---,0.00,VWS V14.01,2013-06-21 11:33:00,
2013-06-21 06:34:00,72.6,68.8,30.06,SSE,158,1.6,3.8,88,0.00,,---,0.00,VWS V14.01,2013-06-21 11:34:00,
2013-06-21 06:35:00,72.6,68.8,30.06,ESE,112,1.3,1.6,88,0.00,,---,0.00,VWS V14.01,2013-06-21 11:35:00,
2013-06-21 06:36:00,72.6,68.8,30.06,SE,135,2.5,3.6,88,0.00,,---,0.00,VWS V14.01,2013-06-21 11:36:00,
2013-06-21 06:37:00,72.8,69.0,30.06,SSE,158,0.0,2.5,88,0.00,,---,0.00,VWS V14.01,2013-06-21 11:37:00,
2013-06-21 06:38:00,72.8,69.0,30.06,ESE,112,1.3,2.0,88,0.00,,---,0.00,VWS V14.01,2013-06-21 11:38:00,
2013-06-21 06:39:00,73.1,69.3,30.06,SE,135,1.1,4.3,88,0.00,,---,0.00,VWS V14.01,2013-06-21 11:39:00,
2013-06-21 06:40:00,73.1,69.3,30.06,SE,135,0.0,1.1,88,0.00,,---,0.00,VWS V14.01,2013-06-21 11:40:00,
2013-06-21 06:41:00,73.3,69.5,30.06,ESE,112,0.0,1.6,88,0.00,,---,0.00,VWS V14.01,2013-06-21 11:41:00,
2013-06-21 06:42:00,73.5,69.7,30.06,ESE,112,3.1,4.0,88,0.00,,---,0.00,VWS V14.01,2013-06-21 11:42:00,
2013-06-21 06:43:00,73.5,69.7,30.06,SE,135,0.0,3.1,88,0.00,,---,0.00,VWS V14.01,2013-06-21 11:43:00,
2013-06-21 06:44:00,73.6,69.9,30.06,ESE,112,5.4,5.4,88,0.00,,---,0.00,VWS V14.01,2013-06-21 11:44:00,
2013-06-21 06:45:00,73.8,70.0,30.06,South,180,3.4,5.4,88,0.00,,---,0.00,VWS V14.01,2013-06-21 11:45:00,
2013-06-21 06:46:00,73.8,70.0,30.06,East,90,4.7,4.7,88,0.00,,---,0.00,VWS V14.01,2013-06-21 11:46:00,
2013-06-21 06:47:00,74.0,70.2,30.09,SE,135,4.0,4.7,88,0.00,,---,0.00,VWS V14.01,2013-06-21 11:47:00,
2013-06-21 06:48:00,74.0,69.9,30.09,SSE,158,3.6,4.0,87,0.00,,---,0.00,VWS V14.01,2013-06-21 11:48:00,
2013-06-21 06:49:00,74.0,69.9,30.09,ESE,112,0.0,3.6,87,0.00,,---,0.00,VWS V14.01,2013-06-21 11:49:00,
2013-06-21 06:50:00,74.0,69.9,30.09,ESE,112,1.3,2.7,87,0.00,,---,0.00,VWS V14.01,2013-06-21 11:50:00,
2013-06-21 06:51:00,74.0,69.9,30.09,East,90,1.1,4.9,87,0.00,,---,0.00,VWS V14.01,2013-06-21 11:51:00,
2013-06-21 06:52:00,74.0,69.9,30.09,East,90,1.3,3.4,87,0.00,,---,0.00,VWS V14.01,2013-06-21 11:52:00,
2013-06-21 06:53:00,74.0,69.9,30.09,ESE,112,2.0,3.6,87,0.00,,---,0.00,VWS V14.01,2013-06-21 11:53:00,
2013-06-21 06:54:00,73.8,69.7,30.09,SSW,202,1.1,3.8,87,0.00,,---,0.00,VWS V14.01,2013-06-21 11:54:00,
2013-06-21 06:55:00,74.0,69.9,30.09,SE,135,3.1,3.1,87,0.00,,---,0.00,VWS V14.01,2013-06-21 11:55:00,
2013-06-21 06:56:00,74.0,69.9,30.09,SE,135,1.3,3.1,87,0.00,,---,0.00,VWS V14.01,2013-06-21 11:56:00,
2013-06-21 06:57:00,74.0,69.9,30.09,SE,135,2.0,2.2,87,0.00,,---,0.00,VWS V14.01,2013-06-21 11:57:00,
2013-06-21 06:58:00,74.0,69.5,30.09,East,90,0.0,3.4,86,0.00,,---,0.00,VWS V14.01,2013-06-21 11:58:00,
2013-06-21 06:59:00,74.0,69.5,30.09,ESE,112,1.6,1.6,86,0.00,,---,0.00,VWS V14.01,2013-06-21 11:59:00,
2013-06-21 07:00:00,73.8,69.4,30.09,East,90,0.0,3.6,86,0.00,,---,0.00,VWS V14.01,2013-06-21 12:00:00,
2013-06-21 07:01:00,74.0,69.5,30.09,SSW,202,2.0,3.4,86,0.00,,---,0.00,VWS V14.01,2013-06-21 12:01:00,
2013-06-21 07:02:00,74.0,69.5,30.09,ESE,112,2.0,2.7,86,0.00,,---,0.00,VWS V14.01,2013-06-21 12:02:00,
2013-06-21 07:03:00,74.0,69.5,30.09,East,90,1.3,2.0,86,0.00,,---,0.00,VWS V14.01,2013-06-21 12:03:00,
2013-06-21 07:04:00,74.2,69.7,30.09,ESE,112,0.0,1.3,86,0.00,,---,0.00,VWS V14.01,2013-06-21 12:04:00,
2013-06-21 07:05:00,74.3,69.9,30.09,SE,135,0.0,1.1,86,0.00,,---,0.00,VWS V14.01,2013-06-21 12:05:00,
2013-06-21 07:06:00,74.3,69.9,30.09,East,90,0.0,0.0,86,0.00,,---,0.00,VWS V14.01,2013-06-21 12:06:00,
2013-06-21 07:07:00,74.5,70.1,30.09,East,90,2.0,2.2,86,0.00,,---,0.00,VWS V14.01,2013-06-21 12:07:00,
2013-06-21 07:08:00,74.7,70.2,30.09,SE,135,4.5,4.5,86,0.00,,---,0.00,VWS V14.01,2013-06-21 12:08:00,
2013-06-21 07:09:00,74.7,70.2,30.09,SSE,158,4.0,4.5,86,0.00,,---,0.00,VWS V14.01,2013-06-21 12:09:00,
2013-06-21 07:10:00,74.9,70.4,30.09,South,180,0.0,4.0,86,0.00,,---,0.00,VWS V14.01,2013-06-21 12:10:00,
2013-06-21 07:11:00,74.9,70.4,30.09,SE,135,1.6,3.6,86,0.00,,---,0.00,VWS V14.01,2013-06-21 12:11:00,
2013-06-21 07:12:00,75.1,70.6,30.09,East,90,0.0,1.6,86,0.00,,---,0.00,VWS V14.01,2013-06-21 12:12:00,
2013-06-21 07:13:00,75.1,70.6,30.09,SE,135,2.5,3.1,86,0.00,,---,0.00,VWS V14.01,2013-06-21 12:13:00,
2013-06-21 07:14:00,75.1,70.6,30.09,SE,135,2.7,3.4,86,0.00,,---,0.00,VWS V14.01,2013-06-21 12:14:00,
2013-06-21 07:15:00,75.2,70.4,30.09,ESE,112,1.1,2.7,85,0.00,,---,0.00,VWS V14.01,2013-06-21 12:15:00,
2013-06-21 07:16:00,75.2,70.4,30.09,SSE,158,3.1,3.1,85,0.00,,---,0.00,VWS V14.01,2013-06-21 12:16:00,
2013-06-21 07:17:00,75.4,70.6,30.09,SSE,158,1.1,3.4,85,0.00,,---,0.00,VWS V14.01,2013-06-21 12:17:00,
2013-06-21 07:18:00,75.4,70.6,30.09,ESE,112,2.0,3.8,85,0.00,,---,0.00,VWS V14.01,2013-06-21 12:18:00,
2013-06-21 07:19:00,75.4,70.2,30.09,East,90,4.9,4.9,84,0.00,,---,0.00,VWS V14.01,2013-06-21 12:19:00,
2013-06-21 07:20:00,75.6,70.4,30.09,South,180,2.5,4.9,84,0.00,,---,0.00,VWS V14.01,2013-06-21 12:20:00,
2013-06-21 07:21:00,75.6,70.4,30.09,ESE,112,4.3,4.3,84,0.00,,---,0.00,VWS V14.01,2013-06-21 12:21:00,
2013-06-21 07:22:00,75.8,70.6,30.09,SSE,158,2.2,4.3,84,0.00,,---,0.00,VWS V14.01,2013-06-21 12:22:00,
2013-06-21 07:23:00,75.9,70.8,30.09,SW,225,1.6,2.2,84,0.00,,---,0.00,VWS V14.01,2013-06-21 12:23:00,
2013-06-21 07:24:00,76.1,70.6,30.09,ESE,112,2.0,3.4,83,0.00,,---,0.00,VWS V14.01,2013-06-21 12:24:00,
2013-06-21 07:25:00,76.3,70.8,30.09,SSE,158,0.9,3.4,83,0.00,,---,0.00,VWS V14.01,2013-06-21 12:25:00,
2013-06-21 07:26:00,76.5,70.9,30.09,South,180,2.2,2.5,83,0.00,,---,0.00,VWS V14.01,2013-06-21 12:26:00,
2013-06-21 07:27:00,76.7,71.1,30.09,SE,135,2.9,2.9,83,0.00,,---,0.00,VWS V14.01,2013-06-21 12:27:00,
2013-06-21 07:28:00,76.7,70.8,30.09,East,90,1.3,5.4,82,0.00,,---,0.00,VWS V14.01,2013-06-21 12:28:00,
2013-06-21 07:29:00,76.7,70.8,30.09,SE,135,3.4,4.0,82,0.00,,---,0.00,VWS V14.01,2013-06-21 12:29:00,
2013-06-21 07:30:00,76.8,70.9,30.09,SE,135,0.0,3.4,82,0.00,,---,0.00,VWS V14.01,2013-06-21 12:30:00,
2013-06-21 07:31:00,76.8,70.9,30.09,ESE,112,2.2,2.5,82,0.00,,---,0.00,VWS V14.01,2013-06-21 12:31:00,
2013-06-21 07:32:00,76.8,70.6,30.12,East,90,0.0,2.2,81,0.00,,---,0.00,VWS V14.01,2013-06-21 12:32:00,
2013-06-21 07:33:00,77.0,70.7,30.12,South,180,2.2,3.4,81,0.00,,---,0.00,VWS V14.01,2013-06-21 12:33:00,
2013-06-21 07:34:00,77.0,70.7,30.12,South,180,2.5,2.5,81,0.00,,---,0.00,VWS V14.01,2013-06-21 12:34:00,
2013-06-21 07:35:00,77.2,70.9,30.12,South,180,0.9,2.5,81,0.00,,---,0.00,VWS V14.01,2013-06-21 12:35:00,
2013-06-21 07:36:00,77.2,70.9,30.12,SSE,158,2.0,2.0,81,0.00,,---,0.00,VWS V14.01,2013-06-21 12:36:00,
2013-06-21 07:37:00,77.2,70.2,30.12,SSW,202,4.0,5.6,79,0.00,,---,0.00,VWS V14.01,2013-06-21 12:37:00,
2013-06-21 07:38:00,77.4,70.3,30.12,South,180,4.7,4.7,79,0.00,,---,0.00,VWS V14.01,2013-06-21 12:38:00,
2013-06-21 07:39:00,77.4,70.3,30.12,SSW,202,1.1,4.7,79,0.00,,---,0.00,VWS V14.01,2013-06-21 12:39:00,
2013-06-21 07:40:00,77.5,70.9,30.12,SE,135,2.0,2.2,80,0.00,,---,0.00,VWS V14.01,2013-06-21 12:40:00,
2013-06-21 07:41:00,77.7,71.1,30.12,South,180,1.6,2.0,80,0.00,,---,0.00,VWS V14.01,2013-06-21 12:41:00,
2013-06-21 07:42:00,77.9,70.9,30.12,ENE,68,0.0,4.9,79,0.00,,---,0.00,VWS V14.01,2013-06-21 12:42:00,
2013-06-21 07:43:00,78.1,71.0,30.12,SSE,158,0.9,2.5,79,0.00,,---,0.00,VWS V14.01,2013-06-21 12:43:00,
2013-06-21 07:44:00,78.2,71.2,30.12,SE,135,0.9,0.9,79,0.00,,---,0.00,VWS V14.01,2013-06-21 12:44:00,
2013-06-21 07:45:00,78.4,71.0,30.12,East,90,2.0,2.7,78,0.00,,---,0.00,VWS V14.01,2013-06-21 12:45:00,
2013-06-21 07:46:00,78.6,71.2,30.12,South,180,2.5,3.4,78,0.00,,---,0.00,VWS V14.01,2013-06-21 12:46:00,
2013-06-21 07:47:00,78.8,70.6,30.12,SSW,202,3.4,3.4,76,0.00,,---,0.00,VWS V14.01,2013-06-21 12:47:00,
2013-06-21 07:48:00,78.8,71.0,30.12,SE,135,2.5,3.8,77,0.00,,---,0.00,VWS V14.01,2013-06-21 12:48:00,
2013-06-21 07:49:00,78.9,71.1,30.12,ESE,112,0.9,2.5,77,0.00,,---,0.00,VWS V14.01,2013-06-21 12:49:00,
2013-06-21 07:50:00,79.1,71.3,30.12,SSW,202,1.6,1.6,77,0.00,,---,0.00,VWS V14.01,2013-06-21 12:50:00,
2013-06-21 07:51:00,79.1,71.3,30.12,SSE,158,0.9,2.7,77,0.00,,---,0.00,VWS V14.01,2013-06-21 12:51:00,
2013-06-21 07:52:00,79.3,71.1,30.12,WSW,248,0.0,1.3,76,0.00,,---,0.00,VWS V14.01,2013-06-21 12:52:00,
2013-06-21 07:53:00,79.5,71.3,30.12,South,180,2.9,2.9,76,0.00,,---,0.00,VWS V14.01,2013-06-21 12:53:00,
2013-06-21 07:54:00,79.5,71.3,30.12,NW,315,0.0,3.1,76,0.00,,---,0.00,VWS V14.01,2013-06-21 12:54:00,
2013-06-21 07:55:00,79.3,70.3,30.12,SSW,202,3.4,3.4,74,0.00,,---,0.00,VWS V14.01,2013-06-21 12:55:00,
2013-06-21 07:56:00,79.3,69.9,30.12,South,180,5.4,6.3,73,0.00,,---,0.00,VWS V14.01,2013-06-21 12:56:00,
2013-06-21 07:57:00,79.3,69.9,30.12,North,0,2.0,5.4,73,0.00,,---,0.00,VWS V14.01,2013-06-21 12:57:00,
2013-06-21 07:58:00,79.1,69.7,30.12,South,180,4.3,4.3,73,0.00,,---,0.00,VWS V14.01,2013-06-21 12:58:00,
2013-06-21 07:59:00,79.1,69.3,30.12,SE,135,3.8,6.0,72,0.00,,---,0.00,VWS V14.01,2013-06-21 12:59:00,
2013-06-21 08:00:00,78.9,69.2,30.12,SSW,202,0.0,5.4,72,0.00,,---,0.00,VWS V14.01,2013-06-21 13:00:00,
2013-06-21 08:01:00,78.9,69.2,30.12,South,180,2.7,2.7,72,0.00,,---,0.00,VWS V14.01,2013-06-21 13:01:00,
2013-06-21 08:02:00,78.9,69.2,30.12,ENE,68,2.0,3.6,72,0.00,,---,0.00,VWS V14.01,2013-06-21 13:02:00,
2013-06-21 08:03:00,78.8,69.0,30.12,ESE,112,2.9,2.9,72,0.00,,---,0.00,VWS V14.01,2013-06-21 13:03:00,
2013-06-21 08:04:00,78.9,69.2,30.12,SSW,202,3.6,4.0,72,0.00,,---,0.00,VWS V14.01,2013-06-21 13:04:00,
2013-06-21 08:05:00,78.8,68.6,30.12,ESE,112,6.0,6.9,71,0.00,,---,0.00,VWS V14.01,2013-06-21 13:05:00,
2013-06-21 08:06:00,78.8,69.0,30.12,SSW,202,2.5,6.0,72,0.00,,---,0.00,VWS V14.01,2013-06-21 13:06:00,
2013-06-21 08:07:00,78.9,69.2,30.12,South,180,2.0,3.8,72,0.00,,---,0.00,VWS V14.01,2013-06-21 13:07:00,
2013-06-21 08:08:00,79.1,69.7,30.12,SE,135,2.9,2.9,73,0.00,,---,0.00,VWS V14.01,2013-06-21 13:08:00,
2013-06-21 08:09:00,79.1,69.3,30.12,NNE,22,3.1,3.4,72,0.00,,---,0.00,VWS V14.01,2013-06-21 13:09:00,
2013-06-21 08:10:00,78.9,69.2,30.12,South,180,3.6,4.3,72,0.00,,---,0.00,VWS V14.01,2013-06-21 13:10:00,
2013-06-21 08:11:00,78.9,69.2,30.12,South,180,4.9,4.9,72,0.00,,---,0.00,VWS V14.01,2013-06-21 13:11:00,
2013-06-21 08:12:00,78.8,69.0,30.12,South,180,2.9,4.9,72,0.00,,---,0.00,VWS V14.01,2013-06-21 13:12:00,
2013-06-21 08:13:00,78.9,69.2,30.12,SSW,202,4.0,5.8,72,0.00,,---,0.00,VWS V14.01,2013-06-21 13:13:00,
2013-06-21 08:14:00,78.8,69.0,30.12,SSW,202,7.4,8.1,72,0.00,,---,0.00,VWS V14.01,2013-06-21 13:14:00,
2013-06-21 08:15:00,78.6,68.4,30.12,SSE,158,7.2,7.6,71,0.00,,---,0.00,VWS V14.01,2013-06-21 13:15:00,
2013-06-21 08:16:00,78.6,68.4,30.09,South,180,1.1,7.2,71,0.00,,---,0.00,VWS V14.01,2013-06-21 13:16:00,
2013-06-21 08:17:00,78.6,68.4,30.09,South,180,3.8,7.2,71,0.00,,---,0.00,VWS V14.01,2013-06-21 13:17:00,
2013-06-21 08:18:00,78.4,68.2,30.09,SSW,202,10.1,12.8,71,0.00,,---,0.00,VWS V14.01,2013-06-21 13:18:00,
2013-06-21 08:19:00,78.2,68.1,30.09,SSE,158,4.7,10.1,71,0.00,,---,0.00,VWS V14.01,2013-06-21 13:19:00,
2013-06-21 08:20:00,78.2,68.1,30.09,SSW,202,2.5,7.6,71,0.00,,---,0.00,VWS V14.01,2013-06-21 13:20:00,
2013-06-21 08:21:00,78.2,68.1,30.09,SSW,202,2.2,6.5,71,0.00,,---,0.00,VWS V14.01,2013-06-21 13:21:00,
2013-06-21 08:22:00,78.2,68.1,30.09,SW,225,1.6,2.9,71,0.00,,---,0.00,VWS V14.01,2013-06-21 13:22:00,
2013-06-21 08:23:00,78.2,68.5,30.09,South,180,4.0,4.7,72,0.00,,---,0.00,VWS V14.01,2013-06-21 13:23:00,
2013-06-21 08:24:00,78.4,68.7,30.09,West,270,2.0,5.4,72,0.00,,---,0.00,VWS V14.01,2013-06-21 13:24:00,
2013-06-21 08:25:00,78.4,68.7,30.09,East,90,2.5,3.4,72,0.00,,---,0.00,VWS V14.01,2013-06-21 13:25:00,
2013-06-21 08:26:00,78.4,68.2,30.09,SE,135,3.1,5.4,71,0.00,,---,0.00,VWS V14.01,2013-06-21 13:26:00,
2013-06-21 08:27:00,78.2,68.5,30.09,South,180,3.1,5.8,72,0.00,,---,0.00,VWS V14.01,2013-06-21 13:27:00,
2013-06-21 08:28:00,78.8,69.0,30.09,East,90,1.6,4.0,72,0.00,,---,0.00,VWS V14.01,2013-06-21 13:28:00,
2013-06-21 08:29:00,78.8,69.0,30.09,East,90,3.6,5.8,72,0.00,,---,0.00,VWS V14.01,2013-06-21 13:29:00,
2013-06-21 08:30:00,78.8,69.0,30.09,East,90,2.7,3.6,72,0.00,,---,0.00,VWS V14.01,2013-06-21 13:30:00,
2013-06-21 08:31:00,79.3,69.5,30.09,SSE,158,6.5,6.5,72,0.00,,---,0.00,VWS V14.01,2013-06-21 13:31:00,
2013-06-21 08:32:00,79.5,69.7,30.09,SSE,158,4.7,6.5,72,0.00,,---,0.00,VWS V14.01,2013-06-21 13:32:00,
2013-06-21 08:33:00,80.0,69.8,30.09,SW,225,2.9,4.7,71,0.00,,---,0.00,VWS V14.01,2013-06-21 13:33:00,
2013-06-21 08:34:00,80.0,68.9,30.09,SW,225,10.3,10.3,69,0.00,,---,0.00,VWS V14.01,2013-06-21 13:34:00,
2013-06-21 08:35:00,79.8,68.3,30.09,South,180,12.3,12.3,68,0.00,,---,0.00,VWS V14.01,2013-06-21 13:35:00,
2013-06-21 08:36:00,79.8,68.3,30.09,South,180,2.7,12.3,68,0.00,,---,0.00,VWS V14.01,2013-06-21 13:36:00,
2013-06-21 08:37:00,80.2,69.1,30.09,SSW,202,6.0,6.0,69,0.00,,---,0.00,VWS V14.01,2013-06-21 13:37:00,
2013-06-21 08:38:00,80.0,68.5,30.09,South,180,6.0,11.0,68,0.00,,---,0.00,VWS V14.01,2013-06-21 13:38:00,
2013-06-21 08:39:00,80.0,68.5,30.09,South,180,4.7,8.5,68,0.00,,---,0.00,VWS V14.01,2013-06-21 13:39:00,
2013-06-21 08:40:00,80.7,69.6,30.09,ESE,112,2.5,8.5,69,0.00,,---,0.00,VWS V14.01,2013-06-21 13:40:00,
2013-06-21 08:41:00,80.4,68.8,30.09,SSW,202,4.0,4.0,68,0.00,,---,0.00,VWS V14.01,2013-06-21 13:41:00,
2013-06-21 08:42:00,80.6,69.0,30.09,SSW,202,4.9,6.5,68,0.00,,---,0.00,VWS V14.01,2013-06-21 13:42:00,
2013-06-21 08:43:00,80.7,69.2,30.09,South,180,4.3,4.9,68,0.00,,---,0.00,VWS V14.01,2013-06-21 13:43:00,
2013-06-21 08:44:00,80.4,68.8,30.09,South,180,4.7,7.4,68,0.00,,---,0.00,VWS V14.01,2013-06-21 13:44:00,
2013-06-21 08:45:00,80.6,69.0,30.09,East,90,2.5,4.7,68,0.00,,---,0.00,VWS V14.01,2013-06-21 13:45:00,
2013-06-21 08:46:00,80.4,68.4,30.12,South,180,5.8,5.8,67,0.00,,---,0.00,VWS V14.01,2013-06-21 13:46:00,
2013-06-21 08:47:00,80.2,68.2,30.12,NNE,22,2.7,5.8,67,0.00,,---,0.00,VWS V14.01,2013-06-21 13:47:00,
2013-06-21 08:48:00,79.8,67.9,30.12,SSE,158,2.7,5.8,67,0.00,,---,0.00,VWS V14.01,2013-06-21 13:48:00,
2013-06-21 08:49:00,79.8,67.9,30.12,SSE,158,7.4,7.6,67,0.00,,---,0.00,VWS V14.01,2013-06-21 13:49:00,
2013-06-21 08:50:00,80.2,68.2,30.12,East,90,2.7,7.4,67,0.00,,---,0.00,VWS V14.01,2013-06-21 13:50:00,
2013-06-21 08:51:00,80.2,68.2,30.12,South,180,8.1,8.1,67,0.00,,---,0.00,VWS V14.01,2013-06-21 13:51:00,
2013-06-21 08:52:00,80.0,67.7,30.12,South,180,6.3,6.3,66,0.00,,---,0.00,VWS V14.01,2013-06-21 13:52:00,
2013-06-21 08:53:00,80.0,67.7,30.12,ESE,112,2.2,6.3,66,0.00,,---,0.00,VWS V14.01,2013-06-21 13:53:00,
2013-06-21 08:54:00,80.2,67.8,30.12,East,90,2.0,3.6,66,0.00,,---,0.00,VWS V14.01,2013-06-21 13:54:00,
2013-06-21 08:55:00,80.2,68.2,30.12,SSW,202,2.5,6.5,67,0.00,,---,0.00,VWS V14.01,2013-06-21 13:55:00,
2013-06-21 08:56:00,80.6,68.2,30.12,South,180,3.4,5.6,66,0.00,,---,0.00,VWS V14.01,2013-06-21 13:56:00,
2013-06-21 08:57:00,80.6,68.2,30.12,South,180,2.7,6.5,66,0.00,,---,0.00,VWS V14.01,2013-06-21 13:57:00,
2013-06-21 08:58:00,80.6,68.2,30.12,South,180,6.3,8.5,66,0.00,,---,0.00,VWS V14.01,2013-06-21 13:58:00,
2013-06-21 08:59:00,81.1,68.7,30.12,South,180,8.7,10.7,66,0.00,,---,0.00,VWS V14.01,2013-06-21 13:59:00,
2013-06-21 09:00:00,81.3,68.4,30.12,ESE,112,5.6,8.7,65,0.00,,---,0.00,VWS V14.01,2013-06-21 14:00:00,
2013-06-21 09:01:00,81.8,68.9,30.12,SSW,202,8.5,8.5,65,0.00,,---,0.00,VWS V14.01,2013-06-21 14:01:00,
2013-06-21 09:02:00,81.4,68.6,30.12,SE,135,4.9,9.8,65,0.00,,---,0.00,VWS V14.01,2013-06-21 14:02:00,
2013-06-21 09:03:00,81.4,68.6,30.12,SE,135,4.0,5.8,65,0.00,,---,0.00,VWS V14.01,2013-06-21 14:03:00,
2013-06-21 09:04:00,81.4,68.6,30.12,SE,135,2.7,5.6,65,0.00,,---,0.00,VWS V14.01,2013-06-21 14:04:00,
2013-06-21 09:05:00,82.0,68.6,30.12,SSW,202,4.9,4.9,64,0.00,,---,0.00,VWS V14.01,2013-06-21 14:05:00,
2013-06-21 09:06:00,82.3,69.4,30.12,SW,225,5.6,5.6,65,0.00,,---,0.00,VWS V14.01,2013-06-21 14:06:00,
2013-06-21 09:07:00,82.2,68.8,30.12,SSW,202,5.8,7.6,64,0.00,,---,0.00,VWS V14.01,2013-06-21 14:07:00,
2013-06-21 09:08:00,82.3,68.9,30.12,South,180,8.1,9.2,64,0.00,,---,0.00,VWS V14.01,2013-06-21 14:08:00,
2013-06-21 09:09:00,82.7,69.3,30.12,South,180,2.5,8.1,64,0.00,,---,0.00,VWS V14.01,2013-06-21 14:09:00,
2013-06-21 09:10:00,83.0,70.1,30.12,SSW,202,1.6,2.5,65,0.00,,---,0.00,VWS V14.01,2013-06-21 14:10:00,
2013-06-21 09:11:00,83.4,69.9,30.12,West,270,3.4,4.7,64,0.00,,---,0.00,VWS V14.01,2013-06-21 14:11:00,
2013-06-21 09:12:00,83.7,70.3,30.12,South,180,2.2,6.3,64,0.00,,---,0.00,VWS V14.01,2013-06-21 14:12:00,
2013-06-21 09:13:00,83.4,69.0,30.12,ESE,112,4.3,10.7,62,0.00,,---,0.00,VWS V14.01,2013-06-21 14:13:00,
2013-06-21 09:14:00,83.6,69.2,30.12,South,180,7.6,8.7,62,0.00,,---,0.00,VWS V14.01,2013-06-21 14:14:00,
2013-06-21 09:15:00,83.6,69.2,30.12,SSW,202,12.3,12.3,62,0.00,,---,0.00,VWS V14.01,2013-06-21 14:15:00,
2013-06-21 09:16:00,82.9,67.6,30.12,South,180,3.6,12.3,60,0.00,,---,0.00,VWS V14.01,2013-06-21 14:16:00,
2013-06-21 09:17:00,82.3,67.5,30.12,South,180,17.9,17.9,61,0.00,,---,0.00,VWS V14.01,2013-06-21 14:17:00,
2013-06-21 09:18:00,82.2,66.9,30.12,South,180,7.6,17.9,60,0.00,,---,0.00,VWS V14.01,2013-06-21 14:18:00,
2013-06-21 09:19:00,81.3,67.0,30.12,South,180,8.1,10.3,62,0.00,,---,0.00,VWS V14.01,2013-06-21 14:19:00,
2013-06-21 09:20:00,81.1,66.4,30.12,SSW,202,12.8,12.8,61,0.00,,---,0.00,VWS V14.01,2013-06-21 14:20:00,
2013-06-21 09:21:00,80.9,66.2,30.12,SSW,202,12.8,12.8,61,0.00,,---,0.00,VWS V14.01,2013-06-21 14:21:00,
2013-06-21 09:22:00,81.4,66.7,30.12,ESE,112,3.4,12.8,61,0.00,,---,0.00,VWS V14.01,2013-06-21 14:22:00,
2013-06-21 09:23:00,82.2,67.8,30.12,South,180,3.1,3.1,62,0.00,,---,0.00,VWS V14.01,2013-06-21 14:23:00,
2013-06-21 09:24:00,82.2,67.8,30.12,SSW,202,12.1,12.1,62,0.00,,---,0.00,VWS V14.01,2013-06-21 14:24:00,
2013-06-21 09:25:00,82.5,67.7,30.12,SSW,202,5.6,12.1,61,0.00,,---,0.00,VWS V14.01,2013-06-21 14:25:00,
2013-06-21 09:26:00,82.9,67.6,30.12,SSE,158,2.7,5.6,60,0.00,,---,0.00,VWS V14.01,2013-06-21 14:26:00,
2013-06-21 09:27:00,83.0,67.7,30.12,SSW,202,6.7,6.7,60,0.00,,---,0.00,VWS V14.01,2013-06-21 14:27:00,
2013-06-21 09:28:00,83.2,67.9,30.12,South,180,4.7,7.6,60,0.00,,---,0.00,VWS V14.01,2013-06-21 14:28:00,
2013-06-21 09:29:00,83.6,68.2,30.12,SE,135,9.8,9.8,60,0.00,,---,0.00,VWS V14.01,2013-06-21 14:29:00,
2013-06-21 09:30:00,83.7,68.4,30.12,South,180,5.8,9.8,60,0.00,,---,0.00,VWS V14.01,2013-06-21 14:30:00,
2013-06-21 09:31:00,84.1,68.2,30.12,South,180,3.1,5.8,59,0.00,,---,0.00,VWS V14.01,2013-06-21 14:31:00,
2013-06-21 09:32:00,84.4,69.1,30.12,ESE,112,2.5,4.3,60,0.00,,---,0.00,VWS V14.01,2013-06-21 14:32:00,
2013-06-21 09:33:00,85.2,68.7,30.12,SSW,202,6.3,6.3,58,0.00,,---,0.00,VWS V14.01,2013-06-21 14:33:00,
2013-06-21 09:34:00,85.3,68.9,30.12,ESE,112,6.0,6.3,58,0.00,,---,0.00,VWS V14.01,2013-06-21 14:34:00,
2013-06-21 09:35:00,85.3,67.9,30.12,South,180,8.7,8.7,56,0.00,,---,0.00,VWS V14.01,2013-06-21 14:35:00,
2013-06-21 09:36:00,85.5,68.6,30.12,ESE,112,5.6,8.7,57,0.00,,---,0.00,VWS V14.01,2013-06-21 14:36:00,
2013-06-21 09:37:00,85.5,68.0,30.12,South,180,7.2,10.7,56,0.00,,---,0.00,VWS V14.01,2013-06-21 14:37:00,
2013-06-21 09:38:00,85.9,68.4,30.12,ESE,112,2.5,7.2,56,0.00,,---,0.00,VWS V14.01,2013-06-21 14:38:00,
2013-06-21 09:39:00,86.1,69.1,30.12,SE,135,2.9,2.9,57,0.00,,---,0.00,VWS V14.01,2013-06-21 14:39:00,
2013-06-21 09:40:00,86.2,68.7,30.12,SE,135,6.0,6.3,56,0.00,,---,0.00,VWS V14.01,2013-06-21 14:40:00,
2013-06-21 09:41:00,86.1,68.5,30.12,South,180,7.4,9.2,56,0.00,,---,0.00,VWS V14.01,2013-06-21 14:41:00,
2013-06-21 09:42:00,85.5,68.0,30.12,SSW,202,5.8,9.2,56,0.00,,---,0.00,VWS V14.01,2013-06-21 14:42:00,
2013-06-21 09:43:00,85.0,67.0,30.12,SSW,202,8.1,11.4,55,0.00,,---,0.00,VWS V14.01,2013-06-21 14:43:00,
2013-06-21 09:44:00,84.8,67.4,30.12,SSW,202,8.1,9.4,56,0.00,,---,0.00,VWS V14.01,2013-06-21 14:44:00,
2013-06-21 09:45:00,84.8,67.4,30.12,SE,135,7.8,8.1,56,0.00,,---,0.00,VWS V14.01,2013-06-21 14:45:00,
2013-06-21 09:46:00,84.4,67.6,30.12,South,180,7.6,10.3,57,0.00,,---,0.00,VWS V14.01,2013-06-21 14:46:00,
2013-06-21 09:47:00,84.1,66.7,30.12,South,180,5.8,12.3,56,0.00,,---,0.00,VWS V14.01,2013-06-21 14:47:00,
2013-06-21 09:48:00,83.4,66.6,30.12,SSW,202,5.6,6.5,57,0.00,,---,0.00,VWS V14.01,2013-06-21 14:48:00,
2013-06-21 09:49:00,83.0,66.7,30.12,SSW,202,7.6,7.6,58,0.00,,---,0.00,VWS V14.01,2013-06-21 14:49:00,
2013-06-21 09:50:00,82.9,66.6,30.12,SSW,202,2.7,8.5,58,0.00,,---,0.00,VWS V14.01,2013-06-21 14:50:00,
2013-06-21 09:51:00,82.7,66.9,30.12,SSE,158,7.6,7.6,59,0.00,,---,0.00,VWS V14.01,2013-06-21 14:51:00,
2013-06-21 09:52:00,82.3,66.6,30.12,South,180,6.3,7.8,59,0.00,,---,0.00,VWS V14.01,2013-06-21 14:52:00,
2013-06-21 09:54:00,82.5,66.7,30.12,SSW,202,6.3,6.3,59,0.00,,---,0.00,VWS V14.01,2013-06-21 14:54:00,
2013-06-21 09:55:00,82.5,66.7,30.12,SSW,202,7.6,10.3,59,0.00,,---,0.00,VWS V14.01,2013-06-21 14:55:00,
2013-06-21 09:56:00,82.9,67.6,30.12,ESE,112,3.8,10.5,60,0.00,,---,0.00,VWS V14.01,2013-06-21 14:56:00,
2013-06-21 09:57:00,83.0,67.7,30.12,SSW,202,6.3,10.5,60,0.00,,---,0.00,VWS V14.01,2013-06-21 14:57:00,
2013-06-21 09:58:00,82.5,66.7,30.12,South,180,5.6,8.5,59,0.00,,---,0.00,VWS V14.01,2013-06-21 14:58:00,
2013-06-21 09:59:00,82.7,67.4,30.12,South,180,3.8,7.2,60,0.00,,---,0.00,VWS V14.01,2013-06-21 14:59:00,
2013-06-21 10:00:00,83.2,67.9,30.12,SSW,202,7.6,8.7,60,0.00,,---,0.00,VWS V14.01,2013-06-21 15:00:00,
2013-06-21 10:01:00,83.4,67.6,30.12,SSW,202,3.4,10.3,59,0.00,,---,0.00,VWS V14.01,2013-06-21 15:01:00,
2013-06-21 10:02:00,83.9,68.6,30.12,South,180,11.0,11.0,60,0.00,,---,0.00,VWS V14.01,2013-06-21 15:02:00,
2013-06-21 10:03:00,84.3,67.9,30.12,South,180,4.3,11.0,58,0.00,,---,0.00,VWS V14.01,2013-06-21 15:03:00,
2013-06-21 10:04:00,84.4,67.6,30.12,South,180,7.8,10.5,57,0.00,,---,0.00,VWS V14.01,2013-06-21 15:04:00,
2013-06-21 10:05:00,84.6,68.2,30.12,ESE,112,5.4,9.4,58,0.00,,---,0.00,VWS V14.01,2013-06-21 15:05:00,
2013-06-21 10:06:00,84.6,68.2,30.12,SE,135,2.9,5.4,58,0.00,,---,0.00,VWS V14.01,2013-06-21 15:06:00,
2013-06-21 10:07:00,85.5,69.6,30.12,SSE,158,6.5,6.5,59,0.00,,---,0.00,VWS V14.01,2013-06-21 15:07:00,
2013-06-21 10:08:00,85.2,67.7,30.12,South,180,4.0,7.6,56,0.00,,---,0.00,VWS V14.01,2013-06-21 15:08:00,
2013-06-21 10:09:00,85.3,66.8,30.12,South,180,10.7,10.7,54,0.00,,---,0.00,VWS V14.01,2013-06-21 15:09:00,
2013-06-21 10:10:00,85.3,66.8,30.12,ESE,112,6.5,12.5,54,0.00,,---,0.00,VWS V14.01,2013-06-21 15:10:00,
2013-06-21 10:11:00,85.5,66.4,30.12,South,180,4.0,12.1,53,0.00,,---,0.00,VWS V14.01,2013-06-21 15:11:00,
2013-06-21 10:12:00,85.9,67.3,30.12,South,180,2.9,7.2,54,0.00,,---,0.00,VWS V14.01,2013-06-21 15:12:00,
2013-06-21 10:13:00,86.2,68.2,30.12,East,90,3.6,3.6,55,0.00,,---,0.00,VWS V14.01,2013-06-21 15:13:00,
2013-06-21 10:14:00,86.2,67.1,30.12,SSW,202,5.4,8.7,53,0.00,,---,0.00,VWS V14.01,2013-06-21 15:14:00,
2013-06-21 10:15:00,86.4,66.7,30.12,South,180,4.0,7.2,52,0.00,,---,0.00,VWS V14.01,2013-06-21 15:15:00,
2013-06-21 10:16:00,86.8,67.0,30.09,South,180,6.5,8.1,52,0.00,,---,0.00,VWS V14.01,2013-06-21 15:16:00,
2013-06-21 10:17:00,86.8,67.0,30.09,South,180,11.9,11.9,52,0.00,,---,0.00,VWS V14.01,2013-06-21 15:17:00,
2013-06-21 10:18:00,86.4,66.2,30.09,SE,135,6.0,11.9,51,0.00,,---,0.00,VWS V14.01,2013-06-21 15:18:00,
2013-06-21 10:19:00,86.6,66.9,30.09,South,180,3.8,6.5,52,0.00,,---,0.00,VWS V14.01,2013-06-21 15:19:00,
2013-06-21 10:20:00,86.8,67.0,30.09,South,180,4.3,4.3,52,0.00,,---,0.00,VWS V14.01,2013-06-21 15:20:00,
2013-06-21 10:21:00,87.1,67.4,30.09,SE,135,2.7,6.0,52,0.00,,---,0.00,VWS V14.01,2013-06-21 15:21:00,
2013-06-21 10:22:00,87.5,67.1,30.09,SE,135,6.5,6.5,51,0.00,,---,0.00,VWS V14.01,2013-06-21 15:22:00,
2013-06-21 10:23:00,87.6,67.3,30.09,South,180,2.2,6.5,51,0.00,,---,0.00,VWS V14.01,2013-06-21 15:23:00,
2013-06-21 10:24:00,87.3,67.5,30.09,South,180,4.7,6.0,52,0.00,,---,0.00,VWS V14.01,2013-06-21 15:24:00,
2013-06-21 10:25:00,87.3,67.0,30.09,SE,135,7.8,10.7,51,0.00,,---,0.00,VWS V14.01,2013-06-21 15:25:00,
2013-06-21 10:26:00,86.1,65.3,30.09,South,180,12.5,12.5,50,0.00,,---,0.00,VWS V14.01,2013-06-21 15:26:00,
2013-06-21 10:27:00,86.4,65.6,30.09,SE,135,8.5,12.5,50,0.00,,---,0.00,VWS V14.01,2013-06-21 15:27:00,
2013-06-21 10:28:00,85.9,65.1,30.09,South,180,3.8,5.6,50,0.00,,---,0.00,VWS V14.01,2013-06-21 15:28:00,
2013-06-21 10:29:00,85.5,64.8,30.09,SE,135,4.7,7.8,50,0.00,,---,0.00,VWS V14.01,2013-06-21 15:29:00,
2013-06-21 10:30:00,86.1,65.8,30.09,SE,135,3.6,5.4,51,0.00,,---,0.00,VWS V14.01,2013-06-21 15:30:00,
2013-06-21 10:31:00,85.7,65.5,30.12,South,180,6.0,6.0,51,0.00,,---,0.00,VWS V14.01,2013-06-21 15:31:00,
2013-06-21 10:32:00,85.5,65.3,30.12,East,90,2.9,6.0,51,0.00,,---,0.00,VWS V14.01,2013-06-21 15:32:00,
2013-06-21 10:33:00,85.3,65.7,30.12,SSW,202,0.9,4.9,52,0.00,,---,0.00,VWS V14.01,2013-06-21 15:33:00,
2013-06-21 10:34:00,86.1,66.4,30.12,ESE,112,1.6,3.6,52,0.00,,---,0.00,VWS V14.01,2013-06-21 15:34:00,
2013-06-21 10:35:00,86.2,66.6,30.12,South,180,2.9,3.8,52,0.00,,---,0.00,VWS V14.01,2013-06-21 15:35:00,
2013-06-21 10:36:00,86.6,66.3,30.12,SSW,202,4.9,4.9,51,0.00,,---,0.00,VWS V14.01,2013-06-21 15:36:00,
2013-06-21 10:37:00,86.8,65.9,30.12,South,180,9.8,9.8,50,0.00,,---,0.00,VWS V14.01,2013-06-21 15:37:00,
2013-06-21 10:38:00,86.8,65.9,30.12,SSW,202,6.3,9.8,50,0.00,,---,0.00,VWS V14.01,2013-06-21 15:38:00,
2013-06-21 10:39:00,86.9,65.5,30.12,SSW,202,6.5,8.1,49,0.00,,---,0.00,VWS V14.01,2013-06-21 15:39:00,
2013-06-21 10:40:00,87.1,65.7,30.12,SE,135,2.0,6.5,49,0.00,,---,0.00,VWS V14.01,2013-06-21 15:40:00,
2013-06-21 10:41:00,87.6,66.7,30.12,SW,225,2.5,3.8,50,0.00,,---,0.00,VWS V14.01,2013-06-21 15:41:00,
2013-06-21 10:42:00,87.1,65.7,30.12,SSW,202,7.4,7.4,49,0.00,,---,0.00,VWS V14.01,2013-06-21 15:42:00,
2013-06-21 10:43:00,86.8,64.7,30.12,SW,225,11.0,11.0,48,0.00,,---,0.00,VWS V14.01,2013-06-21 15:43:00,
2013-06-21 10:44:00,86.8,64.7,30.12,SSW,202,5.6,11.0,48,0.00,,---,0.00,VWS V14.01,2013-06-21 15:44:00,
2013-06-21 10:45:00,86.4,64.4,30.12,SSW,202,7.6,7.6,48,0.00,,---,0.00,VWS V14.01,2013-06-21 15:45:00,
2013-06-21 10:46:00,86.4,64.4,30.12,SSE,158,4.7,12.5,48,0.00,,---,0.00,VWS V14.01,2013-06-21 15:46:00,
2013-06-21 10:47:00,86.8,64.7,30.12,South,180,6.0,6.0,48,0.00,,---,0.00,VWS V14.01,2013-06-21 15:47:00,
2013-06-21 10:48:00,86.4,65.0,30.12,SSW,202,4.3,6.0,49,0.00,,---,0.00,VWS V14.01,2013-06-21 15:48:00,
2013-06-21 10:49:00,86.9,64.9,30.12,South,180,7.8,7.8,48,0.00,,---,0.00,VWS V14.01,2013-06-21 15:49:00,
2013-06-21 10:50:00,86.6,64.0,30.12,SE,135,7.8,12.1,47,0.00,,---,0.00,VWS V14.01,2013-06-21 15:50:00,
2013-06-21 10:51:00,86.4,63.8,30.12,SE,135,6.0,8.5,47,0.00,,---,0.00,VWS V14.01,2013-06-21 15:51:00,
2013-06-21 10:52:00,86.8,64.1,30.12,SW,225,10.7,10.7,47,0.00,,---,0.00,VWS V14.01,2013-06-21 15:52:00,
2013-06-21 10:53:00,86.2,63.0,30.12,SSE,158,8.7,12.8,46,0.00,,---,0.00,VWS V14.01,2013-06-21 15:53:00,
2013-06-21 10:55:00,86.1,62.9,30.12,South,180,11.0,11.0,46,0.00,,---,0.00,VWS V14.01,2013-06-21 15:55:00,
2013-06-21 10:56:00,86.4,63.2,30.12,SW,225,10.5,11.0,46,0.00,,---,0.00,VWS V14.01,2013-06-21 15:56:00,
2013-06-21 10:57:00,86.6,64.0,30.12,South,180,9.8,10.5,47,0.00,,---,0.00,VWS V14.01,2013-06-21 15:57:00,
2013-06-21 10:58:00,86.2,63.7,30.12,SE,135,4.9,13.4,47,0.00,,---,0.00,VWS V14.01,2013-06-21 15:58:00,
2013-06-21 10:59:00,86.2,63.7,30.12,South,180,6.0,13.4,47,0.00,,---,0.00,VWS V14.01,2013-06-21 15:59:00,
2013-06-21 11:00:00,86.6,64.6,30.12,SE,135,2.9,6.5,48,0.00,,---,0.00,VWS V14.01,2013-06-21 16:00:00,
2013-06-21 11:01:00,86.9,64.9,30.12,South,180,3.1,6.0,48,0.00,,---,0.00,VWS V14.01,2013-06-21 16:01:00,
2013-06-21 11:02:00,87.5,65.4,30.12,SSW,202,3.8,6.3,48,0.00,,---,0.00,VWS V14.01,2013-06-21 16:02:00,
2013-06-21 11:03:00,88.0,66.5,30.12,South,180,4.0,4.0,49,0.00,,---,0.00,VWS V14.01,2013-06-21 16:03:00,
2013-06-21 11:04:00,89.1,67.4,30.12,SE,135,2.7,5.4,49,0.00,,---,0.00,VWS V14.01,2013-06-21 16:04:00,
2013-06-21 11:05:00,89.4,67.2,30.12,SSW,202,2.9,4.0,48,0.00,,---,0.00,VWS V14.01,2013-06-21 16:05:00,
2013-06-21 11:06:00,89.9,67.6,30.12,SSW,202,2.0,4.0,48,0.00,,---,0.00,VWS V14.01,2013-06-21 16:06:00,
2013-06-21 11:07:00,89.9,67.0,30.12,ESE,112,6.3,12.3,47,0.00,,---,0.00,VWS V14.01,2013-06-21 16:07:00,
2013-06-21 11:08:00,89.8,66.2,30.12,South,180,10.1,13.6,46,0.00,,---,0.00,VWS V14.01,2013-06-21 16:08:00,
2013-06-21 11:09:00,89.6,65.5,30.12,SSW,202,3.1,10.1,45,0.00,,---,0.00,VWS V14.01,2013-06-21 16:09:00,
2013-06-21 11:10:00,89.6,65.5,30.12,East,90,3.8,4.9,45,0.00,,---,0.00,VWS V14.01,2013-06-21 16:10:00,
2013-06-21 11:11:00,89.6,66.1,30.12,ESE,112,4.9,4.9,46,0.00,,---,0.00,VWS V14.01,2013-06-21 16:11:00,
2013-06-21 11:12:00,89.8,65.6,30.12,SSE,158,5.8,7.2,45,0.00,,---,0.00,VWS V14.01,2013-06-21 16:12:00,
2013-06-21 11:13:00,90.1,65.9,30.12,SE,135,5.8,5.8,45,0.00,,---,0.00,VWS V14.01,2013-06-21 16:13:00,
2013-06-21 11:14:00,90.3,65.4,30.12,SE,135,7.6,11.0,44,0.00,,---,0.00,VWS V14.01,2013-06-21 16:14:00,
2013-06-21 11:15:00,90.1,65.3,30.12,West,270,2.5,7.6,44,0.00,,---,0.00,VWS V14.01,2013-06-21 16:15:00,
2013-06-21 11:16:00,90.3,65.4,30.12,South,180,1.6,3.6,44,0.00,,---,0.00,VWS V14.01,2013-06-21 16:16:00,
2013-06-21 11:17:00,90.5,65.6,30.12,SE,135,2.0,6.0,44,0.00,,---,0.00,VWS V14.01,2013-06-21 16:17:00,
2013-06-21 11:18:00,89.9,65.1,30.12,SSE,158,5.8,7.8,44,0.00,,---,0.00,VWS V14.01,2013-06-21 16:18:00,
2013-06-21 11:19:00,90.1,65.3,30.12,East,90,7.6,9.0,44,0.00,,---,0.00,VWS V14.01,2013-06-21 16:19:00,
2013-06-21 11:20:00,90.3,64.8,30.12,SE,135,10.1,10.1,43,0.00,,---,0.00,VWS V14.01,2013-06-21 16:20:00,
2013-06-21 11:21:00,90.5,64.9,30.12,East,90,3.4,10.1,43,0.00,,---,0.00,VWS V14.01,2013-06-21 16:21:00,
2013-06-21 11:22:00,90.5,64.9,30.12,SSW,202,2.0,4.3,43,0.00,,---,0.00,VWS V14.01,2013-06-21 16:22:00,
2013-06-21 11:23:00,90.7,65.1,30.12,SSW,202,9.6,9.6,43,0.00,,---,0.00,VWS V14.01,2013-06-21 16:23:00,
2013-06-21 11:24:00,90.7,64.4,30.12,South,180,6.0,9.6,42,0.00,,---,0.00,VWS V14.01,2013-06-21 16:24:00,
2013-06-21 11:25:00,90.8,64.6,30.12,SSW,202,5.8,6.0,42,0.00,,---,0.00,VWS V14.01,2013-06-21 16:25:00,
2013-06-21 11:26:00,90.5,64.3,30.12,SSE,158,3.1,10.5,42,0.00,,---,0.00,VWS V14.01,2013-06-21 16:26:00,
2013-06-21 11:27:00,90.8,65.3,30.12,East,90,5.4,5.6,43,0.00,,---,0.00,VWS V14.01,2013-06-21 16:27:00,
2013-06-21 11:28:00,91.0,65.4,30.12,WSW,248,7.4,7.4,43,0.00,,---,0.00,VWS V14.01,2013-06-21 16:28:00,
2013-06-21 11:29:00,91.2,64.9,30.12,East,90,3.8,7.4,42,0.00,,---,0.00,VWS V14.01,2013-06-21 16:29:00,
2013-06-21 11:30:00,91.2,64.9,30.12,SSE,158,6.5,6.5,42,0.00,,---,0.00,VWS V14.01,2013-06-21 16:30:00,
2013-06-21 11:31:00,91.2,64.2,30.09,East,90,3.6,6.5,41,0.00,,---,0.00,VWS V14.01,2013-06-21 16:31:00,
2013-06-21 11:32:00,91.2,64.2,30.09,East,90,3.6,6.5,41,0.00,,---,0.00,VWS V14.01,2013-06-21 16:32:00,
2013-06-21 11:33:00,91.2,64.2,30.09,SSW,202,8.1,10.1,41,0.00,,---,0.00,VWS V14.01,2013-06-21 16:33:00,
2013-06-21 11:34:00,91.0,64.8,30.09,SSW,202,5.8,5.8,42,0.00,,---,0.00,VWS V14.01,2013-06-21 16:34:00,
2013-06-21 11:35:00,91.2,64.9,30.09,North,0,4.3,5.8,42,0.00,,---,0.00,VWS V14.01,2013-06-21 16:35:00,
2013-06-21 11:36:00,91.2,64.9,30.09,South,180,7.4,7.4,42,0.00,,---,0.00,VWS V14.01,2013-06-21 16:36:00,
2013-06-21 11:37:00,91.2,64.9,30.09,South,180,4.7,8.5,42,0.00,,---,0.00,VWS V14.01,2013-06-21 16:37:00,
2013-06-21 11:38:00,91.4,65.1,30.09,SSW,202,2.7,5.6,42,0.00,,---,0.00,VWS V14.01,2013-06-21 16:38:00,
2013-06-21 11:39:00,91.7,65.4,30.09,SSW,202,5.6,5.6,42,0.00,,---,0.00,VWS V14.01,2013-06-21 16:39:00,
2013-06-21 11:40:00,91.9,65.6,30.09,SSW,202,3.4,5.6,42,0.00,,---,0.00,VWS V14.01,2013-06-21 16:40:00,
2013-06-21 11:41:00,91.9,65.6,30.09,SE,135,2.5,3.8,42,0.00,,---,0.00,VWS V14.01,2013-06-21 16:41:00,
2013-06-21 11:42:00,91.9,65.6,30.09,SSE,158,5.8,7.2,42,0.00,,---,0.00,VWS V14.01,2013-06-21 16:42:00,
2013-06-21 11:43:00,91.9,65.6,30.09,SE,135,4.7,5.8,42,0.00,,---,0.00,VWS V14.01,2013-06-21 16:43:00,
2013-06-21 11:44:00,91.9,65.6,30.09,NNW,338,6.3,7.4,42,0.00,,---,0.00,VWS V14.01,2013-06-21 16:44:00,
2013-06-21 11:45:00,91.9,65.6,30.09,South,180,3.8,8.1,42,0.00,,---,0.00,VWS V14.01,2013-06-21 16:45:00,
2013-06-21 11:46:00,92.2,65.2,30.09,South,180,9.4,9.4,41,0.00,,---,0.00,VWS V14.01,2013-06-21 16:46:00,
2013-06-21 11:47:00,91.4,64.4,30.09,SSE,158,11.9,11.9,41,0.00,,---,0.00,VWS V14.01,2013-06-21 16:47:00,
2013-06-21 11:48:00,90.5,63.6,30.09,ESE,112,3.8,11.9,41,0.00,,---,0.00,VWS V14.01,2013-06-21 16:48:00,
2013-06-21 11:50:00,90.8,63.9,30.09,SSE,158,7.4,7.4,41,0.00,,---,0.00,VWS V14.01,2013-06-21 16:50:00,
2013-06-21 11:51:00,90.5,63.6,30.09,SSW,202,7.2,10.7,41,0.00,,---,0.00,VWS V14.01,2013-06-21 16:51:00,
2013-06-21 11:52:00,90.7,63.8,30.09,South,180,3.4,9.6,41,0.00,,---,0.00,VWS V14.01,2013-06-21 16:52:00,
2013-06-21 11:53:00,91.5,65.2,30.09,SSW,202,2.2,5.6,42,0.00,,---,0.00,VWS V14.01,2013-06-21 16:53:00,
2013-06-21 11:54:00,91.5,65.2,30.09,South,180,5.6,5.6,42,0.00,,---,0.00,VWS V14.01,2013-06-21 16:54:00,
2013-06-21 11:55:00,91.9,64.9,30.09,South,180,3.4,5.6,41,0.00,,---,0.00,VWS V14.01,2013-06-21 16:55:00,
2013-06-21 11:57:00,91.9,64.9,30.09,South,180,6.5,6.5,41,0.00,,---,0.00,VWS V14.01,2013-06-21 16:57:00,
2013-06-21 11:58:00,91.9,64.9,30.09,SSW,202,5.8,6.5,41,0.00,,---,0.00,VWS V14.01,2013-06-21 16:58:00,
2013-06-21 11:59:00,91.5,63.8,30.09,South,180,7.8,7.8,40,0.00,,---,0.00,VWS V14.01,2013-06-21 16:59:00,
2013-06-21 12:00:00,91.4,63.0,30.09,South,180,7.8,7.8,39,0.00,,---,0.00,VWS V14.01,2013-06-21 17:00:00,
2013-06-21 12:01:00,91.7,64.0,30.12,ESE,112,2.9,7.8,40,0.00,,---,0.00,VWS V14.01,2013-06-21 17:01:00,
2013-06-21 12:02:00,92.1,64.3,30.12,WSW,248,3.4,3.8,40,0.00,,---,0.00,VWS V14.01,2013-06-21 17:02:00,
2013-06-21 12:03:00,92.4,64.6,30.12,SSW,202,2.7,3.4,40,0.00,,---,0.00,VWS V14.01,2013-06-21 17:03:00,
2013-06-21 12:04:00,91.7,64.0,30.12,East,90,3.6,12.8,40,0.00,,---,0.00,VWS V14.01,2013-06-21 17:04:00,
2013-06-21 12:05:00,91.7,64.0,30.12,East,90,4.9,7.6,40,0.00,,---,0.00,VWS V14.01,2013-06-21 17:05:00,
2013-06-21 12:06:00,91.2,63.5,30.12,South,180,2.7,4.9,40,0.00,,---,0.00,VWS V14.01,2013-06-21 17:06:00,
2013-06-21 12:07:00,91.2,63.5,30.12,SE,135,4.0,5.6,40,0.00,,---,0.00,VWS V14.01,2013-06-21 17:07:00,
2013-06-21 12:08:00,91.4,63.7,30.12,ESE,112,4.3,4.7,40,0.00,,---,0.00,VWS V14.01,2013-06-21 17:08:00,
2013-06-21 12:09:00,91.7,64.0,30.12,East,90,1.6,4.3,40,0.00,,---,0.00,VWS V14.01,2013-06-21 17:09:00,
2013-06-21 12:10:00,91.9,64.2,30.12,East,90,4.0,4.9,40,0.00,,---,0.00,VWS V14.01,2013-06-21 17:10:00,
2013-06-21 12:11:00,91.9,64.2,30.12,South,180,5.4,9.6,40,0.00,,---,0.00,VWS V14.01,2013-06-21 17:11:00,
2013-06-21 12:12:00,91.7,64.7,30.12,South,180,5.4,8.5,41,0.00,,---,0.00,VWS V14.01,2013-06-21 17:12:00,
2013-06-21 12:13:00,91.7,64.0,30.12,SE,135,5.4,7.2,40,0.00,,---,0.00,VWS V14.01,2013-06-21 17:13:00,
2013-06-21 12:14:00,91.7,64.0,30.12,SW,225,6.9,8.5,40,0.00,,---,0.00,VWS V14.01,2013-06-21 17:14:00,
2013-06-21 12:15:00,91.9,64.9,30.12,ENE,68,4.3,6.9,41,0.00,,---,0.00,VWS V14.01,2013-06-21 17:15:00,
2013-06-21 12:16:00,91.9,64.9,30.06,ESE,112,4.0,4.3,41,0.00,,---,0.00,VWS V14.01,2013-06-21 17:16:00,
2013-06-21 12:17:00,91.9,64.2,30.06,ESE,112,12.3,12.3,40,0.00,,---,0.00,VWS V14.01,2013-06-21 17:17:00,
2013-06-21 12:18:00,91.9,64.2,30.06,East,90,3.8,12.3,40,0.00,,---,0.00,VWS V14.01,2013-06-21 17:18:00,
2013-06-21 12:19:00,92.2,64.5,30.06,SSW,202,3.1,3.1,40,0.00,,---,0.00,VWS V14.01,2013-06-21 17:19:00,
2013-06-21 12:20:00,92.6,64.8,30.06,SE,135,2.9,5.8,40,0.00,,---,0.00,VWS V14.01,2013-06-21 17:20:00,
2013-06-21 12:21:00,92.6,64.1,30.06,South,180,4.9,11.0,39,0.00,,---,0.00,VWS V14.01,2013-06-21 17:21:00,
2013-06-21 12:22:00,92.8,64.2,30.06,South,180,2.7,4.9,39,0.00,,---,0.00,VWS V14.01,2013-06-21 17:22:00,
2013-06-21 12:23:00,93.0,64.4,30.06,SW,225,6.9,6.9,39,0.00,,---,0.00,VWS V14.01,2013-06-21 17:23:00,
2013-06-21 12:24:00,92.8,64.2,30.06,South,180,6.5,6.9,39,0.00,,---,0.00,VWS V14.01,2013-06-21 17:24:00,
2013-06-21 12:25:00,93.0,64.4,30.06,South,180,9.6,9.6,39,0.00,,---,0.00,VWS V14.01,2013-06-21 17:25:00,
2013-06-21 12:26:00,92.4,63.2,30.06,South,180,6.0,11.4,38,0.00,,---,0.00,VWS V14.01,2013-06-21 17:26:00,
2013-06-21 12:27:00,92.1,63.6,30.06,SW,225,4.0,7.8,39,0.00,,---,0.00,VWS V14.01,2013-06-21 17:27:00,
2013-06-21 12:28:00,92.4,63.9,30.06,East,90,3.8,3.8,39,0.00,,---,0.00,VWS V14.01,2013-06-21 17:28:00,
2013-06-21 12:29:00,92.6,64.1,30.06,SE,135,8.7,8.7,39,0.00,,---,0.00,VWS V14.01,2013-06-21 17:29:00,
2013-06-21 12:30:00,92.6,63.3,30.06,SSE,158,8.5,8.5,38,0.00,,---,0.00,VWS V14.01,2013-06-21 17:30:00,
2013-06-21 12:31:00,92.8,63.5,30.06,South,180,4.9,8.5,38,0.00,,---,0.00,VWS V14.01,2013-06-21 17:31:00,
2013-06-21 12:32:00,92.8,63.5,30.06,South,180,4.3,6.9,38,0.00,,---,0.00,VWS V14.01,2013-06-21 17:32:00,
2013-06-21 12:34:00,93.1,64.5,30.06,South,180,2.7,3.8,39,0.00,,---,0.00,VWS V14.01,2013-06-21 17:34:00,
2013-06-21 12:35:00,92.8,64.2,30.06,SE,135,4.9,4.9,39,0.00,,---,0.00,VWS V14.01,2013-06-21 17:35:00,
2013-06-21 12:36:00,92.8,63.5,30.06,SE,135,4.0,4.9,38,0.00,,---,0.00,VWS V14.01,2013-06-21 17:36:00,
2013-06-21 12:37:00,92.8,63.5,30.06,SW,225,5.6,5.6,38,0.00,,---,0.00,VWS V14.01,2013-06-21 17:37:00,
2013-06-21 12:38:00,92.8,63.5,30.06,South,180,3.8,5.8,38,0.00,,---,0.00,VWS V14.01,2013-06-21 17:38:00,
2013-06-21 12:39:00,92.6,63.3,30.06,SSW,202,10.3,10.3,38,0.00,,---,0.00,VWS V14.01,2013-06-21 17:39:00,
2013-06-21 12:40:00,92.4,63.2,30.06,SSW,202,7.8,17.0,38,0.00,,---,0.00,VWS V14.01,2013-06-21 17:40:00,
2013-06-21 12:41:00,92.4,63.2,30.06,SSW,202,6.5,7.8,38,0.00,,---,0.00,VWS V14.01,2013-06-21 17:41:00,
2013-06-21 12:42:00,92.1,62.8,30.06,SSW,202,10.1,12.5,38,0.00,,---,0.00,VWS V14.01,2013-06-21 17:42:00,
2013-06-21 12:43:00,92.1,62.8,30.06,SW,225,6.5,15.2,38,0.00,,---,0.00,VWS V14.01,2013-06-21 17:43:00,
2013-06-21 12:44:00,91.9,62.7,30.06,SSW,202,5.6,10.3,38,0.00,,---,0.00,VWS V14.01,2013-06-21 17:44:00,
2013-06-21 12:45:00,92.1,62.8,30.06,East,90,3.1,5.8,38,0.00,,---,0.00,VWS V14.01,2013-06-21 17:45:00,
2013-06-21 12:46:00,92.4,63.2,30.06,ESE,112,3.6,9.8,38,0.00,,---,0.00,VWS V14.01,2013-06-21 17:46:00,
2013-06-21 12:47:00,92.8,63.5,30.06,East,90,4.0,4.0,38,0.00,,---,0.00,VWS V14.01,2013-06-21 17:47:00,
2013-06-21 12:48:00,93.0,64.4,30.06,South,180,6.0,6.0,39,0.00,,---,0.00,VWS V14.01,2013-06-21 17:48:00,
2013-06-21 12:49:00,93.0,64.4,30.06,NE,45,3.8,6.0,39,0.00,,---,0.00,VWS V14.01,2013-06-21 17:49:00,
2013-06-21 12:50:00,93.0,63.6,30.06,South,180,8.1,9.6,38,0.00,,---,0.00,VWS V14.01,2013-06-21 17:50:00,
2013-06-21 12:51:00,93.0,63.6,30.06,SSW,202,8.1,8.7,38,0.00,,---,0.00,VWS V14.01,2013-06-21 17:51:00,
2013-06-21 12:52:00,93.0,63.6,30.06,SSW,202,5.4,11.0,38,0.00,,---,0.00,VWS V14.01,2013-06-21 17:52:00,
2013-06-21 12:53:00,92.4,63.2,30.06,East,90,6.0,6.3,38,0.00,,---,0.00,VWS V14.01,2013-06-21 17:53:00,
2013-06-21 12:54:00,92.4,63.2,30.06,SSW,202,4.7,6.0,38,0.00,,---,0.00,VWS V14.01,2013-06-21 17:54:00,
2013-06-21 12:55:00,92.6,64.1,30.06,SE,135,3.1,4.7,39,0.00,,---,0.00,VWS V14.01,2013-06-21 17:55:00,
2013-06-21 12:56:00,93.0,64.4,30.06,ESE,112,8.5,10.1,39,0.00,,---,0.00,VWS V14.01,2013-06-21 17:56:00,
2013-06-21 12:57:00,92.6,63.3,30.06,ESE,112,9.6,9.8,38,0.00,,---,0.00,VWS V14.01,2013-06-21 17:57:00,
2013-06-21 12:58:00,93.1,63.8,30.06,NNW,338,4.0,9.6,38,0.00,,---,0.00,VWS V14.01,2013-06-21 17:58:00,
2013-06-21 12:59:00,93.5,64.1,30.06,NE,45,1.3,4.0,38,0.00,,---,0.00,VWS V14.01,2013-06-21 17:59:00,
2013-06-21 13:00:00,93.5,64.1,30.06,South,180,8.5,8.5,38,0.00,,---,0.00,VWS V14.01,2013-06-21 18:00:00,
2013-06-21 13:01:00,93.5,64.1,30.06,ESE,112,7.8,8.5,38,0.00,,---,0.00,VWS V14.01,2013-06-21 18:01:00,
2013-06-21 13:02:00,93.5,64.1,30.06,SE,135,9.8,9.8,38,0.00,,---,0.00,VWS V14.01,2013-06-21 18:02:00,
2013-06-21 13:03:00,93.3,63.9,30.06,East,90,6.5,9.8,38,0.00,,---,0.00,VWS V14.01,2013-06-21 18:03:00,
2013-06-21 13:04:00,93.5,64.1,30.06,SSE,158,3.8,6.5,38,0.00,,---,0.00,VWS V14.01,2013-06-21 18:04:00,
2013-06-21 13:05:00,93.5,64.1,30.06,NNE,22,6.3,6.3,38,0.00,,---,0.00,VWS V14.01,2013-06-21 18:05:00,
2013-06-21 13:06:00,93.3,63.2,30.06,South,180,8.1,8.7,37,0.00,,---,0.00,VWS V14.01,2013-06-21 18:06:00,
2013-06-21 13:07:00,93.1,63.0,30.06,SW,225,4.3,12.1,37,0.00,,---,0.00,VWS V14.01,2013-06-21 18:07:00,
2013-06-21 13:08:00,93.3,63.2,30.06,South,180,3.8,4.3,37,0.00,,---,0.00,VWS V14.01,2013-06-21 18:08:00,
2013-06-21 13:09:00,93.3,63.2,30.06,South,180,5.4,6.3,37,0.00,,---,0.00,VWS V14.01,2013-06-21 18:09:00,
2013-06-21 13:10:00,93.5,63.3,30.06,SSW,202,4.0,6.3,37,0.00,,---,0.00,VWS V14.01,2013-06-21 18:10:00,
2013-06-21 13:11:00,93.0,62.9,30.06,NW,315,4.0,14.8,37,0.00,,---,0.00,VWS V14.01,2013-06-21 18:11:00,
2013-06-21 13:12:00,93.3,63.2,30.06,SE,135,4.7,4.7,37,0.00,,---,0.00,VWS V14.01,2013-06-21 18:12:00,
2013-06-21 13:13:00,93.1,63.0,30.06,ESE,112,7.4,9.6,37,0.00,,---,0.00,VWS V14.01,2013-06-21 18:13:00,
2013-06-21 13:14:00,93.3,63.2,30.06,SE,135,7.4,9.4,37,0.00,,---,0.00,VWS V14.01,2013-06-21 18:14:00,
2013-06-21 13:15:00,93.3,62.4,30.06,ESE,112,4.9,10.3,36,0.00,,---,0.00,VWS V14.01,2013-06-21 18:15:00,
2013-06-21 13:16:00,93.5,63.3,30.06,South,180,4.0,5.6,37,0.00,,---,0.00,VWS V14.01,2013-06-21 18:16:00,
2013-06-21 13:17:00,93.7,63.5,30.06,South,180,2.9,4.0,37,0.00,,---,0.00,VWS V14.01,2013-06-21 18:17:00,
2013-06-21 13:18:00,93.7,63.5,30.06,SSE,158,4.9,4.9,37,0.00,,---,0.00,VWS V14.01,2013-06-21 18:18:00,
2013-06-21 13:19:00,94.0,63.8,30.06,SE,135,3.4,5.4,37,0.00,,---,0.00,VWS V14.01,2013-06-21 18:19:00,
2013-06-21 13:20:00,94.0,63.0,30.06,SE,135,7.4,7.4,36,0.00,,---,0.00,VWS V14.01,2013-06-21 18:20:00,
2013-06-21 13:21:00,94.0,63.8,30.06,North,0,2.9,7.4,37,0.00,,---,0.00,VWS V14.01,2013-06-21 18:21:00,
2013-06-21 13:22:00,94.2,64.0,30.06,East,90,2.5,6.5,37,0.00,,---,0.00,VWS V14.01,2013-06-21 18:22:00,
2013-06-21 13:23:00,94.0,63.8,30.06,SSW,202,5.8,7.8,37,0.00,,---,0.00,VWS V14.01,2013-06-21 18:23:00,
2013-06-21 13:24:00,93.7,63.5,30.06,South,180,9.8,12.5,37,0.00,,---,0.00,VWS V14.01,2013-06-21 18:24:00,
2013-06-21 13:25:00,93.7,63.5,30.06,South,180,10.5,10.5,37,0.00,,---,0.00,VWS V14.01,2013-06-21 18:25:00,
2013-06-21 13:26:00,93.5,63.3,30.06,South,180,7.6,10.7,37,0.00,,---,0.00,VWS V14.01,2013-06-21 18:26:00,
2013-06-21 13:27:00,93.5,63.3,30.06,SSE,158,13.2,13.2,37,0.00,,---,0.00,VWS V14.01,2013-06-21 18:27:00,
2013-06-21 13:28:00,93.3,62.4,30.06,South,180,12.8,13.2,36,0.00,,---,0.00,VWS V14.01,2013-06-21 18:28:00,
2013-06-21 13:29:00,93.3,62.4,30.06,NNE,22,2.7,12.8,36,0.00,,---,0.00,VWS V14.01,2013-06-21 18:29:00,
2013-06-21 13:30:00,94.0,63.0,30.06,SE,135,7.2,7.2,36,0.00,,---,0.00,VWS V14.01,2013-06-21 18:30:00,
2013-06-21 13:31:00,93.8,62.9,30.06,South,180,6.5,7.2,36,0.00,,---,0.00,VWS V14.01,2013-06-21 18:31:00,
2013-06-21 13:32:00,94.0,63.0,30.06,ESE,112,4.0,8.1,36,0.00,,---,0.00,VWS V14.01,2013-06-21 18:32:00,
2013-06-21 13:33:00,94.0,63.0,30.06,ENE,68,4.9,10.7,36,0.00,,---,0.00,VWS V14.01,2013-06-21 18:33:00,
2013-06-21 13:34:00,94.2,64.0,30.06,South,180,8.1,8.1,37,0.00,,---,0.00,VWS V14.01,2013-06-21 18:34:00,
2013-06-21 13:35:00,94.4,64.1,30.06,East,90,2.9,8.1,37,0.00,,---,0.00,VWS V14.01,2013-06-21 18:35:00,
2013-06-21 13:36:00,94.0,63.0,30.06,SE,135,3.6,7.4,36,0.00,,---,0.00,VWS V14.01,2013-06-21 18:36:00,
2013-06-21 13:37:00,94.0,63.8,30.06,SSE,158,2.9,5.4,37,0.00,,---,0.00,VWS V14.01,2013-06-21 18:37:00,
2013-06-21 13:38:00,94.4,63.3,30.06,SE,135,3.1,4.0,36,0.00,,---,0.00,VWS V14.01,2013-06-21 18:38:00,
2013-06-21 13:39:00,94.6,63.5,30.06,South,180,6.5,6.5,36,0.00,,---,0.00,VWS V14.01,2013-06-21 18:39:00,
2013-06-21 13:40:00,94.4,63.3,30.06,South,180,6.3,9.8,36,0.00,,---,0.00,VWS V14.01,2013-06-21 18:40:00,
2013-06-21 13:41:00,94.4,63.3,30.06,SE,135,3.8,6.5,36,0.00,,---,0.00,VWS V14.01,2013-06-21 18:41:00,
2013-06-21 13:42:00,94.2,63.2,30.06,South,180,4.7,12.8,36,0.00,,---,0.00,VWS V14.01,2013-06-21 18:42:00,
2013-06-21 13:43:00,93.8,62.9,30.06,ESE,112,11.0,11.0,36,0.00,,---,0.00,VWS V14.01,2013-06-21 18:43:00,
2013-06-21 13:44:00,93.8,62.9,30.06,South,180,9.8,11.0,36,0.00,,---,0.00,VWS V14.01,2013-06-21 18:44:00,
2013-06-21 13:45:00,94.0,63.0,30.06,ESE,112,10.7,10.7,36,0.00,,---,0.00,VWS V14.01,2013-06-21 18:45:00,
2013-06-21 13:46:00,93.7,62.7,30.06,South,180,4.9,10.7,36,0.00,,---,0.00,VWS V14.01,2013-06-21 18:46:00,
2013-06-21 13:47:00,94.0,63.0,30.03,SSE,158,3.8,4.9,36,0.00,,---,0.00,VWS V14.01,2013-06-21 18:47:00,
2013-06-21 13:48:00,94.4,63.3,30.03,ESE,112,3.6,5.4,36,0.00,,---,0.00,VWS V14.01,2013-06-21 18:48:00,
2013-06-21 13:49:00,94.4,63.3,30.03,ESE,112,8.7,8.7,36,0.00,,---,0.00,VWS V14.01,2013-06-21 18:49:00,
2013-06-21 13:50:00,94.4,62.5,30.03,ENE,68,6.5,8.7,35,0.00,,---,0.00,VWS V14.01,2013-06-21 18:50:00,
2013-06-21 13:51:00,94.4,63.3,30.03,SSW,202,3.8,8.1,36,0.00,,---,0.00,VWS V14.01,2013-06-21 18:51:00,
2013-06-21 13:52:00,94.6,63.5,30.03,South,180,12.3,12.3,36,0.00,,---,0.00,VWS V14.01,2013-06-21 18:52:00,
2013-06-21 13:53:00,94.6,63.5,30.03,East,90,3.4,12.3,36,0.00,,---,0.00,VWS V14.01,2013-06-21 18:53:00,
2013-06-21 13:54:00,94.6,63.5,30.03,South,180,3.4,8.7,36,0.00,,---,0.00,VWS V14.01,2013-06-21 18:54:00,
2013-06-21 13:55:00,94.4,63.3,30.03,South,180,16.6,16.6,36,0.00,,---,0.00,VWS V14.01,2013-06-21 18:55:00,
2013-06-21 13:56:00,93.8,62.9,30.03,SE,135,9.0,16.6,36,0.00,,---,0.00,VWS V14.01,2013-06-21 18:56:00,
2013-06-21 13:57:00,93.7,62.7,30.03,SSW,202,12.1,13.0,36,0.00,,---,0.00,VWS V14.01,2013-06-21 18:57:00,
2013-06-21 13:58:00,93.5,61.8,30.03,SSW,202,7.8,14.8,35,0.00,,---,0.00,VWS V14.01,2013-06-21 18:58:00,
2013-06-21 13:59:00,93.1,61.5,30.03,South,180,7.8,8.1,35,0.00,,---,0.00,VWS V14.01,2013-06-21 18:59:00,
2013-06-21 14:00:00,93.1,61.5,30.03,SSW,202,2.9,4.3,35,0.00,,---,0.00,VWS V14.01,2013-06-21 19:00:00,
2013-06-21 14:01:00,93.8,62.1,30.06,SSE,158,5.6,5.6,35,0.00,,---,0.00,VWS V14.01,2013-06-21 19:01:00,
2013-06-21 14:02:00,94.0,62.2,30.06,SSE,158,2.5,5.6,35,0.00,,---,0.00,VWS V14.01,2013-06-21 19:02:00,
2013-06-21 14:03:00,94.0,62.2,30.06,SE,135,3.8,3.8,35,0.00,,---,0.00,VWS V14.01,2013-06-21 19:03:00,
2013-06-21 14:04:00,94.4,62.5,30.06,SW,225,6.0,6.0,35,0.00,,---,0.00,VWS V14.01,2013-06-21 19:04:00,
2013-06-21 14:05:00,94.6,62.7,30.06,SSW,202,4.0,5.8,35,0.00,,---,0.00,VWS V14.01,2013-06-21 19:05:00,
2013-06-21 14:06:00,94.7,63.7,30.06,SE,135,2.7,5.8,36,0.00,,---,0.00,VWS V14.01,2013-06-21 19:06:00,
2013-06-21 14:07:00,94.9,63.0,30.06,SSW,202,5.6,6.3,35,0.00,,---,0.00,VWS V14.01,2013-06-21 19:07:00,
2013-06-21 14:08:00,95.3,64.1,30.06,ESE,112,9.2,9.2,36,0.00,,---,0.00,VWS V14.01,2013-06-21 19:08:00,
2013-06-21 14:09:00,95.1,63.2,30.06,SSW,202,3.4,10.1,35,0.00,,---,0.00,VWS V14.01,2013-06-21 19:09:00,
2013-06-21 14:10:00,95.1,63.2,30.06,SSW,202,5.8,8.5,35,0.00,,---,0.00,VWS V14.01,2013-06-21 19:10:00,
2013-06-21 14:11:00,95.1,63.2,30.06,SSE,158,6.9,6.9,35,0.00,,---,0.00,VWS V14.01,2013-06-21 19:11:00,
2013-06-21 14:12:00,95.1,63.2,30.06,South,180,2.9,9.4,35,0.00,,---,0.00,VWS V14.01,2013-06-21 19:12:00,
2013-06-21 14:13:00,95.1,63.2,30.06,SE,135,5.8,8.7,35,0.00,,---,0.00,VWS V14.01,2013-06-21 19:13:00,
2013-06-21 14:14:00,95.3,63.3,30.06,South,180,5.8,5.8,35,0.00,,---,0.00,VWS V14.01,2013-06-21 19:14:00,
2013-06-21 14:15:00,95.4,63.5,30.06,SW,225,5.4,5.8,35,0.00,,---,0.00,VWS V14.01,2013-06-21 19:15:00,
2013-06-21 14:16:00,95.6,63.6,30.06,South,180,5.4,6.0,35,0.00,,---,0.00,VWS V14.01,2013-06-21 19:16:00,
2013-06-21 14:17:00,95.4,62.6,30.06,SSW,202,8.5,9.6,34,0.00,,---,0.00,VWS V14.01,2013-06-21 19:17:00,
2013-06-21 14:18:00,95.4,62.6,30.06,South,180,9.4,9.4,34,0.00,,---,0.00,VWS V14.01,2013-06-21 19:18:00,
2013-06-21 14:19:00,95.1,62.3,30.06,South,180,8.5,10.3,34,0.00,,---,0.00,VWS V14.01,2013-06-21 19:19:00,
2013-06-21 14:20:00,94.9,62.2,30.06,South,180,5.6,8.5,34,0.00,,---,0.00,VWS V14.01,2013-06-21 19:20:00,
2013-06-21 14:21:00,94.9,62.2,30.06,NNW,338,2.5,8.1,34,0.00,,---,0.00,VWS V14.01,2013-06-21 19:21:00,
2013-06-21 14:22:00,94.9,62.2,30.06,East,90,6.0,8.7,34,0.00,,---,0.00,VWS V14.01,2013-06-21 19:22:00,
2013-06-21 14:23:00,94.9,62.2,30.06,East,90,4.9,7.2,34,0.00,,---,0.00,VWS V14.01,2013-06-21 19:23:00,
2013-06-21 14:24:00,95.1,62.3,30.06,SSE,158,3.8,6.0,34,0.00,,---,0.00,VWS V14.01,2013-06-21 19:24:00,
2013-06-21 14:25:00,95.4,62.6,30.06,South,180,2.5,8.1,34,0.00,,---,0.00,VWS V14.01,2013-06-21 19:25:00,
2013-06-21 14:26:00,95.6,62.8,30.06,South,180,4.0,4.0,34,0.00,,---,0.00,VWS V14.01,2013-06-21 19:26:00,
2013-06-21 14:27:00,95.8,63.0,30.06,SSE,158,9.6,9.6,34,0.00,,---,0.00,VWS V14.01,2013-06-21 19:27:00,
2013-06-21 14:28:00,95.3,61.6,30.06,South,180,9.8,10.1,33,0.00,,---,0.00,VWS V14.01,2013-06-21 19:28:00,
2013-06-21 14:29:00,94.9,61.3,30.06,SSW,202,14.8,14.8,33,0.00,,---,0.00,VWS V14.01,2013-06-21 19:29:00,
2013-06-21 14:30:00,94.6,61.0,30.06,South,180,6.3,10.7,33,0.00,,---,0.00,VWS V14.01,2013-06-21 19:30:00,
2013-06-21 14:31:00,94.2,60.7,30.06,SSE,158,10.5,13.0,33,0.00,,---,0.00,VWS V14.01,2013-06-21 19:31:00,
2013-06-21 14:32:00,94.2,60.7,30.06,SE,135,7.8,10.5,33,0.00,,---,0.00,VWS V14.01,2013-06-21 19:32:00,
2013-06-21 14:33:00,94.2,60.7,30.06,SSW,202,4.9,10.5,33,0.00,,---,0.00,VWS V14.01,2013-06-21 19:33:00,
2013-06-21 14:34:00,94.4,60.9,30.06,ESE,112,2.9,6.3,33,0.00,,---,0.00,VWS V14.01,2013-06-21 19:34:00,
2013-06-21 14:35:00,94.6,61.0,30.06,ESE,112,3.8,7.2,33,0.00,,---,0.00,VWS V14.01,2013-06-21 19:35:00,
2013-06-21 14:36:00,95.3,62.5,30.06,SSE,158,3.4,4.3,34,0.00,,---,0.00,VWS V14.01,2013-06-21 19:36:00,
2013-06-21 14:37:00,95.1,61.5,30.06,SW,225,3.8,9.4,33,0.00,,---,0.00,VWS V14.01,2013-06-21 19:37:00,
2013-06-21 14:38:00,95.1,61.5,30.06,South,180,12.1,12.1,33,0.00,,---,0.00,VWS V14.01,2013-06-21 19:38:00,
2013-06-21 14:39:00,94.7,61.2,30.06,East,90,6.3,12.8,33,0.00,,---,0.00,VWS V14.01,2013-06-21 19:39:00,
2013-06-21 14:40:00,94.6,61.0,30.06,SW,225,4.9,6.3,33,0.00,,---,0.00,VWS V14.01,2013-06-21 19:40:00,
2013-06-21 14:41:00,94.9,61.3,30.06,SE,135,6.0,6.0,33,0.00,,---,0.00,VWS V14.01,2013-06-21 19:41:00,
2013-06-21 14:42:00,94.9,61.3,30.06,SSW,202,12.8,13.0,33,0.00,,---,0.00,VWS V14.01,2013-06-21 19:42:00,
2013-06-21 14:43:00,94.6,61.0,30.06,SE,135,10.1,14.3,33,0.00,,---,0.00,VWS V14.01,2013-06-21 19:43:00,
2013-06-21 14:44:00,94.7,62.0,30.06,South,180,8.1,10.3,34,0.00,,---,0.00,VWS V14.01,2013-06-21 19:44:00,
2013-06-21 14:45:00,94.6,61.0,30.06,South,180,14.3,14.3,33,0.00,,---,0.00,VWS V14.01,2013-06-21 19:45:00,
2013-06-21 14:46:00,94.7,61.2,30.06,SSW,202,6.7,14.3,33,0.00,,---,0.00,VWS V14.01,2013-06-21 19:46:00,
2013-06-21 14:47:00,94.6,61.9,30.06,ESE,112,2.7,8.1,34,0.00,,---,0.00,VWS V14.01,2013-06-21 19:47:00,
2013-06-21 14:48:00,94.9,62.2,30.06,SSW,202,3.1,8.1,34,0.00,,---,0.00,VWS V14.01,2013-06-21 19:48:00,
2013-06-21 14:49:00,94.9,62.2,30.06,SSW,202,12.1,22.6,34,0.00,,---,0.00,VWS V14.01,2013-06-21 19:49:00,
2013-06-21 14:50:00,94.7,61.2,30.06,SSE,158,8.1,12.1,33,0.00,,---,0.00,VWS V14.01,2013-06-21 19:50:00,
2013-06-21 14:51:00,94.4,60.9,30.06,South,180,9.8,10.5,33,0.00,,---,0.00,VWS V14.01,2013-06-21 19:51:00,
2013-06-21 14:52:00,94.6,61.0,30.06,SSW,202,3.8,9.8,33,0.00,,---,0.00,VWS V14.01,2013-06-21 19:52:00,
2013-06-21 14:53:00,94.7,61.2,30.06,East,90,8.1,8.1,33,0.00,,---,0.00,VWS V14.01,2013-06-21 19:53:00,
2013-06-21 14:54:00,94.7,61.2,30.06,SE,135,3.1,14.1,33,0.00,,---,0.00,VWS V14.01,2013-06-21 19:54:00,
2013-06-21 14:55:00,95.1,62.3,30.06,South,180,14.5,14.5,34,0.00,,---,0.00,VWS V14.01,2013-06-21 19:55:00,
2013-06-21 14:56:00,95.1,62.3,30.06,SW,225,3.1,14.5,34,0.00,,---,0.00,VWS V14.01,2013-06-21 19:56:00,
2013-06-21 14:57:00,95.3,62.5,30.06,SW,225,3.1,6.0,34,0.00,,---,0.00,VWS V14.01,2013-06-21 19:57:00,
2013-06-21 14:58:00,95.4,62.6,30.06,SSW,202,7.6,7.6,34,0.00,,---,0.00,VWS V14.01,2013-06-21 19:58:00,
2013-06-21 14:59:00,95.4,61.8,30.06,SSW,202,9.6,11.4,33,0.00,,---,0.00,VWS V14.01,2013-06-21 19:59:00,
2013-06-21 15:00:00,95.4,61.8,30.06,SSW,202,4.0,9.6,33,0.00,,---,0.00,VWS V14.01,2013-06-21 20:00:00,
2013-06-21 15:01:00,95.4,61.8,30.06,SSE,158,10.5,10.5,33,0.00,,---,0.00,VWS V14.01,2013-06-21 20:01:00,
2013-06-21 15:02:00,95.6,61.1,30.06,SE,135,6.0,10.5,32,0.00,,---,0.00,VWS V14.01,2013-06-21 20:02:00,
2013-06-21 15:03:00,95.6,61.1,30.06,WSW,248,3.1,3.1,32,0.00,,---,0.00,VWS V14.01,2013-06-21 20:03:00,
2013-06-21 15:04:00,96.0,61.4,30.06,ESE,112,3.1,4.3,32,0.00,,---,0.00,VWS V14.01,2013-06-21 20:04:00,
2013-06-21 15:05:00,96.0,61.4,30.06,South,180,3.6,4.3,32,0.00,,---,0.00,VWS V14.01,2013-06-21 20:05:00,
2013-06-21 15:06:00,96.3,61.7,30.06,SSW,202,2.9,6.5,32,0.00,,---,0.00,VWS V14.01,2013-06-21 20:06:00,
2013-06-21 15:07:00,96.2,61.5,30.06,South,180,3.4,3.4,32,0.00,,---,0.00,VWS V14.01,2013-06-21 20:07:00,
2013-06-21 15:08:00,96.2,61.5,30.06,SSW,202,2.7,5.6,32,0.00,,---,0.00,VWS V14.01,2013-06-21 20:08:00,
2013-06-21 15:09:00,96.0,61.4,30.06,SW,225,10.5,10.5,32,0.00,,---,0.00,VWS V14.01,2013-06-21 20:09:00,
2013-06-21 15:10:00,95.8,61.2,30.06,SSE,158,4.9,10.5,32,0.00,,---,0.00,VWS V14.01,2013-06-21 20:10:00,
2013-06-21 15:11:00,95.8,62.1,30.06,South,180,4.7,6.3,33,0.00,,---,0.00,VWS V14.01,2013-06-21 20:11:00,
2013-06-21 15:12:00,95.8,62.1,30.06,East,90,2.9,4.7,33,0.00,,---,0.00,VWS V14.01,2013-06-21 20:12:00,
2013-06-21 15:13:00,96.0,62.3,30.06,ENE,68,5.8,7.6,33,0.00,,---,0.00,VWS V14.01,2013-06-21 20:13:00,
2013-06-21 15:14:00,96.0,62.3,30.06,ESE,112,4.0,12.8,33,0.00,,---,0.00,VWS V14.01,2013-06-21 20:14:00,
2013-06-21 15:15:00,96.2,62.4,30.06,South,180,2.9,5.4,33,0.00,,---,0.00,VWS V14.01,2013-06-21 20:15:00,
2013-06-21 15:16:00,96.2,62.4,30.06,WSW,248,2.7,3.6,33,0.00,,---,0.00,VWS V14.01,2013-06-21 20:16:00,
2013-06-21 15:17:00,96.2,62.4,30.06,SE,135,2.2,5.4,33,0.00,,---,0.00,VWS V14.01,2013-06-21 20:17:00,
2013-06-21 15:18:00,96.2,62.4,30.06,SE,135,1.3,3.8,33,0.00,,---,0.00,VWS V14.01,2013-06-21 20:18:00,
2013-06-21 15:19:00,96.2,62.4,30.06,SSW,202,5.8,5.8,33,0.00,,---,0.00,VWS V14.01,2013-06-21 20:19:00,
2013-06-21 15:20:00,96.0,62.3,30.06,South,180,3.6,5.8,33,0.00,,---,0.00,VWS V14.01,2013-06-21 20:20:00,
2013-06-21 15:21:00,95.8,61.2,30.06,East,90,3.1,9.8,32,0.00,,---,0.00,VWS V14.01,2013-06-21 20:21:00,
2013-06-21 15:22:00,96.0,61.4,30.06,SW,225,4.9,9.4,32,0.00,,---,0.00,VWS V14.01,2013-06-21 20:22:00,
2013-06-21 15:23:00,96.0,60.5,30.06,South,180,10.7,10.7,31,0.00,,---,0.00,VWS V14.01,2013-06-21 20:23:00,
2013-06-21 15:24:00,95.8,60.3,30.06,SSW,202,6.0,10.7,31,0.00,,---,0.00,VWS V14.01,2013-06-21 20:24:00,
2013-06-21 15:25:00,95.6,61.1,30.06,South,180,4.9,6.5,32,0.00,,---,0.00,VWS V14.01,2013-06-21 20:25:00,
2013-06-21 15:26:00,95.8,60.3,30.06,ESE,112,3.6,4.9,31,0.00,,---,0.00,VWS V14.01,2013-06-21 20:26:00,
2013-06-21 15:27:00,95.8,60.3,30.06,East,90,2.7,8.1,31,0.00,,---,0.00,VWS V14.01,2013-06-21 20:27:00,
2013-06-21 15:28:00,96.0,61.4,30.06,SW,225,7.6,7.8,32,0.00,,---,0.00,VWS V14.01,2013-06-21 20:28:00,
2013-06-21 15:29:00,95.8,60.3,30.06,SSW,202,6.5,7.6,31,0.00,,---,0.00,VWS V14.01,2013-06-21 20:29:00,
2013-06-21 15:30:00,95.6,61.1,30.06,NNE,22,8.1,8.1,32,0.00,,---,0.00,VWS V14.01,2013-06-21 20:30:00,
2013-06-21 15:31:00,95.6,60.2,30.03,SSE,158,6.5,8.1,31,0.00,,---,0.00,VWS V14.01,2013-06-21 20:31:00,
2013-06-21 15:32:00,95.6,60.2,30.03,SSW,202,8.5,8.5,31,0.00,,---,0.00,VWS V14.01,2013-06-21 20:32:00,
2013-06-21 15:33:00,95.6,61.1,30.03,South,180,3.6,8.5,32,0.00,,---,0.00,VWS V14.01,2013-06-21 20:33:00,
2013-06-21 15:34:00,95.6,61.1,30.03,South,180,2.0,7.2,32,0.00,,---,0.00,VWS V14.01,2013-06-21 20:34:00,
2013-06-21 15:35:00,96.0,61.4,30.03,SSW,202,7.2,7.2,32,0.00,,---,0.00,VWS V14.01,2013-06-21 20:35:00,
2013-06-21 15:36:00,95.6,61.1,30.03,SSE,158,5.6,7.2,32,0.00,,---,0.00,VWS V14.01,2013-06-21 20:36:00,
2013-06-21 15:37:00,94.9,60.5,30.03,South,180,3.8,11.0,32,0.00,,---,0.00,VWS V14.01,2013-06-21 20:37:00,
2013-06-21 15:38:00,94.9,60.5,30.03,South,180,4.9,6.0,32,0.00,,---,0.00,VWS V14.01,2013-06-21 20:38:00,
2013-06-21 15:39:00,94.9,60.5,30.03,SE,135,7.8,15.2,32,0.00,,---,0.00,VWS V14.01,2013-06-21 20:39:00,
2013-06-21 15:40:00,94.9,60.5,30.03,South,180,7.6,7.8,32,0.00,,---,0.00,VWS V14.01,2013-06-21 20:40:00,
2013-06-21 15:41:00,94.4,59.1,30.03,South,180,3.6,7.8,31,0.00,,---,0.00,VWS V14.01,2013-06-21 20:41:00,
2013-06-21 15:42:00,94.6,59.3,30.03,NE,45,2.2,6.5,31,0.00,,---,0.00,VWS V14.01,2013-06-21 20:42:00,
2013-06-21 15:43:00,94.6,59.3,30.03,South,180,7.2,7.2,31,0.00,,---,0.00,VWS V14.01,2013-06-21 20:43:00,
2013-06-21 15:44:00,94.9,60.5,30.03,ENE,68,5.8,7.2,32,0.00,,---,0.00,VWS V14.01,2013-06-21 20:44:00,
2013-06-21 15:45:00,94.9,60.5,30.03,SSW,202,9.2,9.2,32,0.00,,---,0.00,VWS V14.01,2013-06-21 20:45:00,
2013-06-21 15:46:00,94.7,59.4,30.03,SSW,202,14.8,14.8,31,0.00,,---,0.00,VWS V14.01,2013-06-21 20:46:00,
2013-06-21 15:47:00,94.7,59.4,30.03,West,270,7.6,14.8,31,0.00,,---,0.00,VWS V14.01,2013-06-21 20:47:00,
2013-06-21 15:48:00,94.7,59.4,30.03,South,180,3.6,9.8,31,0.00,,---,0.00,VWS V14.01,2013-06-21 20:48:00,
2013-06-21 15:49:00,94.9,59.6,30.03,South,180,6.9,13.9,31,0.00,,---,0.00,VWS V14.01,2013-06-21 20:49:00,
2013-06-21 15:50:00,94.7,59.4,30.03,South,180,7.8,16.8,31,0.00,,---,0.00,VWS V14.01,2013-06-21 20:50:00,
2013-06-21 15:51:00,94.6,59.3,30.03,East,90,10.7,10.7,31,0.00,,---,0.00,VWS V14.01,2013-06-21 20:51:00,
2013-06-21 15:52:00,94.4,60.0,30.03,SSW,202,10.1,10.7,32,0.00,,---,0.00,VWS V14.01,2013-06-21 20:52:00,
2013-06-21 15:53:00,94.2,59.8,30.03,SSE,158,3.6,10.5,32,0.00,,---,0.00,VWS V14.01,2013-06-21 20:53:00,
2013-06-21 15:54:00,94.6,60.2,30.03,ESE,112,5.8,6.3,32,0.00,,---,0.00,VWS V14.01,2013-06-21 20:54:00,
2013-06-21 15:55:00,94.6,59.3,30.03,South,180,7.2,10.7,31,0.00,,---,0.00,VWS V14.01,2013-06-21 20:55:00,
2013-06-21 15:56:00,94.6,59.3,30.03,ESE,112,5.4,10.5,31,0.00,,---,0.00,VWS V14.01,2013-06-21 20:56:00,
2013-06-21 15:57:00,94.6,59.3,30.03,South,180,6.7,6.7,31,0.00,,---,0.00,VWS V14.01,2013-06-21 20:57:00,
2013-06-21 15:58:00,94.6,59.3,30.03,SSW,202,2.7,8.5,31,0.00,,---,0.00,VWS V14.01,2013-06-21 20:58:00,
2013-06-21 15:59:00,94.6,59.3,30.03,South,180,17.2,17.2,31,0.00,,---,0.00,VWS V14.01,2013-06-21 20:59:00,
2013-06-21 16:00:00,94.6,59.3,30.03,SSE,158,6.3,17.2,31,0.00,,---,0.00,VWS V14.01,2013-06-21 21:00:00,
2013-06-21 16:01:00,94.6,59.3,30.03,ENE,68,7.4,8.5,31,0.00,,---,0.00,VWS V14.01,2013-06-21 21:01:00,
2013-06-21 16:02:00,94.6,59.3,30.03,SSE,158,3.6,7.4,31,0.00,,---,0.00,VWS V14.01,2013-06-21 21:02:00,
2013-06-21 16:03:00,94.6,59.3,30.03,South,180,6.9,6.9,31,0.00,,---,0.00,VWS V14.01,2013-06-21 21:03:00,
2013-06-21 16:04:00,94.6,59.3,30.03,SW,225,6.5,6.9,31,0.00,,---,0.00,VWS V14.01,2013-06-21 21:04:00,
2013-06-21 16:05:00,94.6,59.3,30.03,ESE,112,4.7,6.5,31,0.00,,---,0.00,VWS V14.01,2013-06-21 21:05:00,
2013-06-21 16:06:00,94.6,59.3,30.03,South,180,13.2,13.2,31,0.00,,---,0.00,VWS V14.01,2013-06-21 21:06:00,
2013-06-21 16:07:00,94.4,59.1,30.03,ESE,112,6.5,13.2,31,0.00,,---,0.00,VWS V14.01,2013-06-21 21:07:00,
2013-06-21 16:08:00,94.2,59.0,30.03,SE,135,15.2,17.9,31,0.00,,---,0.00,VWS V14.01,2013-06-21 21:08:00,
2013-06-21 16:09:00,94.2,59.0,30.03,SSE,158,10.5,15.2,31,0.00,,---,0.00,VWS V14.01,2013-06-21 21:09:00,
2013-06-21 16:10:00,94.0,58.8,30.03,SW,225,6.0,10.5,31,0.00,,---,0.00,VWS V14.01,2013-06-21 21:10:00,
2013-06-21 16:11:00,94.2,59.0,30.03,East,90,3.6,12.1,31,0.00,,---,0.00,VWS V14.01,2013-06-21 21:11:00,
2013-06-21 16:12:00,94.4,59.1,30.03,East,90,3.4,10.1,31,0.00,,---,0.00,VWS V14.01,2013-06-21 21:12:00,
2013-06-21 16:13:00,94.6,59.3,30.03,South,180,4.5,6.5,31,0.00,,---,0.00,VWS V14.01,2013-06-21 21:13:00,
2013-06-21 16:14:00,94.7,59.4,30.03,East,90,4.9,6.5,31,0.00,,---,0.00,VWS V14.01,2013-06-21 21:14:00,
2013-06-21 16:15:00,94.7,59.4,30.03,SE,135,5.4,6.3,31,0.00,,---,0.00,VWS V14.01,2013-06-21 21:15:00,
2013-06-21 16:16:00,94.6,59.3,30.00,SE,135,8.1,8.1,31,0.00,,---,0.00,VWS V14.01,2013-06-21 21:16:00,
2013-06-21 16:17:00,94.7,59.4,30.00,SW,225,4.0,8.1,31,0.00,,---,0.00,VWS V14.01,2013-06-21 21:17:00,
2013-06-21 16:18:00,94.9,59.6,30.00,ESE,112,3.4,7.6,31,0.00,,---,0.00,VWS V14.01,2013-06-21 21:18:00,
2013-06-21 16:19:00,94.9,59.6,30.00,SE,135,6.5,6.5,31,0.00,,---,0.00,VWS V14.01,2013-06-21 21:19:00,
2013-06-21 16:20:00,95.1,60.6,30.00,SE,135,8.1,8.1,32,0.00,,---,0.00,VWS V14.01,2013-06-21 21:20:00,
2013-06-21 16:21:00,95.1,60.6,30.00,South,180,3.4,8.1,32,0.00,,---,0.00,VWS V14.01,2013-06-21 21:21:00,
2013-06-21 16:22:00,94.9,59.6,30.00,South,180,10.5,10.5,31,0.00,,---,0.00,VWS V14.01,2013-06-21 21:22:00,
2013-06-21 16:23:00,94.7,59.4,30.00,SSW,202,17.7,17.7,31,0.00,,---,0.00,VWS V14.01,2013-06-21 21:23:00,
2013-06-21 16:24:00,94.4,59.1,30.00,SSW,202,17.7,17.7,31,0.00,,---,0.00,VWS V14.01,2013-06-21 21:24:00,
2013-06-21 16:25:00,94.4,59.1,30.00,ESE,112,9.8,17.7,31,0.00,,---,0.00,VWS V14.01,2013-06-21 21:25:00,
2013-06-21 16:26:00,94.0,58.8,30.00,South,180,5.8,9.8,31,0.00,,---,0.00,VWS V14.01,2013-06-21 21:26:00,
2013-06-21 16:27:00,94.0,58.8,30.00,East,90,6.3,7.4,31,0.00,,---,0.00,VWS V14.01,2013-06-21 21:27:00,
2013-06-21 16:28:00,94.2,59.0,30.00,South,180,2.5,6.3,31,0.00,,---,0.00,VWS V14.01,2013-06-21 21:28:00,
2013-06-21 16:29:00,94.4,59.1,30.00,ESE,112,6.5,6.5,31,0.00,,---,0.00,VWS V14.01,2013-06-21 21:29:00,
2013-06-21 16:30:00,94.6,59.3,30.00,SE,135,2.0,6.5,31,0.00,,---,0.00,VWS V14.01,2013-06-21 21:30:00,
2013-06-21 16:31:00,94.6,59.3,30.00,East,90,4.9,7.6,31,0.00,,---,0.00,VWS V14.01,2013-06-21 21:31:00,
2013-06-21 16:32:00,94.7,59.4,30.00,SE,135,4.3,4.9,31,0.00,,---,0.00,VWS V14.01,2013-06-21 21:32:00,
2013-06-21 16:33:00,94.7,59.4,30.00,SSE,158,9.8,9.8,31,0.00,,---,0.00,VWS V14.01,2013-06-21 21:33:00,
2013-06-21 16:34:00,94.9,59.6,30.00,ESE,112,4.3,9.8,31,0.00,,---,0.00,VWS V14.01,2013-06-21 21:34:00,
2013-06-21 16:35:00,94.7,59.4,30.00,SSE,158,11.2,11.2,31,0.00,,---,0.00,VWS V14.01,2013-06-21 21:35:00,
2013-06-21 16:36:00,94.6,58.3,30.00,SE,135,3.1,11.2,30,0.00,,---,0.00,VWS V14.01,2013-06-21 21:36:00,
2013-06-21 16:37:00,94.6,58.3,30.00,South,180,3.8,6.0,30,0.00,,---,0.00,VWS V14.01,2013-06-21 21:37:00,
2013-06-21 16:38:00,94.6,58.3,30.00,NW,315,3.8,3.8,30,0.00,,---,0.00,VWS V14.01,2013-06-21 21:38:00,
2013-06-21 16:39:00,94.4,57.3,30.00,NE,45,13.0,18.6,29,0.00,,---,0.00,VWS V14.01,2013-06-21 21:39:00,
2013-06-21 16:40:00,94.2,57.1,30.00,SSE,158,6.3,13.0,29,0.00,,---,0.00,VWS V14.01,2013-06-21 21:40:00,
2013-06-21 16:41:00,94.2,57.1,30.00,SE,135,5.4,7.2,29,0.00,,---,0.00,VWS V14.01,2013-06-21 21:41:00,
2013-06-21 16:42:00,94.4,57.3,30.00,South,180,6.3,8.1,29,0.00,,---,0.00,VWS V14.01,2013-06-21 21:42:00,
2013-06-21 16:43:00,94.4,57.3,30.00,SW,225,3.6,7.4,29,0.00,,---,0.00,VWS V14.01,2013-06-21 21:43:00,
2013-06-21 16:44:00,94.2,57.1,30.00,East,90,4.3,8.7,29,0.00,,---,0.00,VWS V14.01,2013-06-21 21:44:00,
2013-06-21 16:45:00,94.2,57.1,30.00,SSE,158,10.5,10.5,29,0.00,,---,0.00,VWS V14.01,2013-06-21 21:45:00,
2013-06-21 16:46:00,94.0,57.0,29.97,ESE,112,4.9,10.5,29,0.00,,---,0.00,VWS V14.01,2013-06-21 21:46:00,
2013-06-21 16:47:00,94.2,57.1,29.97,ESE,112,4.3,6.0,29,0.00,,---,0.00,VWS V14.01,2013-06-21 21:47:00,
2013-06-21 16:48:00,94.2,57.1,29.97,South,180,3.8,4.3,29,0.00,,---,0.00,VWS V14.01,2013-06-21 21:48:00,
2013-06-21 16:49:00,94.2,57.1,29.97,ENE,68,5.8,6.3,29,0.00,,---,0.00,VWS V14.01,2013-06-21 21:49:00,
2013-06-21 16:50:00,94.2,57.1,29.97,South,180,8.7,8.7,29,0.00,,---,0.00,VWS V14.01,2013-06-21 21:50:00,
2013-06-21 16:51:00,94.0,57.0,29.97,South,180,8.7,8.7,29,0.00,,---,0.00,VWS V14.01,2013-06-21 21:51:00,
2013-06-21 16:52:00,93.8,56.8,29.97,SSW,202,3.1,11.0,29,0.00,,---,0.00,VWS V14.01,2013-06-21 21:52:00,
2013-06-21 16:53:00,93.7,57.6,29.97,SSW,202,3.6,8.5,30,0.00,,---,0.00,VWS V14.01,2013-06-21 21:53:00,
2013-06-21 16:54:00,93.5,57.4,29.97,South,180,6.3,10.5,30,0.00,,---,0.00,VWS V14.01,2013-06-21 21:54:00,
2013-06-21 16:55:00,93.5,57.4,29.97,East,90,12.1,12.5,30,0.00,,---,0.00,VWS V14.01,2013-06-21 21:55:00,
2013-06-21 16:56:00,93.3,57.3,29.97,SSE,158,10.7,12.1,30,0.00,,---,0.00,VWS V14.01,2013-06-21 21:56:00,
2013-06-21 16:57:00,93.3,57.3,29.97,South,180,6.0,10.7,30,0.00,,---,0.00,VWS V14.01,2013-06-21 21:57:00,
2013-06-21 16:58:00,93.3,57.3,29.97,South,180,7.8,9.6,30,0.00,,---,0.00,VWS V14.01,2013-06-21 21:58:00,
2013-06-21 16:59:00,93.3,57.3,29.97,SSE,158,7.6,7.8,30,0.00,,---,0.00,VWS V14.01,2013-06-21 21:59:00,
2013-06-21 17:00:00,93.0,57.0,29.97,SW,225,13.4,16.3,30,0.00,,---,0.00,VWS V14.01,2013-06-21 22:00:00,
2013-06-21 17:01:00,92.8,56.8,30.00,South,180,7.6,13.4,30,0.00,,---,0.00,VWS V14.01,2013-06-21 22:01:00,
2013-06-21 17:02:00,92.8,56.8,30.00,South,180,2.9,10.3,30,0.00,,---,0.00,VWS V14.01,2013-06-21 22:02:00,
2013-06-21 17:03:00,93.0,57.9,30.00,East,90,4.3,6.0,31,0.00,,---,0.00,VWS V14.01,2013-06-21 22:03:00,
2013-06-21 17:04:00,93.0,57.0,30.00,SSE,158,4.3,7.2,30,0.00,,---,0.00,VWS V14.01,2013-06-21 22:04:00,
2013-06-21 17:05:00,93.0,57.0,30.00,WSW,248,3.8,8.7,30,0.00,,---,0.00,VWS V14.01,2013-06-21 22:05:00,
2013-06-21 17:06:00,93.0,57.0,30.00,SE,135,2.7,7.2,30,0.00,,---,0.00,VWS V14.01,2013-06-21 22:06:00,
2013-06-21 17:07:00,93.0,57.0,30.00,SSW,202,7.4,7.4,30,0.00,,---,0.00,VWS V14.01,2013-06-21 22:07:00,
2013-06-21 17:08:00,92.8,56.8,30.00,South,180,3.6,12.8,30,0.00,,---,0.00,VWS V14.01,2013-06-21 22:08:00,
2013-06-21 17:09:00,92.8,56.8,30.00,SE,135,7.6,7.6,30,0.00,,---,0.00,VWS V14.01,2013-06-21 22:09:00,
2013-06-21 17:10:00,92.8,56.8,30.00,ENE,68,7.8,8.5,30,0.00,,---,0.00,VWS V14.01,2013-06-21 22:10:00,
2013-06-21 17:11:00,92.8,56.8,30.00,South,180,4.3,7.8,30,0.00,,---,0.00,VWS V14.01,2013-06-21 22:11:00,
2013-06-21 17:12:00,92.8,56.8,30.00,WSW,248,5.6,5.8,30,0.00,,---,0.00,VWS V14.01,2013-06-21 22:12:00,
2013-06-21 17:13:00,92.8,56.8,30.00,SE,135,7.4,8.5,30,0.00,,---,0.00,VWS V14.01,2013-06-21 22:13:00,
2013-06-21 17:14:00,92.8,57.7,30.00,South,180,8.7,8.7,31,0.00,,---,0.00,VWS V14.01,2013-06-21 22:14:00,
2013-06-21 17:15:00,92.8,57.7,30.00,SSW,202,9.6,12.5,31,0.00,,---,0.00,VWS V14.01,2013-06-21 22:15:00,
2013-06-21 17:16:00,92.6,57.6,30.00,South,180,6.0,9.6,31,0.00,,---,0.00,VWS V14.01,2013-06-21 22:16:00,
2013-06-21 17:17:00,92.6,57.6,30.00,South,180,3.8,9.4,31,0.00,,---,0.00,VWS V14.01,2013-06-21 22:17:00,
2013-06-21 17:18:00,92.6,57.6,30.00,South,180,4.3,8.7,31,0.00,,---,0.00,VWS V14.01,2013-06-21 22:18:00,
2013-06-21 17:19:00,92.6,57.6,30.00,South,180,12.5,12.5,31,0.00,,---,0.00,VWS V14.01,2013-06-21 22:19:00,
2013-06-21 17:20:00,92.4,57.4,30.00,East,90,4.3,12.5,31,0.00,,---,0.00,VWS V14.01,2013-06-21 22:20:00,
2013-06-21 17:21:00,92.4,57.4,30.00,SSW,202,6.5,10.5,31,0.00,,---,0.00,VWS V14.01,2013-06-21 22:21:00,
2013-06-21 17:22:00,92.4,57.4,30.00,ESE,112,4.5,10.7,31,0.00,,---,0.00,VWS V14.01,2013-06-21 22:22:00,
2013-06-21 17:23:00,92.4,57.4,30.00,SSW,202,10.1,10.1,31,0.00,,---,0.00,VWS V14.01,2013-06-21 22:23:00,
2013-06-21 17:24:00,92.4,57.4,30.00,SSE,158,7.8,10.7,31,0.00,,---,0.00,VWS V14.01,2013-06-21 22:24:00,
2013-06-21 17:25:00,92.2,57.3,30.00,East,90,7.2,8.7,31,0.00,,---,0.00,VWS V14.01,2013-06-21 22:25:00,
2013-06-21 17:26:00,92.2,57.3,30.00,SW,225,3.8,7.2,31,0.00,,---,0.00,VWS V14.01,2013-06-21 22:26:00,
2013-06-21 17:27:00,92.4,58.3,30.00,SSE,158,3.6,5.4,32,0.00,,---,0.00,VWS V14.01,2013-06-21 22:27:00,
2013-06-21 17:28:00,92.4,58.3,30.00,South,180,9.8,9.8,32,0.00,,---,0.00,VWS V14.01,2013-06-21 22:28:00,
2013-06-21 17:29:00,92.2,57.3,30.00,SSW,202,3.6,11.2,31,0.00,,---,0.00,VWS V14.01,2013-06-21 22:29:00,
2013-06-21 17:30:00,92.4,58.3,30.00,SSW,202,6.3,6.5,32,0.00,,---,0.00,VWS V14.01,2013-06-21 22:30:00,
2013-06-21 17:31:00,92.4,58.3,30.00,SSW,202,10.1,10.1,32,0.00,,---,0.00,VWS V14.01,2013-06-21 22:31:00,
2013-06-21 17:32:00,92.4,58.3,30.00,South,180,7.2,10.1,32,0.00,,---,0.00,VWS V14.01,2013-06-21 22:32:00,
2013-06-21 17:33:00,92.4,58.3,30.00,SSW,202,5.6,7.2,32,0.00,,---,0.00,VWS V14.01,2013-06-21 22:33:00,
2013-06-21 17:34:00,92.4,58.3,30.00,SSW,202,3.4,6.3,32,0.00,,---,0.00,VWS V14.01,2013-06-21 22:34:00,
2013-06-21 17:35:00,92.4,58.3,30.00,South,180,7.6,8.5,32,0.00,,---,0.00,VWS V14.01,2013-06-21 22:35:00,
2013-06-21 17:36:00,92.2,58.2,30.00,East,90,4.3,10.5,32,0.00,,---,0.00,VWS V14.01,2013-06-21 22:36:00,
2013-06-21 17:37:00,92.2,58.2,30.00,ESE,112,8.5,8.5,32,0.00,,---,0.00,VWS V14.01,2013-06-21 22:37:00,
2013-06-21 17:38:00,92.2,58.2,30.00,SW,225,5.8,12.5,32,0.00,,---,0.00,VWS V14.01,2013-06-21 22:38:00,
2013-06-21 17:39:00,92.2,58.2,30.00,SSW,202,8.5,8.5,32,0.00,,---,0.00,VWS V14.01,2013-06-21 22:39:00,
2013-06-21 17:40:00,92.2,58.2,30.00,SE,135,9.2,9.2,32,0.00,,---,0.00,VWS V14.01,2013-06-21 22:40:00,
2013-06-21 17:41:00,92.1,58.0,30.00,ESE,112,6.9,9.8,32,0.00,,---,0.00,VWS V14.01,2013-06-21 22:41:00,
2013-06-21 17:42:00,92.2,58.2,30.00,SSW,202,4.3,6.9,32,0.00,,---,0.00,VWS V14.01,2013-06-21 22:42:00,
2013-06-21 17:43:00,92.2,59.0,30.00,NNE,22,5.4,5.6,33,0.00,,---,0.00,VWS V14.01,2013-06-21 22:43:00,
2013-06-21 17:44:00,92.1,58.0,30.00,West,270,3.4,7.4,32,0.00,,---,0.00,VWS V14.01,2013-06-21 22:44:00,
2013-06-21 17:45:00,92.2,58.2,30.00,SSW,202,4.3,6.5,32,0.00,,---,0.00,VWS V14.01,2013-06-21 22:45:00,
2013-06-21 17:46:00,92.2,58.2,30.00,South,180,6.3,8.1,32,0.00,,---,0.00,VWS V14.01,2013-06-21 22:46:00,
2013-06-21 17:47:00,92.1,58.0,30.00,SE,135,4.3,6.3,32,0.00,,---,0.00,VWS V14.01,2013-06-21 22:47:00,
2013-06-21 17:48:00,92.1,58.0,30.00,ESE,112,4.3,6.0,32,0.00,,---,0.00,VWS V14.01,2013-06-21 22:48:00,
2013-06-21 17:49:00,91.9,58.7,30.00,SSE,158,3.8,7.2,33,0.00,,---,0.00,VWS V14.01,2013-06-21 22:49:00,
2013-06-21 17:50:00,91.7,58.6,30.00,SSE,158,2.7,4.9,33,0.00,,---,0.00,VWS V14.01,2013-06-21 22:50:00,
2013-06-21 17:51:00,91.5,58.4,30.00,East,90,6.3,6.3,33,0.00,,---,0.00,VWS V14.01,2013-06-21 22:51:00,
2013-06-21 17:52:00,91.5,58.4,30.00,SSW,202,2.7,6.3,33,0.00,,---,0.00,VWS V14.01,2013-06-21 22:52:00,
2013-06-21 17:53:00,91.0,57.9,30.00,South,180,7.8,7.8,33,0.00,,---,0.00,VWS V14.01,2013-06-21 22:53:00,
2013-06-21 17:54:00,90.8,57.8,30.00,East,90,6.0,7.8,33,0.00,,---,0.00,VWS V14.01,2013-06-21 22:54:00,
2013-06-21 17:55:00,90.8,57.8,30.00,SSW,202,3.8,7.6,33,0.00,,---,0.00,VWS V14.01,2013-06-21 22:55:00,
2013-06-21 17:56:00,90.8,57.8,30.00,South,180,6.0,7.4,33,0.00,,---,0.00,VWS V14.01,2013-06-21 22:56:00,
2013-06-21 17:57:00,90.5,57.5,30.00,South,180,5.4,8.1,33,0.00,,---,0.00,VWS V14.01,2013-06-21 22:57:00,
2013-06-21 17:58:00,90.5,57.5,30.00,SW,225,5.8,5.8,33,0.00,,---,0.00,VWS V14.01,2013-06-21 22:58:00,
2013-06-21 17:59:00,90.7,58.5,30.00,South,180,2.2,5.8,34,0.00,,---,0.00,VWS V14.01,2013-06-21 22:59:00,
2013-06-21 18:00:00,90.3,58.2,30.00,SE,135,1.3,2.7,34,0.00,,---,0.00,VWS V14.01,2013-06-21 23:00:00,
2013-06-21 18:01:00,90.1,58.0,30.00,East,90,2.5,4.0,34,0.00,,---,0.00,VWS V14.01,2013-06-21 23:01:00,
2013-06-21 18:02:00,89.9,57.8,30.00,South,180,5.4,5.4,34,0.00,,---,0.00,VWS V14.01,2013-06-21 23:02:00,
2013-06-21 18:03:00,89.8,57.7,30.00,SE,135,7.4,7.4,34,0.00,,---,0.00,VWS V14.01,2013-06-21 23:03:00,
2013-06-21 18:04:00,89.8,57.7,30.00,SE,135,3.4,7.4,34,0.00,,---,0.00,VWS V14.01,2013-06-21 23:04:00,
2013-06-21 18:05:00,89.8,57.7,30.00,SSW,202,1.1,3.8,34,0.00,,---,0.00,VWS V14.01,2013-06-21 23:05:00,
2013-06-21 18:06:00,89.9,57.8,30.00,South,180,2.0,3.8,34,0.00,,---,0.00,VWS V14.01,2013-06-21 23:06:00,
2013-06-21 18:07:00,89.9,57.8,30.00,South,180,3.4,7.4,34,0.00,,---,0.00,VWS V14.01,2013-06-21 23:07:00,
2013-06-21 18:08:00,90.1,58.0,30.00,SSE,158,5.4,7.8,34,0.00,,---,0.00,VWS V14.01,2013-06-21 23:08:00,
2013-06-21 18:09:00,89.9,57.8,30.00,ESE,112,3.4,6.5,34,0.00,,---,0.00,VWS V14.01,2013-06-21 23:09:00,
2013-06-21 18:10:00,89.9,57.8,30.00,SSE,158,5.4,7.8,34,0.00,,---,0.00,VWS V14.01,2013-06-21 23:10:00,
2013-06-21 18:11:00,89.9,57.8,30.00,SE,135,2.5,9.2,34,0.00,,---,0.00,VWS V14.01,2013-06-21 23:11:00,
2013-06-21 18:12:00,89.8,57.7,30.00,SSE,158,4.9,6.3,34,0.00,,---,0.00,VWS V14.01,2013-06-21 23:12:00,
2013-06-21 18:13:00,89.6,57.5,30.00,East,90,4.7,4.9,34,0.00,,---,0.00,VWS V14.01,2013-06-21 23:13:00,
2013-06-21 18:14:00,89.4,57.4,30.00,SE,135,5.8,5.8,34,0.00,,---,0.00,VWS V14.01,2013-06-21 23:14:00,
2013-06-21 18:15:00,89.2,57.2,30.00,East,90,2.9,5.8,34,0.00,,---,0.00,VWS V14.01,2013-06-21 23:15:00,
2013-06-21 18:16:00,89.1,57.1,30.00,ESE,112,3.6,6.5,34,0.00,,---,0.00,VWS V14.01,2013-06-21 23:16:00,
2013-06-21 18:17:00,89.1,57.1,30.00,South,180,4.9,4.9,34,0.00,,---,0.00,VWS V14.01,2013-06-21 23:17:00,
2013-06-21 18:18:00,88.9,56.9,30.00,SSW,202,2.7,4.9,34,0.00,,---,0.00,VWS V14.01,2013-06-21 23:18:00,
2013-06-21 18:19:00,88.9,56.9,30.00,SE,135,5.4,5.4,34,0.00,,---,0.00,VWS V14.01,2013-06-21 23:19:00,
2013-06-21 18:20:00,89.2,57.2,30.00,SSW,202,3.1,9.8,34,0.00,,---,0.00,VWS V14.01,2013-06-21 23:20:00,
2013-06-21 18:21:00,89.2,57.2,30.00,ESE,112,3.8,5.4,34,0.00,,---,0.00,VWS V14.01,2013-06-21 23:21:00,
2013-06-21 18:22:00,89.2,57.2,30.00,SSW,202,5.4,7.2,34,0.00,,---,0.00,VWS V14.01,2013-06-21 23:22:00,
2013-06-21 18:23:00,89.1,57.1,30.00,South,180,3.1,6.5,34,0.00,,---,0.00,VWS V14.01,2013-06-21 23:23:00,
2013-06-21 18:24:00,89.1,57.1,30.00,SSE,158,3.1,5.8,34,0.00,,---,0.00,VWS V14.01,2013-06-21 23:24:00,
2013-06-21 18:25:00,89.1,57.9,30.00,East,90,3.4,3.4,35,0.00,,---,0.00,VWS V14.01,2013-06-21 23:25:00,
2013-06-21 18:26:00,89.1,57.9,30.00,East,90,2.0,3.4,35,0.00,,---,0.00,VWS V14.01,2013-06-21 23:26:00,
2013-06-21 18:27:00,89.1,57.9,30.00,South,180,3.4,4.3,35,0.00,,---,0.00,VWS V14.01,2013-06-21 23:27:00,
2013-06-21 18:28:00,89.1,57.9,30.00,WNW,292,5.4,5.4,35,0.00,,---,0.00,VWS V14.01,2013-06-21 23:28:00,
2013-06-21 18:29:00,89.1,57.9,30.00,South,180,4.9,5.4,35,0.00,,---,0.00,VWS V14.01,2013-06-21 23:29:00,
2013-06-21 18:30:00,89.2,58.0,30.00,ENE,68,4.0,4.9,35,0.00,,---,0.00,VWS V14.01,2013-06-21 23:30:00,
2013-06-21 18:31:00,89.4,57.4,30.00,SE,135,5.6,6.9,34,0.00,,---,0.00,VWS V14.01,2013-06-21 23:31:00,
2013-06-21 18:32:00,89.4,57.4,30.00,South,180,3.1,5.6,34,0.00,,---,0.00,VWS V14.01,2013-06-21 23:32:00,
2013-06-21 18:33:00,89.6,57.5,30.00,East,90,4.3,4.3,34,0.00,,---,0.00,VWS V14.01,2013-06-21 23:33:00,
2013-06-21 18:34:00,89.6,57.5,30.00,South,180,2.0,4.9,34,0.00,,---,0.00,VWS V14.01,2013-06-21 23:34:00,
2013-06-21 18:35:00,89.8,57.7,30.00,SSE,158,2.5,3.8,34,0.00,,---,0.00,VWS V14.01,2013-06-21 23:35:00,
2013-06-21 18:36:00,89.8,57.7,30.00,East,90,2.9,3.1,34,0.00,,---,0.00,VWS V14.01,2013-06-21 23:36:00,
2013-06-21 18:37:00,89.8,57.7,30.00,SE,135,3.4,4.9,34,0.00,,---,0.00,VWS V14.01,2013-06-21 23:37:00,
2013-06-21 18:38:00,89.8,57.7,30.00,NW,315,1.3,3.4,34,0.00,,---,0.00,VWS V14.01,2013-06-21 23:38:00,
2013-06-21 18:39:00,89.8,57.7,30.00,South,180,2.9,3.8,34,0.00,,---,0.00,VWS V14.01,2013-06-21 23:39:00,
2013-06-21 18:40:00,89.8,57.7,30.00,SSE,158,3.4,4.9,34,0.00,,---,0.00,VWS V14.01,2013-06-21 23:40:00,
2013-06-21 18:41:00,89.8,57.7,30.00,ENE,68,2.5,3.4,34,0.00,,---,0.00,VWS V14.01,2013-06-21 23:41:00,
2013-06-21 18:42:00,89.8,57.7,30.00,ENE,68,2.7,3.8,34,0.00,,---,0.00,VWS V14.01,2013-06-21 23:42:00,
2013-06-21 18:43:00,89.8,57.7,30.00,SSW,202,2.9,3.6,34,0.00,,---,0.00,VWS V14.01,2013-06-21 23:43:00,
2013-06-21 18:44:00,89.6,57.5,30.00,South,180,1.6,4.3,34,0.00,,---,0.00,VWS V14.01,2013-06-21 23:44:00,
2013-06-21 18:45:00,89.6,57.5,30.00,SE,135,4.0,4.0,34,0.00,,---,0.00,VWS V14.01,2013-06-21 23:45:00,
2013-06-21 18:46:00,89.4,57.4,30.00,SE,135,6.0,8.7,34,0.00,,---,0.00,VWS V14.01,2013-06-21 23:46:00,
2013-06-21 18:47:00,89.4,57.4,30.00,SE,135,2.7,6.0,34,0.00,,---,0.00,VWS V14.01,2013-06-21 23:47:00,
2013-06-21 18:48:00,89.2,57.2,30.00,SSE,158,2.5,4.3,34,0.00,,---,0.00,VWS V14.01,2013-06-21 23:48:00,
2013-06-21 18:49:00,89.2,56.4,30.00,South,180,3.4,6.3,33,0.00,,---,0.00,VWS V14.01,2013-06-21 23:49:00,
2013-06-21 18:50:00,89.2,56.4,30.00,ESE,112,4.7,4.7,33,0.00,,---,0.00,VWS V14.01,2013-06-21 23:50:00,
2013-06-21 18:51:00,89.1,57.1,30.00,SSE,158,3.1,4.7,34,0.00,,---,0.00,VWS V14.01,2013-06-21 23:51:00,
2013-06-21 18:52:00,89.1,57.1,30.00,SW,225,3.1,3.8,34,0.00,,---,0.00,VWS V14.01,2013-06-21 23:52:00,
2013-06-21 18:53:00,89.1,56.2,30.00,SE,135,2.7,5.8,33,0.00,,---,0.00,VWS V14.01,2013-06-21 23:53:00,
2013-06-21 18:54:00,89.1,56.2,30.00,South,180,2.5,9.8,33,0.00,,---,0.00,VWS V14.01,2013-06-21 23:54:00,
2013-06-21 18:55:00,89.1,56.2,30.00,East,90,3.6,6.5,33,0.00,,---,0.00,VWS V14.01,2013-06-21 23:55:00,
2013-06-21 18:56:00,89.1,56.2,30.00,SSW,202,4.7,4.7,33,0.00,,---,0.00,VWS V14.01,2013-06-21 23:56:00,
2013-06-21 18:57:00,88.9,56.1,30.00,East,90,2.0,6.3,33,0.00,,---,0.00,VWS V14.01,2013-06-21 23:57:00,
2013-06-21 18:58:00,88.9,56.1,30.00,South,180,7.6,7.6,33,0.00,,---,0.00,VWS V14.01,2013-06-21 23:58:00,
2013-06-21 18:59:00,88.9,56.1,30.00,SE,135,7.4,7.6,33,0.00,,---,0.00,VWS V14.01,2013-06-21 23:59:00,
2013-06-21 19:00:00,88.9,56.1,30.00,SSW,202,3.8,7.4,33,0.00,,---,0.00,VWS V14.01,2013-06-22 00:00:00,
2013-06-21 19:01:00,88.9,56.1,30.00,SSE,158,3.8,5.6,33,0.00,,---,0.00,VWS V14.01,2013-06-22 00:01:00,
2013-06-21 19:02:00,88.7,55.9,30.00,South,180,8.5,8.5,33,0.00,,---,0.00,VWS V14.01,2013-06-22 00:02:00,
2013-06-21 19:03:00,88.7,55.9,30.00,SW,225,4.0,8.5,33,0.00,,---,0.00,VWS V14.01,2013-06-22 00:03:00,
2013-06-21 19:04:00,88.7,55.9,30.00,ESE,112,1.3,4.0,33,0.00,,---,0.00,VWS V14.01,2013-06-22 00:04:00,
2013-06-21 19:05:00,88.7,55.9,30.00,East,90,0.9,2.0,33,0.00,,---,0.00,VWS V14.01,2013-06-22 00:05:00,
2013-06-21 19:06:00,88.7,55.9,30.00,SSW,202,3.1,3.1,33,0.00,,---,0.00,VWS V14.01,2013-06-22 00:06:00,
2013-06-21 19:07:00,88.7,55.9,30.00,SE,135,3.8,8.1,33,0.00,,---,0.00,VWS V14.01,2013-06-22 00:07:00,
2013-06-21 19:08:00,88.7,55.9,30.00,SE,135,2.0,6.5,33,0.00,,---,0.00,VWS V14.01,2013-06-22 00:08:00,
2013-06-21 19:09:00,88.7,55.9,30.00,SSE,158,2.0,2.0,33,0.00,,---,0.00,VWS V14.01,2013-06-22 00:09:00,
2013-06-21 19:10:00,88.5,55.8,30.00,SSE,158,2.7,5.4,33,0.00,,---,0.00,VWS V14.01,2013-06-22 00:10:00,
2013-06-21 19:11:00,88.5,55.8,30.00,East,90,2.5,5.4,33,0.00,,---,0.00,VWS V14.01,2013-06-22 00:11:00,
2013-06-21 19:12:00,88.5,55.8,30.00,ESE,112,2.0,2.7,33,0.00,,---,0.00,VWS V14.01,2013-06-22 00:12:00,
2013-06-21 19:13:00,88.5,55.8,30.00,SSW,202,2.0,3.1,33,0.00,,---,0.00,VWS V14.01,2013-06-22 00:13:00,
2013-06-21 19:14:00,88.5,55.8,30.00,South,180,4.3,4.3,33,0.00,,---,0.00,VWS V14.01,2013-06-22 00:14:00,
2013-06-21 19:15:00,88.3,56.5,30.00,SE,135,7.8,7.8,34,0.00,,---,0.00,VWS V14.01,2013-06-22 00:15:00,
2013-06-21 19:16:00,88.2,55.5,29.97,ESE,112,3.8,7.8,33,0.00,,---,0.00,VWS V14.01,2013-06-22 00:16:00,
2013-06-21 19:17:00,88.2,56.3,29.97,SE,135,2.7,3.8,34,0.00,,---,0.00,VWS V14.01,2013-06-22 00:17:00,
2013-06-21 19:18:00,88.0,56.1,29.97,SE,135,3.6,4.0,34,0.00,,---,0.00,VWS V14.01,2013-06-22 00:18:00,
2013-06-21 19:19:00,88.0,56.1,29.97,South,180,1.3,3.6,34,0.00,,---,0.00,VWS V14.01,2013-06-22 00:19:00,
2013-06-21 19:20:00,87.8,55.2,29.97,SW,225,2.5,6.3,33,0.00,,---,0.00,VWS V14.01,2013-06-22 00:20:00,
2013-06-21 19:21:00,87.8,56.0,29.97,South,180,1.3,6.5,34,0.00,,---,0.00,VWS V14.01,2013-06-22 00:21:00,
2013-06-21 19:22:00,87.8,56.0,29.97,SSW,202,5.8,7.4,34,0.00,,---,0.00,VWS V14.01,2013-06-22 00:22:00,
2013-06-21 19:23:00,87.8,55.2,29.97,North,0,2.7,5.8,33,0.00,,---,0.00,VWS V14.01,2013-06-22 00:23:00,
2013-06-21 19:24:00,87.6,55.0,29.97,SSW,202,2.0,3.1,33,0.00,,---,0.00,VWS V14.01,2013-06-22 00:24:00,
2013-06-21 19:25:00,87.6,55.0,29.97,SSW,202,2.7,4.0,33,0.00,,---,0.00,VWS V14.01,2013-06-22 00:25:00,
2013-06-21 19:26:00,87.6,55.0,29.97,South,180,0.0,2.7,33,0.00,,---,0.00,VWS V14.01,2013-06-22 00:26:00,
2013-06-21 19:27:00,87.5,54.8,29.97,ESE,112,2.7,5.8,33,0.00,,---,0.00,VWS V14.01,2013-06-22 00:27:00,
2013-06-21 19:28:00,87.5,54.8,29.97,SW,225,2.0,4.3,33,0.00,,---,0.00,VWS V14.01,2013-06-22 00:28:00,
2013-06-21 19:29:00,87.3,54.7,29.97,East,90,2.9,4.3,33,0.00,,---,0.00,VWS V14.01,2013-06-22 00:29:00,
2013-06-21 19:30:00,87.3,54.7,29.97,SE,135,2.0,3.8,33,0.00,,---,0.00,VWS V14.01,2013-06-22 00:30:00,
2013-06-21 19:31:00,87.1,54.5,30.00,South,180,2.0,2.5,33,0.00,,---,0.00,VWS V14.01,2013-06-22 00:31:00,
2013-06-21 19:32:00,86.9,54.4,30.00,South,180,2.5,4.3,33,0.00,,---,0.00,VWS V14.01,2013-06-22 00:32:00,
2013-06-21 19:33:00,86.8,54.2,30.00,South,180,1.6,3.1,33,0.00,,---,0.00,VWS V14.01,2013-06-22 00:33:00,
2013-06-21 19:34:00,86.8,55.1,30.00,ESE,112,2.9,2.9,34,0.00,,---,0.00,VWS V14.01,2013-06-22 00:34:00,
2013-06-21 19:35:00,86.6,54.9,30.00,SSW,202,1.6,4.3,34,0.00,,---,0.00,VWS V14.01,2013-06-22 00:35:00,
2013-06-21 19:36:00,86.6,54.9,30.00,SE,135,1.1,3.6,34,0.00,,---,0.00,VWS V14.01,2013-06-22 00:36:00,
2013-06-21 19:37:00,86.4,54.8,30.00,South,180,2.7,6.5,34,0.00,,---,0.00,VWS V14.01,2013-06-22 00:37:00,
2013-06-21 19:38:00,86.4,54.8,30.00,South,180,0.9,5.4,34,0.00,,---,0.00,VWS V14.01,2013-06-22 00:38:00,
2013-06-21 19:39:00,86.2,54.6,30.00,SE,135,3.8,3.8,34,0.00,,---,0.00,VWS V14.01,2013-06-22 00:39:00,
2013-06-21 19:40:00,86.1,54.4,30.00,South,180,3.4,3.8,34,0.00,,---,0.00,VWS V14.01,2013-06-22 00:40:00,
2013-06-21 19:41:00,86.1,54.4,30.00,SE,135,2.0,3.4,34,0.00,,---,0.00,VWS V14.01,2013-06-22 00:41:00,
2013-06-21 19:42:00,85.9,54.3,30.00,South,180,2.2,6.3,34,0.00,,---,0.00,VWS V14.01,2013-06-22 00:42:00,
2013-06-21 19:43:00,85.9,54.3,30.00,SSW,202,1.6,4.5,34,0.00,,---,0.00,VWS V14.01,2013-06-22 00:43:00,
2013-06-21 19:44:00,85.9,54.3,30.00,East,90,2.0,4.0,34,0.00,,---,0.00,VWS V14.01,2013-06-22 00:44:00,
2013-06-21 19:45:00,85.9,54.3,30.00,South,180,1.1,2.0,34,0.00,,---,0.00,VWS V14.01,2013-06-22 00:45:00,
2013-06-21 19:46:00,85.5,54.0,30.00,SSW,202,0.0,2.9,34,0.00,,---,0.00,VWS V14.01,2013-06-22 00:46:00,
2013-06-21 19:47:00,85.5,54.0,30.00,East,90,2.9,2.9,34,0.00,,---,0.00,VWS V14.01,2013-06-22 00:47:00,
2013-06-21 19:48:00,85.3,53.8,30.00,SW,225,1.1,2.9,34,0.00,,---,0.00,VWS V14.01,2013-06-22 00:48:00,
2013-06-21 19:49:00,85.3,54.6,30.00,South,180,3.4,3.4,35,0.00,,---,0.00,VWS V14.01,2013-06-22 00:49:00,
2013-06-21 19:50:00,85.3,53.8,30.00,SE,135,3.8,6.0,34,0.00,,---,0.00,VWS V14.01,2013-06-22 00:50:00,
2013-06-21 19:51:00,85.3,54.6,30.00,South,180,2.9,4.3,35,0.00,,---,0.00,VWS V14.01,2013-06-22 00:51:00,
2013-06-21 19:52:00,85.3,54.6,30.00,SW,225,2.2,2.9,35,0.00,,---,0.00,VWS V14.01,2013-06-22 00:52:00,
2013-06-21 19:53:00,85.3,54.6,30.00,SE,135,2.0,3.4,35,0.00,,---,0.00,VWS V14.01,2013-06-22 00:53:00,
2013-06-21 19:54:00,85.2,54.5,30.00,South,180,2.9,3.6,35,0.00,,---,0.00,VWS V14.01,2013-06-22 00:54:00,
2013-06-21 19:55:00,85.3,54.6,30.00,SE,135,3.8,5.4,35,0.00,,---,0.00,VWS V14.01,2013-06-22 00:55:00,
2013-06-21 19:56:00,85.3,54.6,30.00,South,180,1.1,5.6,35,0.00,,---,0.00,VWS V14.01,2013-06-22 00:56:00,
2013-06-21 19:57:00,85.2,54.5,30.00,SSE,158,2.0,2.0,35,0.00,,---,0.00,VWS V14.01,2013-06-22 00:57:00,
2013-06-21 19:58:00,85.2,54.5,30.00,South,180,5.6,5.6,35,0.00,,---,0.00,VWS V14.01,2013-06-22 00:58:00,
2013-06-21 19:59:00,85.2,54.5,30.00,South,180,3.4,8.1,35,0.00,,---,0.00,VWS V14.01,2013-06-22 00:59:00,
2013-06-21 20:00:00,85.2,54.5,30.00,SSW,202,2.2,3.8,35,0.00,,---,0.00,VWS V14.01,2013-06-22 01:00:00,
2013-06-21 20:01:00,85.2,54.5,30.00,SSW,202,3.8,4.7,35,0.00,,---,0.00,VWS V14.01,2013-06-22 01:01:00,
2013-06-21 20:02:00,85.2,54.5,30.00,South,180,3.1,5.4,35,0.00,,---,0.00,VWS V14.01,2013-06-22 01:02:00,
2013-06-21 20:03:00,85.0,54.3,30.00,SSW,202,3.4,4.0,35,0.00,,---,0.00,VWS V14.01,2013-06-22 01:03:00,
2013-06-21 20:04:00,85.0,54.3,30.00,South,180,2.0,4.3,35,0.00,,---,0.00,VWS V14.01,2013-06-22 01:04:00,
2013-06-21 20:05:00,84.8,54.9,30.00,SSW,202,3.1,3.4,36,0.00,,---,0.00,VWS V14.01,2013-06-22 01:05:00,
2013-06-21 20:06:00,84.8,54.9,30.00,South,180,3.8,3.8,36,0.00,,---,0.00,VWS V14.01,2013-06-22 01:06:00,
2013-06-21 20:07:00,84.8,54.9,30.00,SE,135,3.1,5.8,36,0.00,,---,0.00,VWS V14.01,2013-06-22 01:07:00,
2013-06-21 20:08:00,84.8,54.9,30.00,South,180,4.7,4.7,36,0.00,,---,0.00,VWS V14.01,2013-06-22 01:08:00,
2013-06-21 20:09:00,84.6,54.8,30.00,SSE,158,2.0,4.7,36,0.00,,---,0.00,VWS V14.01,2013-06-22 01:09:00,
2013-06-21 20:10:00,84.6,54.8,30.00,SE,135,2.7,8.7,36,0.00,,---,0.00,VWS V14.01,2013-06-22 01:10:00,
2013-06-21 20:11:00,84.6,54.8,30.00,SE,135,3.6,3.6,36,0.00,,---,0.00,VWS V14.01,2013-06-22 01:11:00,
2013-06-21 20:12:00,84.6,54.8,30.00,ESE,112,3.8,4.9,36,0.00,,---,0.00,VWS V14.01,2013-06-22 01:12:00,
2013-06-21 20:13:00,84.6,54.8,30.00,South,180,3.8,3.8,36,0.00,,---,0.00,VWS V14.01,2013-06-22 01:13:00,
2013-06-21 20:14:00,84.6,54.8,30.00,SE,135,4.0,5.8,36,0.00,,---,0.00,VWS V14.01,2013-06-22 01:14:00,
2013-06-21 20:15:00,84.4,54.6,30.00,South,180,2.5,4.0,36,0.00,,---,0.00,VWS V14.01,2013-06-22 01:15:00,
2013-06-21 20:16:00,84.4,54.6,30.00,South,180,4.3,4.3,36,0.00,,---,0.00,VWS V14.01,2013-06-22 01:16:00,
2013-06-21 20:17:00,84.4,54.6,30.00,South,180,3.4,6.0,36,0.00,,---,0.00,VWS V14.01,2013-06-22 01:17:00,
2013-06-21 20:18:00,84.4,54.6,30.00,SSW,202,3.6,5.8,36,0.00,,---,0.00,VWS V14.01,2013-06-22 01:18:00,
2013-06-21 20:19:00,84.4,54.6,30.00,South,180,3.1,3.6,36,0.00,,---,0.00,VWS V14.01,2013-06-22 01:19:00,
2013-06-21 20:20:00,84.3,54.5,30.00,NE,45,2.7,3.1,36,0.00,,---,0.00,VWS V14.01,2013-06-22 01:20:00,
2013-06-21 20:21:00,84.3,54.5,30.00,SSW,202,1.1,3.1,36,0.00,,---,0.00,VWS V14.01,2013-06-22 01:21:00,
2013-06-21 20:22:00,84.3,54.5,30.00,SE,135,0.0,4.7,36,0.00,,---,0.00,VWS V14.01,2013-06-22 01:22:00,
2013-06-21 20:23:00,84.3,54.5,30.00,SE,135,5.8,5.8,36,0.00,,---,0.00,VWS V14.01,2013-06-22 01:23:00,
2013-06-21 20:24:00,84.3,54.5,30.00,SW,225,3.6,5.8,36,0.00,,---,0.00,VWS V14.01,2013-06-22 01:24:00,
2013-06-21 20:25:00,84.3,54.5,30.00,SE,135,3.6,6.0,36,0.00,,---,0.00,VWS V14.01,2013-06-22 01:25:00,
2013-06-21 20:26:00,84.3,54.5,30.00,SSE,158,3.1,3.6,36,0.00,,---,0.00,VWS V14.01,2013-06-22 01:26:00,
2013-06-21 20:27:00,84.1,54.3,30.00,South,180,1.3,3.1,36,0.00,,---,0.00,VWS V14.01,2013-06-22 01:27:00,
2013-06-21 20:28:00,84.1,54.3,30.00,SSE,158,2.2,3.4,36,0.00,,---,0.00,VWS V14.01,2013-06-22 01:28:00,
2013-06-21 20:29:00,83.9,54.9,30.00,East,90,2.0,2.2,37,0.00,,---,0.00,VWS V14.01,2013-06-22 01:29:00,
2013-06-21 20:30:00,83.9,54.9,30.00,East,90,1.3,3.8,37,0.00,,---,0.00,VWS V14.01,2013-06-22 01:30:00,
2013-06-21 20:31:00,83.7,54.7,30.00,South,180,0.0,2.9,37,0.00,,---,0.00,VWS V14.01,2013-06-22 01:31:00,
2013-06-21 20:32:00,83.7,54.7,30.00,SE,135,1.3,2.0,37,0.00,,---,0.00,VWS V14.01,2013-06-22 01:32:00,
2013-06-21 20:33:00,83.6,54.6,30.00,SSW,202,1.3,2.5,37,0.00,,---,0.00,VWS V14.01,2013-06-22 01:33:00,
2013-06-21 20:34:00,83.7,54.7,30.00,SE,135,2.0,5.6,37,0.00,,---,0.00,VWS V14.01,2013-06-22 01:34:00,
2013-06-21 20:35:00,83.7,54.7,30.00,SE,135,4.3,4.5,37,0.00,,---,0.00,VWS V14.01,2013-06-22 01:35:00,
2013-06-21 20:36:00,83.7,54.7,30.00,South,180,3.6,4.3,37,0.00,,---,0.00,VWS V14.01,2013-06-22 01:36:00,
2013-06-21 20:37:00,83.7,54.7,30.00,East,90,0.9,3.6,37,0.00,,---,0.00,VWS V14.01,2013-06-22 01:37:00,
2013-06-21 20:38:00,83.7,54.7,30.00,SSW,202,2.2,2.2,37,0.00,,---,0.00,VWS V14.01,2013-06-22 01:38:00,
2013-06-21 20:39:00,83.6,54.6,30.00,NNE,22,0.0,2.9,37,0.00,,---,0.00,VWS V14.01,2013-06-22 01:39:00,
2013-06-21 20:40:00,83.6,54.6,30.00,SE,135,3.1,3.1,37,0.00,,---,0.00,VWS V14.01,2013-06-22 01:40:00,
2013-06-21 20:41:00,83.6,54.6,30.00,SW,225,1.1,3.8,37,0.00,,---,0.00,VWS V14.01,2013-06-22 01:41:00,
2013-06-21 20:42:00,83.4,54.4,30.00,South,180,1.6,4.0,37,0.00,,---,0.00,VWS V14.01,2013-06-22 01:42:00,
2013-06-21 20:43:00,83.4,54.4,30.00,South,180,1.3,1.6,37,0.00,,---,0.00,VWS V14.01,2013-06-22 01:43:00,
2013-06-21 20:44:00,83.4,54.4,30.00,SSW,202,3.1,3.6,37,0.00,,---,0.00,VWS V14.01,2013-06-22 01:44:00,
2013-06-21 20:45:00,83.4,54.4,30.00,ESE,112,1.3,3.8,37,0.00,,---,0.00,VWS V14.01,2013-06-22 01:45:00,
2013-06-21 20:46:00,83.4,54.4,30.00,SSE,158,2.5,2.5,37,0.00,,---,0.00,VWS V14.01,2013-06-22 01:46:00,
2013-06-21 20:47:00,83.2,54.3,30.00,ESE,112,0.0,2.5,37,0.00,,---,0.00,VWS V14.01,2013-06-22 01:47:00,
2013-06-21 20:48:00,83.2,54.3,30.00,East,90,1.3,3.8,37,0.00,,---,0.00,VWS V14.01,2013-06-22 01:48:00,
2013-06-21 20:49:00,83.0,54.8,30.00,North,0,1.1,2.9,38,0.00,,---,0.00,VWS V14.01,2013-06-22 01:49:00,
2013-06-21 20:50:00,83.0,54.8,30.00,SE,135,1.6,1.6,38,0.00,,---,0.00,VWS V14.01,2013-06-22 01:50:00,
2013-06-21 20:51:00,83.0,54.8,30.00,ESE,112,1.6,1.6,38,0.00,,---,0.00,VWS V14.01,2013-06-22 01:51:00,
2013-06-21 20:52:00,82.9,54.7,30.00,SSW,202,2.9,2.9,38,0.00,,---,0.00,VWS V14.01,2013-06-22 01:52:00,
2013-06-21 20:53:00,82.9,54.7,30.00,South,180,1.1,2.9,38,0.00,,---,0.00,VWS V14.01,2013-06-22 01:53:00,
2013-06-21 20:54:00,82.9,54.7,30.00,SSE,158,2.7,2.7,38,0.00,,---,0.00,VWS V14.01,2013-06-22 01:54:00,
2013-06-21 20:55:00,82.7,54.5,30.00,South,180,2.2,2.7,38,0.00,,---,0.00,VWS V14.01,2013-06-22 01:55:00,
2013-06-21 20:56:00,82.7,54.5,30.00,East,90,4.0,4.0,38,0.00,,---,0.00,VWS V14.01,2013-06-22 01:56:00,
2013-06-21 20:57:00,82.7,54.5,30.00,SE,135,1.3,4.0,38,0.00,,---,0.00,VWS V14.01,2013-06-22 01:57:00,
2013-06-21 20:58:00,82.5,54.4,30.00,South,180,2.7,2.7,38,0.00,,---,0.00,VWS V14.01,2013-06-22 01:58:00,
2013-06-21 20:59:00,82.5,54.4,30.00,SE,135,1.3,3.1,38,0.00,,---,0.00,VWS V14.01,2013-06-22 01:59:00,
2013-06-21 21:00:00,82.5,54.4,30.00,South,180,2.0,2.0,38,0.00,,---,0.00,VWS V14.01,2013-06-22 02:00:00,
2013-06-21 21:01:00,82.5,54.4,30.00,South,180,0.0,2.2,38,0.00,,---,0.00,VWS V14.01,2013-06-22 02:01:00,
2013-06-21 21:02:00,82.5,54.4,30.00,ESE,112,1.6,2.2,38,0.00,,---,0.00,VWS V14.01,2013-06-22 02:02:00,
2013-06-21 21:03:00,82.5,54.4,30.00,North,0,2.9,2.9,38,0.00,,---,0.00,VWS V14.01,2013-06-22 02:03:00,
2013-06-21 21:04:00,82.3,54.2,30.00,SSE,158,2.9,2.9,38,0.00,,---,0.00,VWS V14.01,2013-06-22 02:04:00,
2013-06-21 21:05:00,82.3,54.2,30.00,SE,135,2.7,2.9,38,0.00,,---,0.00,VWS V14.01,2013-06-22 02:05:00,
2013-06-21 21:06:00,82.3,54.2,30.00,ESE,112,3.8,3.8,38,0.00,,---,0.00,VWS V14.01,2013-06-22 02:06:00,
2013-06-21 21:07:00,82.3,54.9,30.00,SSE,158,0.0,3.8,39,0.00,,---,0.00,VWS V14.01,2013-06-22 02:07:00,
2013-06-21 21:08:00,82.3,54.2,30.00,South,180,4.0,5.4,38,0.00,,---,0.00,VWS V14.01,2013-06-22 02:08:00,
2013-06-21 21:09:00,82.3,54.9,30.00,ESE,112,1.1,4.0,39,0.00,,---,0.00,VWS V14.01,2013-06-22 02:09:00,
2013-06-21 21:10:00,82.2,54.8,30.00,SSE,158,2.2,2.2,39,0.00,,---,0.00,VWS V14.01,2013-06-22 02:10:00,
2013-06-21 21:11:00,82.2,54.8,30.00,East,90,3.1,3.6,39,0.00,,---,0.00,VWS V14.01,2013-06-22 02:11:00,
2013-06-21 21:12:00,82.2,54.8,30.00,SE,135,0.9,3.8,39,0.00,,---,0.00,VWS V14.01,2013-06-22 02:12:00,
2013-06-21 21:13:00,82.2,54.8,30.00,North,0,3.4,3.4,39,0.00,,---,0.00,VWS V14.01,2013-06-22 02:13:00,
2013-06-21 21:14:00,82.2,54.8,30.00,SE,135,2.0,3.4,39,0.00,,---,0.00,VWS V14.01,2013-06-22 02:14:00,
2013-06-21 21:15:00,82.2,54.8,30.00,South,180,1.1,3.4,39,0.00,,---,0.00,VWS V14.01,2013-06-22 02:15:00,
2013-06-21 21:16:00,82.2,54.8,30.00,SE,135,2.7,2.9,39,0.00,,---,0.00,VWS V14.01,2013-06-22 02:16:00,
2013-06-21 21:17:00,82.0,54.6,30.00,SE,135,2.7,2.9,39,0.00,,---,0.00,VWS V14.01,2013-06-22 02:17:00,
2013-06-21 21:18:00,82.0,54.6,30.00,SE,135,2.2,2.9,39,0.00,,---,0.00,VWS V14.01,2013-06-22 02:18:00,
2013-06-21 21:19:00,82.2,54.8,30.00,SE,135,2.9,2.9,39,0.00,,---,0.00,VWS V14.01,2013-06-22 02:19:00,
2013-06-21 21:20:00,82.0,54.6,30.00,South,180,2.5,3.6,39,0.00,,---,0.00,VWS V14.01,2013-06-22 02:20:00,
2013-06-21 21:21:00,82.0,54.6,30.00,SSW,202,3.6,3.6,39,0.00,,---,0.00,VWS V14.01,2013-06-22 02:21:00,
2013-06-21 21:22:00,82.0,54.6,30.00,SW,225,2.9,5.4,39,0.00,,---,0.00,VWS V14.01,2013-06-22 02:22:00,
2013-06-21 21:23:00,82.0,54.6,30.00,SE,135,2.9,2.9,39,0.00,,---,0.00,VWS V14.01,2013-06-22 02:23:00,
2013-06-21 21:24:00,82.0,54.6,30.00,East,90,1.3,2.9,39,0.00,,---,0.00,VWS V14.01,2013-06-22 02:24:00,
2013-06-21 21:25:00,82.0,54.6,30.00,SSE,158,0.0,3.6,39,0.00,,---,0.00,VWS V14.01,2013-06-22 02:25:00,
2013-06-21 21:26:00,81.8,54.4,30.00,SE,135,2.2,2.5,39,0.00,,---,0.00,VWS V14.01,2013-06-22 02:26:00,
2013-06-21 21:27:00,81.8,54.4,30.00,East,90,2.9,2.9,39,0.00,,---,0.00,VWS V14.01,2013-06-22 02:27:00,
2013-06-21 21:28:00,81.8,54.4,30.00,East,90,3.8,5.8,39,0.00,,---,0.00,VWS V14.01,2013-06-22 02:28:00,
2013-06-21 21:29:00,81.8,54.4,30.00,SW,225,3.6,3.8,39,0.00,,---,0.00,VWS V14.01,2013-06-22 02:29:00,
2013-06-21 21:30:00,81.8,54.4,30.00,South,180,2.9,3.6,39,0.00,,---,0.00,VWS V14.01,2013-06-22 02:30:00,
2013-06-21 21:31:00,81.8,55.1,30.00,SSE,158,3.6,4.0,40,0.00,,---,0.00,VWS V14.01,2013-06-22 02:31:00,
2013-06-21 21:32:00,81.8,55.1,30.00,SE,135,2.7,3.6,40,0.00,,---,0.00,VWS V14.01,2013-06-22 02:32:00,
2013-06-21 21:33:00,81.8,55.1,30.00,ESE,112,2.0,2.7,40,0.00,,---,0.00,VWS V14.01,2013-06-22 02:33:00,
2013-06-21 21:34:00,81.8,55.1,30.00,South,180,6.9,6.9,40,0.00,,---,0.00,VWS V14.01,2013-06-22 02:34:00,
2013-06-21 21:35:00,81.8,55.1,30.00,ESE,112,3.1,6.9,40,0.00,,---,0.00,VWS V14.01,2013-06-22 02:35:00,
2013-06-21 21:36:00,81.8,55.1,30.00,SSW,202,5.4,5.4,40,0.00,,---,0.00,VWS V14.01,2013-06-22 02:36:00,
2013-06-21 21:37:00,81.8,55.1,30.00,SW,225,2.0,5.4,40,0.00,,---,0.00,VWS V14.01,2013-06-22 02:37:00,
2013-06-21 21:38:00,81.6,55.0,30.00,ESE,112,2.9,3.8,40,0.00,,---,0.00,VWS V14.01,2013-06-22 02:38:00,
2013-06-21 21:39:00,81.6,55.0,30.00,SE,135,6.7,6.7,40,0.00,,---,0.00,VWS V14.01,2013-06-22 02:39:00,
2013-06-21 21:40:00,81.6,55.0,30.00,SE,135,5.4,6.7,40,0.00,,---,0.00,VWS V14.01,2013-06-22 02:40:00,
2013-06-21 21:41:00,81.6,55.0,30.00,SE,135,2.5,5.4,40,0.00,,---,0.00,VWS V14.01,2013-06-22 02:41:00,
2013-06-21 21:42:00,81.6,55.0,30.00,South,180,5.4,5.4,40,0.00,,---,0.00,VWS V14.01,2013-06-22 02:42:00,
2013-06-21 21:43:00,81.6,55.0,30.00,SE,135,4.0,5.4,40,0.00,,---,0.00,VWS V14.01,2013-06-22 02:43:00,
2013-06-21 21:44:00,81.4,54.8,30.00,East,90,2.9,4.0,40,0.00,,---,0.00,VWS V14.01,2013-06-22 02:44:00,
2013-06-21 21:45:00,81.4,54.8,30.00,SSE,158,0.9,6.5,40,0.00,,---,0.00,VWS V14.01,2013-06-22 02:45:00,
2013-06-21 21:46:00,81.4,54.8,30.00,ESE,112,2.5,2.9,40,0.00,,---,0.00,VWS V14.01,2013-06-22 02:46:00,
2013-06-21 21:47:00,81.4,54.8,30.00,SE,135,3.4,3.6,40,0.00,,---,0.00,VWS V14.01,2013-06-22 02:47:00,
2013-06-21 21:48:00,81.3,55.3,30.00,SSE,158,2.0,3.4,41,0.00,,---,0.00,VWS V14.01,2013-06-22 02:48:00,
2013-06-21 21:49:00,81.3,55.3,30.00,NE,45,2.2,2.2,41,0.00,,---,0.00,VWS V14.01,2013-06-22 02:49:00,
2013-06-21 21:50:00,81.3,55.3,30.00,SSE,158,3.6,3.6,41,0.00,,---,0.00,VWS V14.01,2013-06-22 02:50:00,
2013-06-21 21:51:00,81.3,55.3,30.00,SW,225,1.3,3.6,41,0.00,,---,0.00,VWS V14.01,2013-06-22 02:51:00,
2013-06-21 21:52:00,81.3,55.3,30.00,SE,135,4.9,4.9,41,0.00,,---,0.00,VWS V14.01,2013-06-22 02:52:00,
2013-06-21 21:53:00,81.3,55.3,30.00,South,180,2.9,4.9,41,0.00,,---,0.00,VWS V14.01,2013-06-22 02:53:00,
2013-06-21 21:54:00,81.3,56.0,30.00,SSE,158,4.0,4.0,42,0.00,,---,0.00,VWS V14.01,2013-06-22 02:54:00,
2013-06-21 21:55:00,81.3,56.0,30.00,SSW,202,1.1,6.0,42,0.00,,---,0.00,VWS V14.01,2013-06-22 02:55:00,
2013-06-21 21:56:00,81.3,56.0,30.00,SSW,202,2.0,6.3,42,0.00,,---,0.00,VWS V14.01,2013-06-22 02:56:00,
2013-06-21 21:57:00,81.3,56.0,30.00,South,180,2.5,2.7,42,0.00,,---,0.00,VWS V14.01,2013-06-22 02:57:00,
2013-06-21 21:58:00,81.3,56.0,30.00,East,90,0.0,3.4,42,0.00,,---,0.00,VWS V14.01,2013-06-22 02:58:00,
2013-06-21 21:59:00,81.3,56.0,30.00,North,0,2.7,3.8,42,0.00,,---,0.00,VWS V14.01,2013-06-22 02:59:00,
2013-06-21 22:00:00,81.1,55.8,30.00,SW,225,2.9,3.4,42,0.00,,---,0.00,VWS V14.01,2013-06-22 03:00:00,
2013-06-21 22:01:00,81.1,55.8,30.03,SE,135,2.5,2.9,42,0.00,,---,0.00,VWS V14.01,2013-06-22 03:01:00,
2013-06-21 22:02:00,81.1,55.8,30.03,South,180,2.9,2.9,42,0.00,,---,0.00,VWS V14.01,2013-06-22 03:02:00,
2013-06-21 22:03:00,81.1,56.5,30.03,SSE,158,5.8,5.8,43,0.00,,---,0.00,VWS V14.01,2013-06-22 03:03:00,
2013-06-21 22:04:00,81.1,56.5,30.03,SW,225,1.6,5.8,43,0.00,,---,0.00,VWS V14.01,2013-06-22 03:04:00,
2013-06-21 22:05:00,81.1,56.5,30.03,SE,135,3.1,4.3,43,0.00,,---,0.00,VWS V14.01,2013-06-22 03:05:00,
2013-06-21 22:06:00,81.1,56.5,30.03,SE,135,5.6,6.0,43,0.00,,---,0.00,VWS V14.01,2013-06-22 03:06:00,
2013-06-21 22:07:00,81.1,56.5,30.03,South,180,4.7,5.6,43,0.00,,---,0.00,VWS V14.01,2013-06-22 03:07:00,
2013-06-21 22:08:00,80.9,56.3,30.03,SSE,158,3.4,4.9,43,0.00,,---,0.00,VWS V14.01,2013-06-22 03:08:00,
2013-06-21 22:09:00,80.9,56.3,30.03,SE,135,2.9,3.4,43,0.00,,---,0.00,VWS V14.01,2013-06-22 03:09:00,
2013-06-21 22:10:00,80.9,56.3,30.03,SE,135,2.9,3.4,43,0.00,,---,0.00,VWS V14.01,2013-06-22 03:10:00,
2013-06-21 22:11:00,80.9,56.3,30.03,South,180,1.1,2.9,43,0.00,,---,0.00,VWS V14.01,2013-06-22 03:11:00,
2013-06-21 22:12:00,80.9,56.3,30.03,SE,135,1.3,2.2,43,0.00,,---,0.00,VWS V14.01,2013-06-22 03:12:00,
2013-06-21 22:13:00,80.7,56.8,30.03,ESE,112,2.9,3.6,44,0.00,,---,0.00,VWS V14.01,2013-06-22 03:13:00,
2013-06-21 22:14:00,80.7,56.8,30.03,South,180,2.0,6.9,44,0.00,,---,0.00,VWS V14.01,2013-06-22 03:14:00,
2013-06-21 22:15:00,80.7,56.8,30.03,SE,135,1.1,3.1,44,0.00,,---,0.00,VWS V14.01,2013-06-22 03:15:00,
2013-06-21 22:16:00,80.7,56.8,30.03,SSW,202,2.5,2.5,44,0.00,,---,0.00,VWS V14.01,2013-06-22 03:16:00,
2013-06-21 22:17:00,80.7,56.8,30.03,South,180,2.9,5.6,44,0.00,,---,0.00,VWS V14.01,2013-06-22 03:17:00,
2013-06-21 22:18:00,80.6,56.7,30.03,ESE,112,0.9,3.8,44,0.00,,---,0.00,VWS V14.01,2013-06-22 03:18:00,
2013-06-21 22:19:00,80.6,56.7,30.03,SSW,202,3.1,3.1,44,0.00,,---,0.00,VWS V14.01,2013-06-22 03:19:00,
2013-06-21 22:20:00,80.6,57.3,30.03,South,180,4.3,7.4,45,0.00,,---,0.00,VWS V14.01,2013-06-22 03:20:00,
2013-06-21 22:21:00,80.6,57.3,30.03,South,180,2.5,5.4,45,0.00,,---,0.00,VWS V14.01,2013-06-22 03:21:00,
2013-06-21 22:22:00,80.6,57.3,30.03,SSE,158,0.0,2.5,45,0.00,,---,0.00,VWS V14.01,2013-06-22 03:22:00,
2013-06-21 22:23:00,80.6,57.3,30.03,East,90,3.1,4.3,45,0.00,,---,0.00,VWS V14.01,2013-06-22 03:23:00,
2013-06-21 22:24:00,80.6,57.3,30.03,SSE,158,3.1,6.3,45,0.00,,---,0.00,VWS V14.01,2013-06-22 03:24:00,
2013-06-21 22:25:00,80.6,57.3,30.03,SSE,158,6.5,6.5,45,0.00,,---,0.00,VWS V14.01,2013-06-22 03:25:00,
2013-06-21 22:26:00,80.6,57.9,30.03,North,0,4.3,6.5,46,0.00,,---,0.00,VWS V14.01,2013-06-22 03:26:00,
2013-06-21 22:27:00,80.6,57.9,30.03,ESE,112,3.1,7.4,46,0.00,,---,0.00,VWS V14.01,2013-06-22 03:27:00,
2013-06-21 22:28:00,80.6,57.9,30.03,South,180,2.0,4.0,46,0.00,,---,0.00,VWS V14.01,2013-06-22 03:28:00,
2013-06-21 22:29:00,80.6,57.9,30.03,ESE,112,3.8,4.5,46,0.00,,---,0.00,VWS V14.01,2013-06-22 03:29:00,
2013-06-21 22:30:00,80.6,57.9,30.03,East,90,1.3,3.8,46,0.00,,---,0.00,VWS V14.01,2013-06-22 03:30:00,
2013-06-21 22:31:00,80.6,57.9,30.03,South,180,2.5,11.9,46,0.00,,---,0.00,VWS V14.01,2013-06-22 03:31:00,
2013-06-21 22:32:00,80.6,58.5,30.03,SSW,202,6.0,8.5,47,0.00,,---,0.00,VWS V14.01,2013-06-22 03:32:00,
2013-06-21 22:33:00,80.6,57.9,30.03,SE,135,1.1,6.0,46,0.00,,---,0.00,VWS V14.01,2013-06-22 03:33:00,
2013-06-21 22:34:00,80.6,58.5,30.03,South,180,4.3,5.6,47,0.00,,---,0.00,VWS V14.01,2013-06-22 03:34:00,
2013-06-21 22:35:00,80.6,58.5,30.03,ESE,112,2.7,4.7,47,0.00,,---,0.00,VWS V14.01,2013-06-22 03:35:00,
2013-06-21 22:36:00,80.6,58.5,30.03,SW,225,4.0,4.3,47,0.00,,---,0.00,VWS V14.01,2013-06-22 03:36:00,
2013-06-21 22:37:00,80.4,58.3,30.03,WSW,248,2.9,6.5,47,0.00,,---,0.00,VWS V14.01,2013-06-22 03:37:00,
2013-06-21 22:38:00,80.4,58.3,30.03,East,90,2.9,3.6,47,0.00,,---,0.00,VWS V14.01,2013-06-22 03:38:00,
2013-06-21 22:39:00,80.4,58.3,30.03,SSE,158,2.5,2.9,47,0.00,,---,0.00,VWS V14.01,2013-06-22 03:39:00,
2013-06-21 22:40:00,80.4,58.3,30.03,West,270,3.8,3.8,47,0.00,,---,0.00,VWS V14.01,2013-06-22 03:40:00,
2013-06-21 22:41:00,80.2,58.8,30.03,SE,135,2.9,5.4,48,0.00,,---,0.00,VWS V14.01,2013-06-22 03:41:00,
2013-06-21 22:42:00,80.2,58.8,30.03,East,90,2.7,2.9,48,0.00,,---,0.00,VWS V14.01,2013-06-22 03:42:00,
2013-06-21 22:43:00,80.2,58.8,30.03,ESE,112,2.0,5.6,48,0.00,,---,0.00,VWS V14.01,2013-06-22 03:43:00,
2013-06-21 22:44:00,80.0,58.6,30.03,East,90,2.9,2.9,48,0.00,,---,0.00,VWS V14.01,2013-06-22 03:44:00,
2013-06-21 22:45:00,80.0,58.6,30.03,South,180,3.4,3.4,48,0.00,,---,0.00,VWS V14.01,2013-06-22 03:45:00,
2013-06-21 22:46:00,80.0,58.6,30.06,South,180,4.0,4.5,48,0.00,,---,0.00,VWS V14.01,2013-06-22 03:46:00,
2013-06-21 22:47:00,80.0,58.6,30.06,SE,135,1.3,4.0,48,0.00,,---,0.00,VWS V14.01,2013-06-22 03:47:00,
2013-06-21 22:48:00,79.8,59.0,30.06,SE,135,3.8,3.8,49,0.00,,---,0.00,VWS V14.01,2013-06-22 03:48:00,
2013-06-21 22:49:00,79.8,59.0,30.06,ESE,112,3.6,5.8,49,0.00,,---,0.00,VWS V14.01,2013-06-22 03:49:00,
2013-06-21 22:50:00,79.8,59.0,30.06,South,180,3.4,3.8,49,0.00,,---,0.00,VWS V14.01,2013-06-22 03:50:00,
2013-06-21 22:51:00,79.8,59.0,30.06,South,180,2.7,3.4,49,0.00,,---,0.00,VWS V14.01,2013-06-22 03:51:00,
2013-06-21 22:52:00,79.8,59.0,30.06,East,90,2.7,4.0,49,0.00,,---,0.00,VWS V14.01,2013-06-22 03:52:00,
2013-06-21 22:53:00,79.8,59.0,30.06,ESE,112,5.4,5.4,49,0.00,,---,0.00,VWS V14.01,2013-06-22 03:53:00,
2013-06-21 22:54:00,79.8,59.6,30.06,SSE,158,3.6,5.4,50,0.00,,---,0.00,VWS V14.01,2013-06-22 03:54:00,
2013-06-21 22:55:00,79.8,59.6,30.06,WSW,248,3.8,6.5,50,0.00,,---,0.00,VWS V14.01,2013-06-22 03:55:00,
2013-06-21 22:56:00,79.7,60.0,30.06,SE,135,3.1,6.3,51,0.00,,---,0.00,VWS V14.01,2013-06-22 03:56:00,
2013-06-21 22:57:00,79.7,60.0,30.06,SSW,202,3.1,6.3,51,0.00,,---,0.00,VWS V14.01,2013-06-22 03:57:00,
2013-06-21 22:58:00,79.7,60.5,30.06,ESE,112,1.3,3.1,52,0.00,,---,0.00,VWS V14.01,2013-06-22 03:58:00,
2013-06-21 22:59:00,79.7,60.5,30.06,East,90,3.6,3.6,52,0.00,,---,0.00,VWS V14.01,2013-06-22 03:59:00,
2013-06-21 23:00:00,79.7,60.5,30.06,SE,135,2.0,3.8,52,0.00,,---,0.00,VWS V14.01,2013-06-22 04:00:00,
2013-06-21 23:01:00,79.5,60.9,30.06,SE,135,2.0,2.0,53,0.00,,---,0.00,VWS V14.01,2013-06-22 04:01:00,
2013-06-21 23:02:00,79.5,60.9,30.06,SE,135,1.6,2.9,53,0.00,,---,0.00,VWS V14.01,2013-06-22 04:02:00,
2013-06-21 23:03:00,79.5,60.9,30.06,East,90,2.9,2.9,53,0.00,,---,0.00,VWS V14.01,2013-06-22 04:03:00,
2013-06-21 23:04:00,79.5,60.9,30.06,East,90,1.1,5.4,53,0.00,,---,0.00,VWS V14.01,2013-06-22 04:04:00,
2013-06-21 23:05:00,79.5,60.9,30.06,South,180,3.6,3.6,53,0.00,,---,0.00,VWS V14.01,2013-06-22 04:05:00,
2013-06-21 23:06:00,79.5,61.4,30.06,ESE,112,3.8,8.5,54,0.00,,---,0.00,VWS V14.01,2013-06-22 04:06:00,
2013-06-21 23:07:00,79.3,61.2,30.06,East,90,3.4,4.3,54,0.00,,---,0.00,VWS V14.01,2013-06-22 04:07:00,
2013-06-21 23:08:00,79.3,61.2,30.06,East,90,3.8,4.3,54,0.00,,---,0.00,VWS V14.01,2013-06-22 04:08:00,
2013-06-21 23:09:00,79.3,61.2,30.06,SW,225,2.0,3.8,54,0.00,,---,0.00,VWS V14.01,2013-06-22 04:09:00,
2013-06-21 23:10:00,79.1,61.1,30.06,SSE,158,4.0,4.0,54,0.00,,---,0.00,VWS V14.01,2013-06-22 04:10:00,
2013-06-21 23:11:00,79.1,61.6,30.06,East,90,0.9,4.9,55,0.00,,---,0.00,VWS V14.01,2013-06-22 04:11:00,
2013-06-21 23:12:00,79.1,61.6,30.06,SE,135,1.6,2.2,55,0.00,,---,0.00,VWS V14.01,2013-06-22 04:12:00,
2013-06-21 23:13:00,78.9,61.4,30.06,South,180,0.0,1.6,55,0.00,,---,0.00,VWS V14.01,2013-06-22 04:13:00,
2013-06-21 23:14:00,78.9,61.4,30.06,NW,315,2.7,5.4,55,0.00,,---,0.00,VWS V14.01,2013-06-22 04:14:00,
2013-06-21 23:15:00,78.9,61.9,30.06,NW,315,2.7,2.7,56,0.00,,---,0.00,VWS V14.01,2013-06-22 04:15:00,
2013-06-21 23:16:00,78.9,61.9,30.06,ESE,112,2.9,5.4,56,0.00,,---,0.00,VWS V14.01,2013-06-22 04:16:00,
2013-06-21 23:17:00,78.9,61.9,30.06,SE,135,3.8,3.8,56,0.00,,---,0.00,VWS V14.01,2013-06-22 04:17:00,
2013-06-21 23:18:00,78.8,62.3,30.06,SW,225,3.8,3.8,57,0.00,,---,0.00,VWS V14.01,2013-06-22 04:18:00,
2013-06-21 23:19:00,78.9,62.9,30.06,SSW,202,5.6,7.4,58,0.00,,---,0.00,VWS V14.01,2013-06-22 04:19:00,
2013-06-21 23:20:00,78.9,62.9,30.06,NE,45,3.8,5.6,58,0.00,,---,0.00,VWS V14.01,2013-06-22 04:20:00,
2013-06-21 23:21:00,78.8,63.3,30.06,NE,45,3.1,3.8,59,0.00,,---,0.00,VWS V14.01,2013-06-22 04:21:00,
2013-06-21 23:22:00,78.8,63.3,30.06,South,180,4.9,4.9,59,0.00,,---,0.00,VWS V14.01,2013-06-22 04:22:00,
2013-06-21 23:23:00,78.8,63.3,30.06,SSE,158,4.3,4.9,59,0.00,,---,0.00,VWS V14.01,2013-06-22 04:23:00,
2013-06-21 23:24:00,78.8,63.3,30.06,SE,135,2.7,4.3,59,0.00,,---,0.00,VWS V14.01,2013-06-22 04:24:00,
2013-06-21 23:25:00,78.8,63.7,30.06,East,90,1.3,4.9,60,0.00,,---,0.00,VWS V14.01,2013-06-22 04:25:00,
2013-06-21 23:26:00,78.6,63.6,30.06,South,180,2.7,2.7,60,0.00,,---,0.00,VWS V14.01,2013-06-22 04:26:00,
2013-06-21 23:27:00,78.6,64.0,30.06,SE,135,4.3,4.9,61,0.00,,---,0.00,VWS V14.01,2013-06-22 04:27:00,
2013-06-21 23:28:00,78.6,64.0,30.06,SE,135,3.4,4.3,61,0.00,,---,0.00,VWS V14.01,2013-06-22 04:28:00,
2013-06-21 23:29:00,78.6,64.5,30.06,SSE,158,5.8,8.1,62,0.00,,---,0.00,VWS V14.01,2013-06-22 04:29:00,
2013-06-21 23:30:00,78.6,64.5,30.06,NNE,22,4.0,5.8,62,0.00,,---,0.00,VWS V14.01,2013-06-22 04:30:00,
2013-06-21 23:31:00,78.6,64.0,30.06,NE,45,1.1,4.0,61,0.00,,---,0.00,VWS V14.01,2013-06-22 04:31:00,
2013-06-21 23:32:00,78.4,64.3,30.06,SSE,158,3.6,3.8,62,0.00,,---,0.00,VWS V14.01,2013-06-22 04:32:00,
2013-06-21 23:33:00,78.4,64.3,30.06,SE,135,4.0,5.8,62,0.00,,---,0.00,VWS V14.01,2013-06-22 04:33:00,
2013-06-21 23:34:00,78.2,64.2,30.06,SSW,202,0.9,4.7,62,0.00,,---,0.00,VWS V14.01,2013-06-22 04:34:00,
2013-06-21 23:35:00,78.2,64.2,30.06,South,180,3.1,3.1,62,0.00,,---,0.00,VWS V14.01,2013-06-22 04:35:00,
2013-06-21 23:36:00,78.2,64.6,30.06,SSE,158,7.6,7.6,63,0.00,,---,0.00,VWS V14.01,2013-06-22 04:36:00,
2013-06-21 23:37:00,78.2,64.6,30.06,SW,225,3.1,7.6,63,0.00,,---,0.00,VWS V14.01,2013-06-22 04:37:00,
2013-06-21 23:38:00,78.2,64.6,30.06,SSE,158,0.9,3.1,63,0.00,,---,0.00,VWS V14.01,2013-06-22 04:38:00,
2013-06-21 23:39:00,78.1,64.5,30.06,East,90,4.0,4.0,63,0.00,,---,0.00,VWS V14.01,2013-06-22 04:39:00,
2013-06-21 23:40:00,78.1,64.5,30.06,NE,45,2.7,4.0,63,0.00,,---,0.00,VWS V14.01,2013-06-22 04:40:00,
2013-06-21 23:41:00,78.1,64.5,30.06,West,270,1.3,2.7,63,0.00,,---,0.00,VWS V14.01,2013-06-22 04:41:00,
2013-06-21 23:42:00,77.9,64.3,30.06,SSE,158,1.1,3.1,63,0.00,,---,0.00,VWS V14.01,2013-06-22 04:42:00,
2013-06-21 23:43:00,77.9,64.7,30.06,SE,135,9.4,9.4,64,0.00,,---,0.00,VWS V14.01,2013-06-22 04:43:00,
2013-06-21 23:44:00,77.9,64.7,30.06,ESE,112,1.1,9.4,64,0.00,,---,0.00,VWS V14.01,2013-06-22 04:44:00,
2013-06-21 23:45:00,77.9,65.2,30.06,SSE,158,2.7,3.1,65,0.00,,---,0.00,VWS V14.01,2013-06-22 04:45:00,
2013-06-21 23:46:00,77.9,65.2,30.06,SE,135,3.4,5.6,65,0.00,,---,0.00,VWS V14.01,2013-06-22 04:46:00,
2013-06-21 23:47:00,77.9,65.2,30.06,East,90,3.1,5.8,65,0.00,,---,0.00,VWS V14.01,2013-06-22 04:47:00,
2013-06-21 23:48:00,77.7,65.0,30.06,East,90,3.4,5.8,65,0.00,,---,0.00,VWS V14.01,2013-06-22 04:48:00,
2013-06-21 23:49:00,77.9,65.6,30.06,South,180,2.5,4.9,66,0.00,,---,0.00,VWS V14.01,2013-06-22 04:49:00,
2013-06-21 23:50:00,77.7,65.0,30.06,ESE,112,0.9,2.5,65,0.00,,---,0.00,VWS V14.01,2013-06-22 04:50:00,
2013-06-21 23:51:00,77.7,65.5,30.06,South,180,4.9,6.5,66,0.00,,---,0.00,VWS V14.01,2013-06-22 04:51:00,
2013-06-21 23:52:00,77.7,65.5,30.06,NE,45,3.4,5.6,66,0.00,,---,0.00,VWS V14.01,2013-06-22 04:52:00,
2013-06-21 23:53:00,77.7,65.5,30.06,SSW,202,2.2,3.6,66,0.00,,---,0.00,VWS V14.01,2013-06-22 04:53:00,
2013-06-21 23:54:00,77.5,65.3,30.06,NE,45,1.6,3.4,66,0.00,,---,0.00,VWS V14.01,2013-06-22 04:54:00,
2013-06-21 23:55:00,77.5,65.7,30.06,South,180,4.3,7.2,67,0.00,,---,0.00,VWS V14.01,2013-06-22 04:55:00,
2013-06-21 23:56:00,77.5,65.7,30.06,SE,135,0.0,4.3,67,0.00,,---,0.00,VWS V14.01,2013-06-22 04:56:00,
2013-06-21 23:57:00,77.5,65.7,30.06,SSE,158,2.7,2.7,67,0.00,,---,0.00,VWS V14.01,2013-06-22 04:57:00,
2013-06-21 23:58:00,77.5,65.7,30.06,South,180,3.6,5.6,67,0.00,,---,0.00,VWS V14.01,2013-06-22 04:58:00,
2013-06-21 23:59:00,77.5,66.2,30.06,NE,45,3.4,3.6,68,0.00,,---,0.00,VWS V14.01,2013-06-22 04:59:00,